<?xml version="1.0" encoding="UTF-8" standalone="no" ?>
<gpx xmlns="http://www.topografix.com/GPX/1/1" xmlns:xsi="http://www.w3.org/2001/XMLSchema-instance" xsi:schemaLocation="http://www.topografix.com/GPX/1/1 http://www.topografix.com/GPX/1/1/gpx.xsd" version="1.1" creator="VisuGPX - https://www.visugpx.com">
  <metadata>
    <name>Félines</name>
    <desc><![CDATA[
]]></desc>
  </metadata>
  <trk>
    <name><![CDATA[Félines_1]]></name>
    <extensions>
      <line xmlns="http://www.topografix.com/GPX/gpx_style/0/2">
        <color>0000FF</color>
        <width>4</width>
      </line>
    </extensions>
    <trkseg>
      <trkpt lat="43.33289" lon="2.60287">
        <ele>168.27400207519</ele>
        <time>2017-07-28T05:59:23Z</time>
      </trkpt>
      <trkpt lat="43.33288" lon="2.60279">
        <ele>166.27400207519</ele>
        <time>2017-07-28T05:59:30Z</time>
      </trkpt>
      <trkpt lat="43.33286" lon="2.60271">
        <ele>167.27400207519</ele>
        <time>2017-07-28T05:59:49Z</time>
      </trkpt>
      <trkpt lat="43.33287" lon="2.60263">
        <ele>168.27400207519</ele>
        <time>2017-07-28T05:59:51Z</time>
      </trkpt>
      <trkpt lat="43.33288" lon="2.60254">
        <ele>168.27400207519</ele>
        <time>2017-07-28T05:59:54Z</time>
      </trkpt>
      <trkpt lat="43.33289" lon="2.60244">
        <ele>169.27400207519</ele>
        <time>2017-07-28T05:59:57Z</time>
      </trkpt>
      <trkpt lat="43.33289" lon="2.60237">
        <ele>170.27400207519</ele>
        <time>2017-07-28T05:59:59Z</time>
      </trkpt>
      <trkpt lat="43.3329" lon="2.6023">
        <ele>169.27400207519</ele>
        <time>2017-07-28T06:00:01Z</time>
      </trkpt>
      <trkpt lat="43.33291" lon="2.60222">
        <ele>171.27400207519</ele>
        <time>2017-07-28T06:00:04Z</time>
      </trkpt>
      <trkpt lat="43.33291" lon="2.60215">
        <ele>171.27400207519</ele>
        <time>2017-07-28T06:00:06Z</time>
      </trkpt>
      <trkpt lat="43.33287" lon="2.60207">
        <ele>171.27400207519</ele>
        <time>2017-07-28T06:00:09Z</time>
      </trkpt>
      <trkpt lat="43.33281" lon="2.60203">
        <ele>172.27400207519</ele>
        <time>2017-07-28T06:00:12Z</time>
      </trkpt>
      <trkpt lat="43.33276" lon="2.60201">
        <ele>172.27400207519</ele>
        <time>2017-07-28T06:00:14Z</time>
      </trkpt>
      <trkpt lat="43.3327" lon="2.60198">
        <ele>171.27400207519</ele>
        <time>2017-07-28T06:00:16Z</time>
      </trkpt>
      <trkpt lat="43.33265" lon="2.60194">
        <ele>172.27400207519</ele>
        <time>2017-07-28T06:00:19Z</time>
      </trkpt>
      <trkpt lat="43.33261" lon="2.60194">
        <ele>171.27400207519</ele>
        <time>2017-07-28T06:00:21Z</time>
      </trkpt>
      <trkpt lat="43.33255" lon="2.60193">
        <ele>170.27299499512</ele>
        <time>2017-07-28T06:00:23Z</time>
      </trkpt>
      <trkpt lat="43.33251" lon="2.60189">
        <ele>172.27299499512</ele>
        <time>2017-07-28T06:00:25Z</time>
      </trkpt>
      <trkpt lat="43.33247" lon="2.60185">
        <ele>171.27299499512</ele>
        <time>2017-07-28T06:00:27Z</time>
      </trkpt>
      <trkpt lat="43.3324" lon="2.60184">
        <ele>171.27299499512</ele>
        <time>2017-07-28T06:00:29Z</time>
      </trkpt>
      <trkpt lat="43.33237" lon="2.60179">
        <ele>171.27299499512</ele>
        <time>2017-07-28T06:00:31Z</time>
      </trkpt>
      <trkpt lat="43.33232" lon="2.60175">
        <ele>170.27299499512</ele>
        <time>2017-07-28T06:00:34Z</time>
      </trkpt>
      <trkpt lat="43.33224" lon="2.60174">
        <ele>168.27299499512</ele>
        <time>2017-07-28T06:00:36Z</time>
      </trkpt>
      <trkpt lat="43.33218" lon="2.60175">
        <ele>169.27299499512</ele>
        <time>2017-07-28T06:00:38Z</time>
      </trkpt>
      <trkpt lat="43.33211" lon="2.60175">
        <ele>171.27299499512</ele>
        <time>2017-07-28T06:00:40Z</time>
      </trkpt>
      <trkpt lat="43.33206" lon="2.60174">
        <ele>171.27299499512</ele>
        <time>2017-07-28T06:00:42Z</time>
      </trkpt>
      <trkpt lat="43.33199" lon="2.60173">
        <ele>170.27299499512</ele>
        <time>2017-07-28T06:00:44Z</time>
      </trkpt>
      <trkpt lat="43.33194" lon="2.6017">
        <ele>170.27299499512</ele>
        <time>2017-07-28T06:00:46Z</time>
      </trkpt>
      <trkpt lat="43.33188" lon="2.60166">
        <ele>171.27299499512</ele>
        <time>2017-07-28T06:00:49Z</time>
      </trkpt>
      <trkpt lat="43.33183" lon="2.60166">
        <ele>173.27299499512</ele>
        <time>2017-07-28T06:00:52Z</time>
      </trkpt>
      <trkpt lat="43.33171" lon="2.60167">
        <ele>172.27299499512</ele>
        <time>2017-07-28T06:00:56Z</time>
      </trkpt>
      <trkpt lat="43.33165" lon="2.60168">
        <ele>172.27299499512</ele>
        <time>2017-07-28T06:00:58Z</time>
      </trkpt>
      <trkpt lat="43.33158" lon="2.60167">
        <ele>170.27299499512</ele>
        <time>2017-07-28T06:01:00Z</time>
      </trkpt>
      <trkpt lat="43.33152" lon="2.60168">
        <ele>169.27299499512</ele>
        <time>2017-07-28T06:01:03Z</time>
      </trkpt>
      <trkpt lat="43.33145" lon="2.60169">
        <ele>172.27299499512</ele>
        <time>2017-07-28T06:01:06Z</time>
      </trkpt>
      <trkpt lat="43.33139" lon="2.60169">
        <ele>172.27299499512</ele>
        <time>2017-07-28T06:01:08Z</time>
      </trkpt>
      <trkpt lat="43.3313" lon="2.60171">
        <ele>170.27299499512</ele>
        <time>2017-07-28T06:01:11Z</time>
      </trkpt>
      <trkpt lat="43.33125" lon="2.6017">
        <ele>172.27299499512</ele>
        <time>2017-07-28T06:01:13Z</time>
      </trkpt>
      <trkpt lat="43.33118" lon="2.60171">
        <ele>171.27299499512</ele>
        <time>2017-07-28T06:01:15Z</time>
      </trkpt>
      <trkpt lat="43.33114" lon="2.60177">
        <ele>170.27299499512</ele>
        <time>2017-07-28T06:01:17Z</time>
      </trkpt>
      <trkpt lat="43.33109" lon="2.60179">
        <ele>170.27299499512</ele>
        <time>2017-07-28T06:01:19Z</time>
      </trkpt>
      <trkpt lat="43.33104" lon="2.60181">
        <ele>168.27299499512</ele>
        <time>2017-07-28T06:01:21Z</time>
      </trkpt>
      <trkpt lat="43.33098" lon="2.60182">
        <ele>167.27299499512</ele>
        <time>2017-07-28T06:01:23Z</time>
      </trkpt>
      <trkpt lat="43.33092" lon="2.60184">
        <ele>165.27299499512</ele>
        <time>2017-07-28T06:01:25Z</time>
      </trkpt>
      <trkpt lat="43.33087" lon="2.60186">
        <ele>164.27299499512</ele>
        <time>2017-07-28T06:01:27Z</time>
      </trkpt>
      <trkpt lat="43.33082" lon="2.60189">
        <ele>164.27299499512</ele>
        <time>2017-07-28T06:01:29Z</time>
      </trkpt>
      <trkpt lat="43.33075" lon="2.60193">
        <ele>162.27299499512</ele>
        <time>2017-07-28T06:01:32Z</time>
      </trkpt>
      <trkpt lat="43.33069" lon="2.60196">
        <ele>160.27299499512</ele>
        <time>2017-07-28T06:01:34Z</time>
      </trkpt>
      <trkpt lat="43.33063" lon="2.60201">
        <ele>159.27299499512</ele>
        <time>2017-07-28T06:01:36Z</time>
      </trkpt>
      <trkpt lat="43.3306" lon="2.60206">
        <ele>157.27299499512</ele>
        <time>2017-07-28T06:01:38Z</time>
      </trkpt>
      <trkpt lat="43.33055" lon="2.60206">
        <ele>157.27299499512</ele>
        <time>2017-07-28T06:01:40Z</time>
      </trkpt>
      <trkpt lat="43.3305" lon="2.60205">
        <ele>158.27299499512</ele>
        <time>2017-07-28T06:01:42Z</time>
      </trkpt>
      <trkpt lat="43.33045" lon="2.60206">
        <ele>158.27299499512</ele>
        <time>2017-07-28T06:01:44Z</time>
      </trkpt>
      <trkpt lat="43.33041" lon="2.60203">
        <ele>156.27299499512</ele>
        <time>2017-07-28T06:01:46Z</time>
      </trkpt>
      <trkpt lat="43.33035" lon="2.60202">
        <ele>158.27299499512</ele>
        <time>2017-07-28T06:01:48Z</time>
      </trkpt>
      <trkpt lat="43.33031" lon="2.60197">
        <ele>157.27299499512</ele>
        <time>2017-07-28T06:01:51Z</time>
      </trkpt>
      <trkpt lat="43.33025" lon="2.60193">
        <ele>157.27299499512</ele>
        <time>2017-07-28T06:01:55Z</time>
      </trkpt>
      <trkpt lat="43.3302" lon="2.60192">
        <ele>157.27299499512</ele>
        <time>2017-07-28T06:01:57Z</time>
      </trkpt>
      <trkpt lat="43.33015" lon="2.60188">
        <ele>157.27299499512</ele>
        <time>2017-07-28T06:01:59Z</time>
      </trkpt>
      <trkpt lat="43.33009" lon="2.60185">
        <ele>158.27299499512</ele>
        <time>2017-07-28T06:02:02Z</time>
      </trkpt>
      <trkpt lat="43.33003" lon="2.60183">
        <ele>157.27299499512</ele>
        <time>2017-07-28T06:02:04Z</time>
      </trkpt>
      <trkpt lat="43.32997" lon="2.60179">
        <ele>158.27299499512</ele>
        <time>2017-07-28T06:02:07Z</time>
      </trkpt>
      <trkpt lat="43.32992" lon="2.60176">
        <ele>158.27200317383</ele>
        <time>2017-07-28T06:02:09Z</time>
      </trkpt>
      <trkpt lat="43.32985" lon="2.60174">
        <ele>157.27200317383</ele>
        <time>2017-07-28T06:02:12Z</time>
      </trkpt>
      <trkpt lat="43.3298" lon="2.6017">
        <ele>159.27200317383</ele>
        <time>2017-07-28T06:02:15Z</time>
      </trkpt>
      <trkpt lat="43.32975" lon="2.60169">
        <ele>159.27200317383</ele>
        <time>2017-07-28T06:02:17Z</time>
      </trkpt>
      <trkpt lat="43.32969" lon="2.60168">
        <ele>158.27200317383</ele>
        <time>2017-07-28T06:02:19Z</time>
      </trkpt>
      <trkpt lat="43.32963" lon="2.60168">
        <ele>159.27200317383</ele>
        <time>2017-07-28T06:02:21Z</time>
      </trkpt>
      <trkpt lat="43.32958" lon="2.60168">
        <ele>159.27200317383</ele>
        <time>2017-07-28T06:02:23Z</time>
      </trkpt>
      <trkpt lat="43.32953" lon="2.60172">
        <ele>159.27200317383</ele>
        <time>2017-07-28T06:02:25Z</time>
      </trkpt>
      <trkpt lat="43.32948" lon="2.60176">
        <ele>158.27200317383</ele>
        <time>2017-07-28T06:02:27Z</time>
      </trkpt>
      <trkpt lat="43.32945" lon="2.60181">
        <ele>157.27200317383</ele>
        <time>2017-07-28T06:02:29Z</time>
      </trkpt>
      <trkpt lat="43.32942" lon="2.60189">
        <ele>156.27200317383</ele>
        <time>2017-07-28T06:02:31Z</time>
      </trkpt>
      <trkpt lat="43.32938" lon="2.60197">
        <ele>157.27200317383</ele>
        <time>2017-07-28T06:02:33Z</time>
      </trkpt>
      <trkpt lat="43.32935" lon="2.60205">
        <ele>157.27200317383</ele>
        <time>2017-07-28T06:02:35Z</time>
      </trkpt>
      <trkpt lat="43.32933" lon="2.60214">
        <ele>158.27200317383</ele>
        <time>2017-07-28T06:02:38Z</time>
      </trkpt>
      <trkpt lat="43.3293" lon="2.60221">
        <ele>156.27200317383</ele>
        <time>2017-07-28T06:02:40Z</time>
      </trkpt>
      <trkpt lat="43.32926" lon="2.60228">
        <ele>159.27200317383</ele>
        <time>2017-07-28T06:02:43Z</time>
      </trkpt>
      <trkpt lat="43.32921" lon="2.60234">
        <ele>159.27200317383</ele>
        <time>2017-07-28T06:02:46Z</time>
      </trkpt>
      <trkpt lat="43.32917" lon="2.6024">
        <ele>159.27200317383</ele>
        <time>2017-07-28T06:02:48Z</time>
      </trkpt>
      <trkpt lat="43.32912" lon="2.60245">
        <ele>159.27200317383</ele>
        <time>2017-07-28T06:02:51Z</time>
      </trkpt>
      <trkpt lat="43.32909" lon="2.6025">
        <ele>160.27200317383</ele>
        <time>2017-07-28T06:02:53Z</time>
      </trkpt>
      <trkpt lat="43.32905" lon="2.60255">
        <ele>159.27200317383</ele>
        <time>2017-07-28T06:02:55Z</time>
      </trkpt>
      <trkpt lat="43.32902" lon="2.60259">
        <ele>159.27200317383</ele>
        <time>2017-07-28T06:02:57Z</time>
      </trkpt>
      <trkpt lat="43.32898" lon="2.60268">
        <ele>161.27200317383</ele>
        <time>2017-07-28T06:03:00Z</time>
      </trkpt>
      <trkpt lat="43.32895" lon="2.60273">
        <ele>160.27200317383</ele>
        <time>2017-07-28T06:03:02Z</time>
      </trkpt>
      <trkpt lat="43.3289" lon="2.60279">
        <ele>160.27200317383</ele>
        <time>2017-07-28T06:03:04Z</time>
      </trkpt>
      <trkpt lat="43.32887" lon="2.60286">
        <ele>161.27200317383</ele>
        <time>2017-07-28T06:03:06Z</time>
      </trkpt>
      <trkpt lat="43.32884" lon="2.60292">
        <ele>160.27200317383</ele>
        <time>2017-07-28T06:03:08Z</time>
      </trkpt>
      <trkpt lat="43.32882" lon="2.60297">
        <ele>159.27200317383</ele>
        <time>2017-07-28T06:03:10Z</time>
      </trkpt>
      <trkpt lat="43.32879" lon="2.60303">
        <ele>159.27200317383</ele>
        <time>2017-07-28T06:03:12Z</time>
      </trkpt>
      <trkpt lat="43.32875" lon="2.60311">
        <ele>160.27200317383</ele>
        <time>2017-07-28T06:03:15Z</time>
      </trkpt>
      <trkpt lat="43.32872" lon="2.6032">
        <ele>159.27200317383</ele>
        <time>2017-07-28T06:03:18Z</time>
      </trkpt>
      <trkpt lat="43.3287" lon="2.60326">
        <ele>159.27200317383</ele>
        <time>2017-07-28T06:03:20Z</time>
      </trkpt>
      <trkpt lat="43.32866" lon="2.60332">
        <ele>159.27200317383</ele>
        <time>2017-07-28T06:03:23Z</time>
      </trkpt>
      <trkpt lat="43.32863" lon="2.60338">
        <ele>159.27200317383</ele>
        <time>2017-07-28T06:03:25Z</time>
      </trkpt>
      <trkpt lat="43.32859" lon="2.60344">
        <ele>159.27200317383</ele>
        <time>2017-07-28T06:03:27Z</time>
      </trkpt>
      <trkpt lat="43.32857" lon="2.60349">
        <ele>161.27200317383</ele>
        <time>2017-07-28T06:03:29Z</time>
      </trkpt>
      <trkpt lat="43.32854" lon="2.60355">
        <ele>162.27200317383</ele>
        <time>2017-07-28T06:03:31Z</time>
      </trkpt>
      <trkpt lat="43.32847" lon="2.6036">
        <ele>161.27200317383</ele>
        <time>2017-07-28T06:03:33Z</time>
      </trkpt>
      <trkpt lat="43.32842" lon="2.60364">
        <ele>160.27200317383</ele>
        <time>2017-07-28T06:03:36Z</time>
      </trkpt>
      <trkpt lat="43.32836" lon="2.60368">
        <ele>161.27200317383</ele>
        <time>2017-07-28T06:03:39Z</time>
      </trkpt>
      <trkpt lat="43.32831" lon="2.6037">
        <ele>160.27200317383</ele>
        <time>2017-07-28T06:03:41Z</time>
      </trkpt>
      <trkpt lat="43.32828" lon="2.60374">
        <ele>162.27200317383</ele>
        <time>2017-07-28T06:03:43Z</time>
      </trkpt>
      <trkpt lat="43.32823" lon="2.6038">
        <ele>161.27200317383</ele>
        <time>2017-07-28T06:03:46Z</time>
      </trkpt>
      <trkpt lat="43.32819" lon="2.60385">
        <ele>163.27200317383</ele>
        <time>2017-07-28T06:03:48Z</time>
      </trkpt>
      <trkpt lat="43.32814" lon="2.60391">
        <ele>163.27200317383</ele>
        <time>2017-07-28T06:03:51Z</time>
      </trkpt>
      <trkpt lat="43.32811" lon="2.60399">
        <ele>165.27200317383</ele>
        <time>2017-07-28T06:03:54Z</time>
      </trkpt>
      <trkpt lat="43.32808" lon="2.60404">
        <ele>166.27200317383</ele>
        <time>2017-07-28T06:03:56Z</time>
      </trkpt>
      <trkpt lat="43.32805" lon="2.60409">
        <ele>166.27200317383</ele>
        <time>2017-07-28T06:03:58Z</time>
      </trkpt>
      <trkpt lat="43.32802" lon="2.60415">
        <ele>167.27200317383</ele>
        <time>2017-07-28T06:04:01Z</time>
      </trkpt>
      <trkpt lat="43.32798" lon="2.6042">
        <ele>166.27200317383</ele>
        <time>2017-07-28T06:04:05Z</time>
      </trkpt>
      <trkpt lat="43.32794" lon="2.60425">
        <ele>167.27200317383</ele>
        <time>2017-07-28T06:04:07Z</time>
      </trkpt>
      <trkpt lat="43.32791" lon="2.60431">
        <ele>166.27200317383</ele>
        <time>2017-07-28T06:04:10Z</time>
      </trkpt>
      <trkpt lat="43.32787" lon="2.60437">
        <ele>167.27200317383</ele>
        <time>2017-07-28T06:04:13Z</time>
      </trkpt>
      <trkpt lat="43.32782" lon="2.60442">
        <ele>166.27200317383</ele>
        <time>2017-07-28T06:04:16Z</time>
      </trkpt>
      <trkpt lat="43.32779" lon="2.60446">
        <ele>166.27200317383</ele>
        <time>2017-07-28T06:04:18Z</time>
      </trkpt>
      <trkpt lat="43.32774" lon="2.60451">
        <ele>165.27200317383</ele>
        <time>2017-07-28T06:04:21Z</time>
      </trkpt>
      <trkpt lat="43.3277" lon="2.60454">
        <ele>166.27200317383</ele>
        <time>2017-07-28T06:04:23Z</time>
      </trkpt>
      <trkpt lat="43.32766" lon="2.60458">
        <ele>166.27200317383</ele>
        <time>2017-07-28T06:04:26Z</time>
      </trkpt>
      <trkpt lat="43.32759" lon="2.6046">
        <ele>166.27200317383</ele>
        <time>2017-07-28T06:04:29Z</time>
      </trkpt>
      <trkpt lat="43.32754" lon="2.60463">
        <ele>167.27200317383</ele>
        <time>2017-07-28T06:04:32Z</time>
      </trkpt>
      <trkpt lat="43.32747" lon="2.60465">
        <ele>167.27200317383</ele>
        <time>2017-07-28T06:04:35Z</time>
      </trkpt>
      <trkpt lat="43.32742" lon="2.60467">
        <ele>169.27200317383</ele>
        <time>2017-07-28T06:04:38Z</time>
      </trkpt>
      <trkpt lat="43.32737" lon="2.60471">
        <ele>169.27200317383</ele>
        <time>2017-07-28T06:04:41Z</time>
      </trkpt>
      <trkpt lat="43.32732" lon="2.60475">
        <ele>169.27200317383</ele>
        <time>2017-07-28T06:04:44Z</time>
      </trkpt>
      <trkpt lat="43.32727" lon="2.60479">
        <ele>168.27200317383</ele>
        <time>2017-07-28T06:04:47Z</time>
      </trkpt>
      <trkpt lat="43.32723" lon="2.60482">
        <ele>169.27200317383</ele>
        <time>2017-07-28T06:04:50Z</time>
      </trkpt>
      <trkpt lat="43.32719" lon="2.60485">
        <ele>169.27200317383</ele>
        <time>2017-07-28T06:04:52Z</time>
      </trkpt>
      <trkpt lat="43.32714" lon="2.60491">
        <ele>170.27200317383</ele>
        <time>2017-07-28T06:04:55Z</time>
      </trkpt>
      <trkpt lat="43.3271" lon="2.60498">
        <ele>171.27200317383</ele>
        <time>2017-07-28T06:04:58Z</time>
      </trkpt>
      <trkpt lat="43.32706" lon="2.60504">
        <ele>172.27200317383</ele>
        <time>2017-07-28T06:05:01Z</time>
      </trkpt>
      <trkpt lat="43.32702" lon="2.60509">
        <ele>174.27200317383</ele>
        <time>2017-07-28T06:05:04Z</time>
      </trkpt>
      <trkpt lat="43.32699" lon="2.60514">
        <ele>173.27200317383</ele>
        <time>2017-07-28T06:05:07Z</time>
      </trkpt>
      <trkpt lat="43.32696" lon="2.60518">
        <ele>174.27200317383</ele>
        <time>2017-07-28T06:05:10Z</time>
      </trkpt>
      <trkpt lat="43.32693" lon="2.60524">
        <ele>174.27200317383</ele>
        <time>2017-07-28T06:05:12Z</time>
      </trkpt>
      <trkpt lat="43.32689" lon="2.60528">
        <ele>176.27200317383</ele>
        <time>2017-07-28T06:05:14Z</time>
      </trkpt>
      <trkpt lat="43.32685" lon="2.60532">
        <ele>174.27200317383</ele>
        <time>2017-07-28T06:05:17Z</time>
      </trkpt>
      <trkpt lat="43.3268" lon="2.60537">
        <ele>175.27200317383</ele>
        <time>2017-07-28T06:05:20Z</time>
      </trkpt>
      <trkpt lat="43.32674" lon="2.60542">
        <ele>177.27200317383</ele>
        <time>2017-07-28T06:05:23Z</time>
      </trkpt>
      <trkpt lat="43.32669" lon="2.60545">
        <ele>179.27200317383</ele>
        <time>2017-07-28T06:05:26Z</time>
      </trkpt>
      <trkpt lat="43.32663" lon="2.60548">
        <ele>181.27200317383</ele>
        <time>2017-07-28T06:05:29Z</time>
      </trkpt>
      <trkpt lat="43.32658" lon="2.60548">
        <ele>181.27200317383</ele>
        <time>2017-07-28T06:05:32Z</time>
      </trkpt>
      <trkpt lat="43.32652" lon="2.60549">
        <ele>182.27200317383</ele>
        <time>2017-07-28T06:05:35Z</time>
      </trkpt>
      <trkpt lat="43.32646" lon="2.60546">
        <ele>182.27200317383</ele>
        <time>2017-07-28T06:05:38Z</time>
      </trkpt>
      <trkpt lat="43.32642" lon="2.60542">
        <ele>183.27200317383</ele>
        <time>2017-07-28T06:05:41Z</time>
      </trkpt>
      <trkpt lat="43.32638" lon="2.6054">
        <ele>183.27200317383</ele>
        <time>2017-07-28T06:05:44Z</time>
      </trkpt>
      <trkpt lat="43.32632" lon="2.60538">
        <ele>183.27200317383</ele>
        <time>2017-07-28T06:05:46Z</time>
      </trkpt>
      <trkpt lat="43.32628" lon="2.60536">
        <ele>182.27200317383</ele>
        <time>2017-07-28T06:05:48Z</time>
      </trkpt>
      <trkpt lat="43.32621" lon="2.60538">
        <ele>180.27200317383</ele>
        <time>2017-07-28T06:05:51Z</time>
      </trkpt>
      <trkpt lat="43.32615" lon="2.6054">
        <ele>179.27200317383</ele>
        <time>2017-07-28T06:05:53Z</time>
      </trkpt>
      <trkpt lat="43.32611" lon="2.60544">
        <ele>178.27200317383</ele>
        <time>2017-07-28T06:05:55Z</time>
      </trkpt>
      <trkpt lat="43.32608" lon="2.60549">
        <ele>180.27200317383</ele>
        <time>2017-07-28T06:05:57Z</time>
      </trkpt>
      <trkpt lat="43.32604" lon="2.60555">
        <ele>182.27200317383</ele>
        <time>2017-07-28T06:05:59Z</time>
      </trkpt>
      <trkpt lat="43.32601" lon="2.60563">
        <ele>184.27200317383</ele>
        <time>2017-07-28T06:06:02Z</time>
      </trkpt>
      <trkpt lat="43.32598" lon="2.60571">
        <ele>183.27200317383</ele>
        <time>2017-07-28T06:06:05Z</time>
      </trkpt>
      <trkpt lat="43.32598" lon="2.60579">
        <ele>184.27200317383</ele>
        <time>2017-07-28T06:06:08Z</time>
      </trkpt>
      <trkpt lat="43.32598" lon="2.60586">
        <ele>183.27200317383</ele>
        <time>2017-07-28T06:06:11Z</time>
      </trkpt>
      <trkpt lat="43.326" lon="2.60594">
        <ele>184.27200317383</ele>
        <time>2017-07-28T06:06:14Z</time>
      </trkpt>
      <trkpt lat="43.32602" lon="2.60602">
        <ele>185.27200317383</ele>
        <time>2017-07-28T06:06:17Z</time>
      </trkpt>
      <trkpt lat="43.32602" lon="2.6061">
        <ele>184.27200317383</ele>
        <time>2017-07-28T06:06:19Z</time>
      </trkpt>
      <trkpt lat="43.32601" lon="2.60617">
        <ele>184.27200317383</ele>
        <time>2017-07-28T06:06:21Z</time>
      </trkpt>
      <trkpt lat="43.32598" lon="2.60624">
        <ele>183.27200317383</ele>
        <time>2017-07-28T06:06:23Z</time>
      </trkpt>
      <trkpt lat="43.32595" lon="2.60631">
        <ele>183.27200317383</ele>
        <time>2017-07-28T06:06:25Z</time>
      </trkpt>
      <trkpt lat="43.32592" lon="2.60638">
        <ele>183.27200317383</ele>
        <time>2017-07-28T06:06:27Z</time>
      </trkpt>
      <trkpt lat="43.32589" lon="2.60644">
        <ele>182.27200317383</ele>
        <time>2017-07-28T06:06:29Z</time>
      </trkpt>
      <trkpt lat="43.32587" lon="2.6065">
        <ele>174.27200317383</ele>
        <time>2017-07-28T06:06:31Z</time>
      </trkpt>
      <trkpt lat="43.32584" lon="2.60656">
        <ele>177.27200317383</ele>
        <time>2017-07-28T06:06:33Z</time>
      </trkpt>
      <trkpt lat="43.32582" lon="2.60663">
        <ele>179.27200317383</ele>
        <time>2017-07-28T06:06:35Z</time>
      </trkpt>
      <trkpt lat="43.32579" lon="2.60669">
        <ele>180.27200317383</ele>
        <time>2017-07-28T06:06:37Z</time>
      </trkpt>
      <trkpt lat="43.32576" lon="2.60675">
        <ele>180.27200317383</ele>
        <time>2017-07-28T06:06:39Z</time>
      </trkpt>
      <trkpt lat="43.32573" lon="2.60683">
        <ele>183.27200317383</ele>
        <time>2017-07-28T06:06:41Z</time>
      </trkpt>
      <trkpt lat="43.3257" lon="2.60689">
        <ele>182.27200317383</ele>
        <time>2017-07-28T06:06:43Z</time>
      </trkpt>
      <trkpt lat="43.32568" lon="2.60695">
        <ele>183.27200317383</ele>
        <time>2017-07-28T06:06:45Z</time>
      </trkpt>
      <trkpt lat="43.32565" lon="2.60701">
        <ele>184.27200317383</ele>
        <time>2017-07-28T06:06:47Z</time>
      </trkpt>
      <trkpt lat="43.32563" lon="2.60707">
        <ele>184.27200317383</ele>
        <time>2017-07-28T06:06:49Z</time>
      </trkpt>
      <trkpt lat="43.32561" lon="2.60713">
        <ele>183.27200317383</ele>
        <time>2017-07-28T06:06:51Z</time>
      </trkpt>
      <trkpt lat="43.32559" lon="2.60722">
        <ele>184.27200317383</ele>
        <time>2017-07-28T06:06:54Z</time>
      </trkpt>
      <trkpt lat="43.32557" lon="2.60729">
        <ele>183.27200317383</ele>
        <time>2017-07-28T06:06:56Z</time>
      </trkpt>
      <trkpt lat="43.32558" lon="2.60735">
        <ele>183.27200317383</ele>
        <time>2017-07-28T06:06:58Z</time>
      </trkpt>
      <trkpt lat="43.32557" lon="2.60742">
        <ele>182.27200317383</ele>
        <time>2017-07-28T06:07:00Z</time>
      </trkpt>
      <trkpt lat="43.32556" lon="2.60751">
        <ele>183.27200317383</ele>
        <time>2017-07-28T06:07:03Z</time>
      </trkpt>
      <trkpt lat="43.32555" lon="2.60757">
        <ele>183.27200317383</ele>
        <time>2017-07-28T06:07:05Z</time>
      </trkpt>
      <trkpt lat="43.32555" lon="2.60764">
        <ele>184.27200317383</ele>
        <time>2017-07-28T06:07:07Z</time>
      </trkpt>
      <trkpt lat="43.32553" lon="2.6077">
        <ele>185.27200317383</ele>
        <time>2017-07-28T06:07:09Z</time>
      </trkpt>
      <trkpt lat="43.32551" lon="2.60779">
        <ele>186.27200317383</ele>
        <time>2017-07-28T06:07:12Z</time>
      </trkpt>
      <trkpt lat="43.3255" lon="2.60787">
        <ele>185.27200317383</ele>
        <time>2017-07-28T06:07:15Z</time>
      </trkpt>
      <trkpt lat="43.32548" lon="2.60797">
        <ele>185.27200317383</ele>
        <time>2017-07-28T06:07:18Z</time>
      </trkpt>
      <trkpt lat="43.32547" lon="2.60805">
        <ele>185.27200317383</ele>
        <time>2017-07-28T06:07:20Z</time>
      </trkpt>
      <trkpt lat="43.32546" lon="2.60812">
        <ele>185.27200317383</ele>
        <time>2017-07-28T06:07:22Z</time>
      </trkpt>
      <trkpt lat="43.32545" lon="2.60819">
        <ele>185.27200317383</ele>
        <time>2017-07-28T06:07:25Z</time>
      </trkpt>
      <trkpt lat="43.32542" lon="2.60826">
        <ele>187.27200317383</ele>
        <time>2017-07-28T06:07:28Z</time>
      </trkpt>
      <trkpt lat="43.32537" lon="2.6083">
        <ele>187.27200317383</ele>
        <time>2017-07-28T06:07:30Z</time>
      </trkpt>
      <trkpt lat="43.32531" lon="2.60827">
        <ele>188.27200317383</ele>
        <time>2017-07-28T06:07:33Z</time>
      </trkpt>
      <trkpt lat="43.32527" lon="2.60822">
        <ele>189.27200317383</ele>
        <time>2017-07-28T06:07:36Z</time>
      </trkpt>
      <trkpt lat="43.3252" lon="2.6081">
        <ele>189.27200317383</ele>
        <time>2017-07-28T06:07:41Z</time>
      </trkpt>
      <trkpt lat="43.32515" lon="2.60812">
        <ele>190.27200317383</ele>
        <time>2017-07-28T06:07:44Z</time>
      </trkpt>
      <trkpt lat="43.32515" lon="2.60821">
        <ele>189.27200317383</ele>
        <time>2017-07-28T06:07:48Z</time>
      </trkpt>
      <trkpt lat="43.32517" lon="2.60829">
        <ele>188.27200317383</ele>
        <time>2017-07-28T06:07:51Z</time>
      </trkpt>
      <trkpt lat="43.32518" lon="2.60836">
        <ele>188.27200317383</ele>
        <time>2017-07-28T06:07:53Z</time>
      </trkpt>
      <trkpt lat="43.32521" lon="2.60844">
        <ele>190.27200317383</ele>
        <time>2017-07-28T06:07:56Z</time>
      </trkpt>
      <trkpt lat="43.32521" lon="2.60852">
        <ele>191.27200317383</ele>
        <time>2017-07-28T06:07:59Z</time>
      </trkpt>
      <trkpt lat="43.32519" lon="2.6086">
        <ele>192.27200317383</ele>
        <time>2017-07-28T06:08:02Z</time>
      </trkpt>
      <trkpt lat="43.32516" lon="2.60868">
        <ele>192.27200317383</ele>
        <time>2017-07-28T06:08:05Z</time>
      </trkpt>
      <trkpt lat="43.32513" lon="2.60876">
        <ele>192.27200317383</ele>
        <time>2017-07-28T06:08:08Z</time>
      </trkpt>
      <trkpt lat="43.32512" lon="2.60882">
        <ele>191.27200317383</ele>
        <time>2017-07-28T06:08:10Z</time>
      </trkpt>
      <trkpt lat="43.32509" lon="2.60888">
        <ele>191.27200317383</ele>
        <time>2017-07-28T06:08:12Z</time>
      </trkpt>
      <trkpt lat="43.32506" lon="2.60897">
        <ele>190.27200317383</ele>
        <time>2017-07-28T06:08:15Z</time>
      </trkpt>
      <trkpt lat="43.32505" lon="2.60903">
        <ele>190.27200317383</ele>
        <time>2017-07-28T06:08:17Z</time>
      </trkpt>
      <trkpt lat="43.32504" lon="2.60912">
        <ele>189.27200317383</ele>
        <time>2017-07-28T06:08:20Z</time>
      </trkpt>
      <trkpt lat="43.32502" lon="2.60918">
        <ele>190.27200317383</ele>
        <time>2017-07-28T06:08:22Z</time>
      </trkpt>
      <trkpt lat="43.32499" lon="2.60926">
        <ele>191.27200317383</ele>
        <time>2017-07-28T06:08:24Z</time>
      </trkpt>
      <trkpt lat="43.32498" lon="2.60933">
        <ele>192.27200317383</ele>
        <time>2017-07-28T06:08:26Z</time>
      </trkpt>
      <trkpt lat="43.32496" lon="2.6094">
        <ele>193.27200317383</ele>
        <time>2017-07-28T06:08:28Z</time>
      </trkpt>
      <trkpt lat="43.32494" lon="2.60949">
        <ele>192.27200317383</ele>
        <time>2017-07-28T06:08:31Z</time>
      </trkpt>
      <trkpt lat="43.32491" lon="2.60956">
        <ele>193.27200317383</ele>
        <time>2017-07-28T06:08:33Z</time>
      </trkpt>
      <trkpt lat="43.3249" lon="2.60963">
        <ele>193.27200317383</ele>
        <time>2017-07-28T06:08:35Z</time>
      </trkpt>
      <trkpt lat="43.32488" lon="2.60969">
        <ele>192.27200317383</ele>
        <time>2017-07-28T06:08:37Z</time>
      </trkpt>
      <trkpt lat="43.32487" lon="2.60976">
        <ele>192.27200317383</ele>
        <time>2017-07-28T06:08:39Z</time>
      </trkpt>
      <trkpt lat="43.32485" lon="2.60983">
        <ele>193.27200317383</ele>
        <time>2017-07-28T06:08:41Z</time>
      </trkpt>
      <trkpt lat="43.32484" lon="2.60991">
        <ele>192.27299499512</ele>
        <time>2017-07-28T06:08:43Z</time>
      </trkpt>
      <trkpt lat="43.32481" lon="2.61">
        <ele>196.27299499512</ele>
        <time>2017-07-28T06:08:46Z</time>
      </trkpt>
      <trkpt lat="43.3248" lon="2.61006">
        <ele>196.27299499512</ele>
        <time>2017-07-28T06:08:48Z</time>
      </trkpt>
      <trkpt lat="43.32479" lon="2.61014">
        <ele>198.27299499512</ele>
        <time>2017-07-28T06:08:50Z</time>
      </trkpt>
      <trkpt lat="43.32477" lon="2.61022">
        <ele>199.27299499512</ele>
        <time>2017-07-28T06:08:52Z</time>
      </trkpt>
      <trkpt lat="43.32475" lon="2.61031">
        <ele>199.27299499512</ele>
        <time>2017-07-28T06:08:55Z</time>
      </trkpt>
      <trkpt lat="43.32473" lon="2.61037">
        <ele>201.27299499512</ele>
        <time>2017-07-28T06:08:57Z</time>
      </trkpt>
      <trkpt lat="43.32472" lon="2.61045">
        <ele>201.27299499512</ele>
        <time>2017-07-28T06:08:59Z</time>
      </trkpt>
      <trkpt lat="43.32473" lon="2.61055">
        <ele>198.27299499512</ele>
        <time>2017-07-28T06:09:01Z</time>
      </trkpt>
      <trkpt lat="43.32473" lon="2.61061">
        <ele>200.27299499512</ele>
        <time>2017-07-28T06:09:03Z</time>
      </trkpt>
      <trkpt lat="43.32474" lon="2.6107">
        <ele>199.27299499512</ele>
        <time>2017-07-28T06:09:06Z</time>
      </trkpt>
      <trkpt lat="43.32475" lon="2.61078">
        <ele>199.27299499512</ele>
        <time>2017-07-28T06:09:08Z</time>
      </trkpt>
      <trkpt lat="43.32477" lon="2.61084">
        <ele>199.27299499512</ele>
        <time>2017-07-28T06:09:10Z</time>
      </trkpt>
      <trkpt lat="43.32478" lon="2.61092">
        <ele>198.27299499512</ele>
        <time>2017-07-28T06:09:12Z</time>
      </trkpt>
      <trkpt lat="43.3248" lon="2.61101">
        <ele>198.27299499512</ele>
        <time>2017-07-28T06:09:15Z</time>
      </trkpt>
      <trkpt lat="43.3248" lon="2.61107">
        <ele>195.27299499512</ele>
        <time>2017-07-28T06:09:17Z</time>
      </trkpt>
      <trkpt lat="43.32482" lon="2.61113">
        <ele>196.27299499512</ele>
        <time>2017-07-28T06:09:19Z</time>
      </trkpt>
      <trkpt lat="43.32483" lon="2.61119">
        <ele>197.27299499512</ele>
        <time>2017-07-28T06:09:21Z</time>
      </trkpt>
      <trkpt lat="43.32484" lon="2.61126">
        <ele>196.27299499512</ele>
        <time>2017-07-28T06:09:23Z</time>
      </trkpt>
      <trkpt lat="43.32485" lon="2.61133">
        <ele>195.27299499512</ele>
        <time>2017-07-28T06:09:25Z</time>
      </trkpt>
      <trkpt lat="43.32485" lon="2.6114">
        <ele>196.27299499512</ele>
        <time>2017-07-28T06:09:28Z</time>
      </trkpt>
      <trkpt lat="43.32484" lon="2.61149">
        <ele>196.27299499512</ele>
        <time>2017-07-28T06:09:31Z</time>
      </trkpt>
      <trkpt lat="43.32485" lon="2.61157">
        <ele>198.27299499512</ele>
        <time>2017-07-28T06:09:33Z</time>
      </trkpt>
      <trkpt lat="43.32485" lon="2.61166">
        <ele>198.27299499512</ele>
        <time>2017-07-28T06:09:36Z</time>
      </trkpt>
      <trkpt lat="43.32488" lon="2.61171">
        <ele>197.27299499512</ele>
        <time>2017-07-28T06:09:37Z</time>
      </trkpt>
      <trkpt lat="43.32487" lon="2.61181">
        <ele>195.27299499512</ele>
        <time>2017-07-28T06:09:40Z</time>
      </trkpt>
      <trkpt lat="43.32488" lon="2.61189">
        <ele>195.27299499512</ele>
        <time>2017-07-28T06:09:43Z</time>
      </trkpt>
      <trkpt lat="43.32489" lon="2.61196">
        <ele>195.27299499512</ele>
        <time>2017-07-28T06:09:45Z</time>
      </trkpt>
      <trkpt lat="43.32491" lon="2.61205">
        <ele>194.27299499512</ele>
        <time>2017-07-28T06:09:48Z</time>
      </trkpt>
      <trkpt lat="43.32493" lon="2.61213">
        <ele>194.27299499512</ele>
        <time>2017-07-28T06:09:51Z</time>
      </trkpt>
      <trkpt lat="43.32493" lon="2.6122">
        <ele>195.27299499512</ele>
        <time>2017-07-28T06:09:53Z</time>
      </trkpt>
      <trkpt lat="43.32493" lon="2.61226">
        <ele>195.27299499512</ele>
        <time>2017-07-28T06:09:55Z</time>
      </trkpt>
      <trkpt lat="43.32493" lon="2.61233">
        <ele>196.27299499512</ele>
        <time>2017-07-28T06:09:57Z</time>
      </trkpt>
      <trkpt lat="43.32493" lon="2.61241">
        <ele>197.27299499512</ele>
        <time>2017-07-28T06:09:59Z</time>
      </trkpt>
      <trkpt lat="43.32494" lon="2.61248">
        <ele>198.27299499512</ele>
        <time>2017-07-28T06:10:01Z</time>
      </trkpt>
      <trkpt lat="43.32495" lon="2.61256">
        <ele>198.27299499512</ele>
        <time>2017-07-28T06:10:04Z</time>
      </trkpt>
      <trkpt lat="43.32497" lon="2.61262">
        <ele>198.27299499512</ele>
        <time>2017-07-28T06:10:06Z</time>
      </trkpt>
      <trkpt lat="43.325" lon="2.61271">
        <ele>198.27299499512</ele>
        <time>2017-07-28T06:10:09Z</time>
      </trkpt>
      <trkpt lat="43.32501" lon="2.6128">
        <ele>198.27299499512</ele>
        <time>2017-07-28T06:10:12Z</time>
      </trkpt>
      <trkpt lat="43.32502" lon="2.61286">
        <ele>198.27299499512</ele>
        <time>2017-07-28T06:10:14Z</time>
      </trkpt>
      <trkpt lat="43.32505" lon="2.61299">
        <ele>198.27299499512</ele>
        <time>2017-07-28T06:10:18Z</time>
      </trkpt>
      <trkpt lat="43.32506" lon="2.61305">
        <ele>199.27299499512</ele>
        <time>2017-07-28T06:10:20Z</time>
      </trkpt>
      <trkpt lat="43.32508" lon="2.61313">
        <ele>199.27299499512</ele>
        <time>2017-07-28T06:10:23Z</time>
      </trkpt>
      <trkpt lat="43.32511" lon="2.61319">
        <ele>199.27299499512</ele>
        <time>2017-07-28T06:10:26Z</time>
      </trkpt>
      <trkpt lat="43.32514" lon="2.61326">
        <ele>198.27299499512</ele>
        <time>2017-07-28T06:10:28Z</time>
      </trkpt>
      <trkpt lat="43.32516" lon="2.61332">
        <ele>197.27299499512</ele>
        <time>2017-07-28T06:10:30Z</time>
      </trkpt>
      <trkpt lat="43.32518" lon="2.61338">
        <ele>197.27299499512</ele>
        <time>2017-07-28T06:10:32Z</time>
      </trkpt>
      <trkpt lat="43.32519" lon="2.61345">
        <ele>198.27299499512</ele>
        <time>2017-07-28T06:10:34Z</time>
      </trkpt>
      <trkpt lat="43.3252" lon="2.61351">
        <ele>199.27299499512</ele>
        <time>2017-07-28T06:10:36Z</time>
      </trkpt>
      <trkpt lat="43.32521" lon="2.61361">
        <ele>198.27400207519</ele>
        <time>2017-07-28T06:10:39Z</time>
      </trkpt>
      <trkpt lat="43.32522" lon="2.61369">
        <ele>198.27400207519</ele>
        <time>2017-07-28T06:10:41Z</time>
      </trkpt>
      <trkpt lat="43.32523" lon="2.61378">
        <ele>197.27400207519</ele>
        <time>2017-07-28T06:10:44Z</time>
      </trkpt>
      <trkpt lat="43.32525" lon="2.61386">
        <ele>196.27400207519</ele>
        <time>2017-07-28T06:10:46Z</time>
      </trkpt>
      <trkpt lat="43.32526" lon="2.61392">
        <ele>196.27400207519</ele>
        <time>2017-07-28T06:10:48Z</time>
      </trkpt>
      <trkpt lat="43.32526" lon="2.61399">
        <ele>196.27400207519</ele>
        <time>2017-07-28T06:10:50Z</time>
      </trkpt>
      <trkpt lat="43.32529" lon="2.61407">
        <ele>196.27400207519</ele>
        <time>2017-07-28T06:10:53Z</time>
      </trkpt>
      <trkpt lat="43.3253" lon="2.61417">
        <ele>196.27400207519</ele>
        <time>2017-07-28T06:10:56Z</time>
      </trkpt>
      <trkpt lat="43.32531" lon="2.61425">
        <ele>197.27400207519</ele>
        <time>2017-07-28T06:10:59Z</time>
      </trkpt>
      <trkpt lat="43.32532" lon="2.61432">
        <ele>197.27400207519</ele>
        <time>2017-07-28T06:11:01Z</time>
      </trkpt>
      <trkpt lat="43.32535" lon="2.61438">
        <ele>198.27400207519</ele>
        <time>2017-07-28T06:11:03Z</time>
      </trkpt>
      <trkpt lat="43.32538" lon="2.61445">
        <ele>199.27400207519</ele>
        <time>2017-07-28T06:11:06Z</time>
      </trkpt>
      <trkpt lat="43.32545" lon="2.6145">
        <ele>202.27400207519</ele>
        <time>2017-07-28T06:11:09Z</time>
      </trkpt>
      <trkpt lat="43.32549" lon="2.61455">
        <ele>202.27400207519</ele>
        <time>2017-07-28T06:11:11Z</time>
      </trkpt>
      <trkpt lat="43.32552" lon="2.6146">
        <ele>202.27400207519</ele>
        <time>2017-07-28T06:11:14Z</time>
      </trkpt>
      <trkpt lat="43.32556" lon="2.61467">
        <ele>203.27400207519</ele>
        <time>2017-07-28T06:11:17Z</time>
      </trkpt>
      <trkpt lat="43.32561" lon="2.61473">
        <ele>202.27400207519</ele>
        <time>2017-07-28T06:11:20Z</time>
      </trkpt>
      <trkpt lat="43.32565" lon="2.61478">
        <ele>200.27400207519</ele>
        <time>2017-07-28T06:11:22Z</time>
      </trkpt>
      <trkpt lat="43.32568" lon="2.61485">
        <ele>202.27400207519</ele>
        <time>2017-07-28T06:11:25Z</time>
      </trkpt>
      <trkpt lat="43.3257" lon="2.61492">
        <ele>204.27400207519</ele>
        <time>2017-07-28T06:11:28Z</time>
      </trkpt>
      <trkpt lat="43.32572" lon="2.61498">
        <ele>201.27400207519</ele>
        <time>2017-07-28T06:11:30Z</time>
      </trkpt>
      <trkpt lat="43.32575" lon="2.61506">
        <ele>201.27400207519</ele>
        <time>2017-07-28T06:11:33Z</time>
      </trkpt>
      <trkpt lat="43.32578" lon="2.61514">
        <ele>201.27400207519</ele>
        <time>2017-07-28T06:11:36Z</time>
      </trkpt>
      <trkpt lat="43.3258" lon="2.61521">
        <ele>202.27400207519</ele>
        <time>2017-07-28T06:11:38Z</time>
      </trkpt>
      <trkpt lat="43.32582" lon="2.61527">
        <ele>202.27400207519</ele>
        <time>2017-07-28T06:11:40Z</time>
      </trkpt>
      <trkpt lat="43.32585" lon="2.61532">
        <ele>202.27400207519</ele>
        <time>2017-07-28T06:11:42Z</time>
      </trkpt>
      <trkpt lat="43.32587" lon="2.6154">
        <ele>201.27400207519</ele>
        <time>2017-07-28T06:11:45Z</time>
      </trkpt>
      <trkpt lat="43.32589" lon="2.61546">
        <ele>202.27400207519</ele>
        <time>2017-07-28T06:11:47Z</time>
      </trkpt>
      <trkpt lat="43.3259" lon="2.61553">
        <ele>203.27400207519</ele>
        <time>2017-07-28T06:11:49Z</time>
      </trkpt>
      <trkpt lat="43.32592" lon="2.6156">
        <ele>204.27400207519</ele>
        <time>2017-07-28T06:11:52Z</time>
      </trkpt>
      <trkpt lat="43.32594" lon="2.61566">
        <ele>204.27400207519</ele>
        <time>2017-07-28T06:11:54Z</time>
      </trkpt>
      <trkpt lat="43.32596" lon="2.61575">
        <ele>205.27400207519</ele>
        <time>2017-07-28T06:11:57Z</time>
      </trkpt>
      <trkpt lat="43.32597" lon="2.6158">
        <ele>205.27400207519</ele>
        <time>2017-07-28T06:11:59Z</time>
      </trkpt>
      <trkpt lat="43.32598" lon="2.61589">
        <ele>206.27400207519</ele>
        <time>2017-07-28T06:12:02Z</time>
      </trkpt>
      <trkpt lat="43.32598" lon="2.61597">
        <ele>206.27400207519</ele>
        <time>2017-07-28T06:12:04Z</time>
      </trkpt>
      <trkpt lat="43.326" lon="2.61604">
        <ele>204.27400207519</ele>
        <time>2017-07-28T06:12:06Z</time>
      </trkpt>
      <trkpt lat="43.32599" lon="2.6161">
        <ele>204.27400207519</ele>
        <time>2017-07-28T06:12:08Z</time>
      </trkpt>
      <trkpt lat="43.32599" lon="2.61617">
        <ele>204.27400207519</ele>
        <time>2017-07-28T06:12:10Z</time>
      </trkpt>
      <trkpt lat="43.32597" lon="2.61626">
        <ele>206.27400207519</ele>
        <time>2017-07-28T06:12:13Z</time>
      </trkpt>
      <trkpt lat="43.32598" lon="2.61632">
        <ele>205.27400207519</ele>
        <time>2017-07-28T06:12:15Z</time>
      </trkpt>
      <trkpt lat="43.32598" lon="2.6164">
        <ele>202.27400207519</ele>
        <time>2017-07-28T06:12:18Z</time>
      </trkpt>
      <trkpt lat="43.32598" lon="2.61649">
        <ele>206.27400207519</ele>
        <time>2017-07-28T06:12:21Z</time>
      </trkpt>
      <trkpt lat="43.32598" lon="2.61657">
        <ele>208.27400207519</ele>
        <time>2017-07-28T06:12:23Z</time>
      </trkpt>
      <trkpt lat="43.32599" lon="2.61665">
        <ele>208.27499389648</ele>
        <time>2017-07-28T06:12:26Z</time>
      </trkpt>
      <trkpt lat="43.326" lon="2.61672">
        <ele>210.27499389648</ele>
        <time>2017-07-28T06:12:29Z</time>
      </trkpt>
      <trkpt lat="43.32601" lon="2.61679">
        <ele>211.27499389648</ele>
        <time>2017-07-28T06:12:31Z</time>
      </trkpt>
      <trkpt lat="43.32602" lon="2.61688">
        <ele>212.27499389648</ele>
        <time>2017-07-28T06:12:34Z</time>
      </trkpt>
      <trkpt lat="43.32603" lon="2.61696">
        <ele>212.27499389648</ele>
        <time>2017-07-28T06:12:36Z</time>
      </trkpt>
      <trkpt lat="43.32605" lon="2.61703">
        <ele>212.27499389648</ele>
        <time>2017-07-28T06:12:38Z</time>
      </trkpt>
      <trkpt lat="43.32606" lon="2.6171">
        <ele>213.27499389648</ele>
        <time>2017-07-28T06:12:40Z</time>
      </trkpt>
      <trkpt lat="43.32608" lon="2.61717">
        <ele>213.27499389648</ele>
        <time>2017-07-28T06:12:42Z</time>
      </trkpt>
      <trkpt lat="43.32613" lon="2.61723">
        <ele>212.27499389648</ele>
        <time>2017-07-28T06:12:45Z</time>
      </trkpt>
      <trkpt lat="43.32618" lon="2.61727">
        <ele>211.27499389648</ele>
        <time>2017-07-28T06:12:47Z</time>
      </trkpt>
      <trkpt lat="43.32623" lon="2.61732">
        <ele>212.27499389648</ele>
        <time>2017-07-28T06:12:50Z</time>
      </trkpt>
      <trkpt lat="43.32629" lon="2.61736">
        <ele>211.27499389648</ele>
        <time>2017-07-28T06:12:53Z</time>
      </trkpt>
      <trkpt lat="43.32633" lon="2.61739">
        <ele>210.27499389648</ele>
        <time>2017-07-28T06:12:55Z</time>
      </trkpt>
      <trkpt lat="43.32638" lon="2.61743">
        <ele>210.27499389648</ele>
        <time>2017-07-28T06:12:57Z</time>
      </trkpt>
      <trkpt lat="43.32643" lon="2.61748">
        <ele>210.27499389648</ele>
        <time>2017-07-28T06:12:59Z</time>
      </trkpt>
      <trkpt lat="43.32648" lon="2.61753">
        <ele>209.27499389648</ele>
        <time>2017-07-28T06:13:01Z</time>
      </trkpt>
      <trkpt lat="43.32654" lon="2.61759">
        <ele>210.27499389648</ele>
        <time>2017-07-28T06:13:03Z</time>
      </trkpt>
      <trkpt lat="43.32658" lon="2.61765">
        <ele>210.27499389648</ele>
        <time>2017-07-28T06:13:05Z</time>
      </trkpt>
      <trkpt lat="43.32663" lon="2.61772">
        <ele>208.27499389648</ele>
        <time>2017-07-28T06:13:08Z</time>
      </trkpt>
      <trkpt lat="43.32666" lon="2.61777">
        <ele>208.27499389648</ele>
        <time>2017-07-28T06:13:10Z</time>
      </trkpt>
      <trkpt lat="43.32671" lon="2.61783">
        <ele>208.27499389648</ele>
        <time>2017-07-28T06:13:12Z</time>
      </trkpt>
      <trkpt lat="43.32673" lon="2.61788">
        <ele>207.27499389648</ele>
        <time>2017-07-28T06:13:14Z</time>
      </trkpt>
      <trkpt lat="43.32676" lon="2.61795">
        <ele>206.27499389648</ele>
        <time>2017-07-28T06:13:16Z</time>
      </trkpt>
      <trkpt lat="43.3268" lon="2.61799">
        <ele>207.27499389648</ele>
        <time>2017-07-28T06:13:18Z</time>
      </trkpt>
      <trkpt lat="43.32683" lon="2.61804">
        <ele>206.27499389648</ele>
        <time>2017-07-28T06:13:20Z</time>
      </trkpt>
      <trkpt lat="43.32687" lon="2.61808">
        <ele>207.27499389648</ele>
        <time>2017-07-28T06:13:22Z</time>
      </trkpt>
      <trkpt lat="43.32691" lon="2.61815">
        <ele>207.27499389648</ele>
        <time>2017-07-28T06:13:25Z</time>
      </trkpt>
      <trkpt lat="43.32696" lon="2.61822">
        <ele>208.27499389648</ele>
        <time>2017-07-28T06:13:28Z</time>
      </trkpt>
      <trkpt lat="43.32702" lon="2.61828">
        <ele>209.27499389648</ele>
        <time>2017-07-28T06:13:31Z</time>
      </trkpt>
      <trkpt lat="43.32704" lon="2.61834">
        <ele>209.27499389648</ele>
        <time>2017-07-28T06:13:33Z</time>
      </trkpt>
      <trkpt lat="43.32708" lon="2.61841">
        <ele>210.27499389648</ele>
        <time>2017-07-28T06:13:36Z</time>
      </trkpt>
      <trkpt lat="43.32712" lon="2.61845">
        <ele>210.27499389648</ele>
        <time>2017-07-28T06:13:38Z</time>
      </trkpt>
      <trkpt lat="43.32714" lon="2.61851">
        <ele>210.27499389648</ele>
        <time>2017-07-28T06:13:40Z</time>
      </trkpt>
      <trkpt lat="43.32718" lon="2.61855">
        <ele>210.27499389648</ele>
        <time>2017-07-28T06:13:42Z</time>
      </trkpt>
      <trkpt lat="43.32722" lon="2.61861">
        <ele>211.27499389648</ele>
        <time>2017-07-28T06:13:45Z</time>
      </trkpt>
      <trkpt lat="43.32726" lon="2.61865">
        <ele>211.27499389648</ele>
        <time>2017-07-28T06:13:47Z</time>
      </trkpt>
      <trkpt lat="43.32729" lon="2.6187">
        <ele>211.27499389648</ele>
        <time>2017-07-28T06:13:49Z</time>
      </trkpt>
      <trkpt lat="43.32734" lon="2.61876">
        <ele>210.27499389648</ele>
        <time>2017-07-28T06:13:52Z</time>
      </trkpt>
      <trkpt lat="43.32737" lon="2.6188">
        <ele>212.27600097656</ele>
        <time>2017-07-28T06:13:54Z</time>
      </trkpt>
      <trkpt lat="43.32742" lon="2.61886">
        <ele>212.27600097656</ele>
        <time>2017-07-28T06:13:57Z</time>
      </trkpt>
      <trkpt lat="43.32746" lon="2.6189">
        <ele>213.27600097656</ele>
        <time>2017-07-28T06:13:59Z</time>
      </trkpt>
      <trkpt lat="43.3275" lon="2.61895">
        <ele>213.27600097656</ele>
        <time>2017-07-28T06:14:02Z</time>
      </trkpt>
      <trkpt lat="43.32754" lon="2.61897">
        <ele>214.27600097656</ele>
        <time>2017-07-28T06:14:04Z</time>
      </trkpt>
      <trkpt lat="43.32758" lon="2.61902">
        <ele>214.27600097656</ele>
        <time>2017-07-28T06:14:06Z</time>
      </trkpt>
      <trkpt lat="43.32763" lon="2.61905">
        <ele>214.27600097656</ele>
        <time>2017-07-28T06:14:09Z</time>
      </trkpt>
      <trkpt lat="43.32768" lon="2.61906">
        <ele>214.27600097656</ele>
        <time>2017-07-28T06:14:11Z</time>
      </trkpt>
      <trkpt lat="43.32774" lon="2.61908">
        <ele>214.27600097656</ele>
        <time>2017-07-28T06:14:14Z</time>
      </trkpt>
      <trkpt lat="43.32779" lon="2.6191">
        <ele>213.27600097656</ele>
        <time>2017-07-28T06:14:16Z</time>
      </trkpt>
      <trkpt lat="43.32784" lon="2.61914">
        <ele>214.27600097656</ele>
        <time>2017-07-28T06:14:18Z</time>
      </trkpt>
      <trkpt lat="43.32788" lon="2.61916">
        <ele>214.27600097656</ele>
        <time>2017-07-28T06:14:20Z</time>
      </trkpt>
      <trkpt lat="43.32793" lon="2.61919">
        <ele>214.27600097656</ele>
        <time>2017-07-28T06:14:22Z</time>
      </trkpt>
      <trkpt lat="43.32799" lon="2.61924">
        <ele>214.27600097656</ele>
        <time>2017-07-28T06:14:25Z</time>
      </trkpt>
      <trkpt lat="43.32805" lon="2.61928">
        <ele>213.27600097656</ele>
        <time>2017-07-28T06:14:28Z</time>
      </trkpt>
      <trkpt lat="43.32809" lon="2.61932">
        <ele>214.27600097656</ele>
        <time>2017-07-28T06:14:30Z</time>
      </trkpt>
      <trkpt lat="43.32813" lon="2.61935">
        <ele>215.27600097656</ele>
        <time>2017-07-28T06:14:32Z</time>
      </trkpt>
      <trkpt lat="43.32818" lon="2.61939">
        <ele>215.27600097656</ele>
        <time>2017-07-28T06:14:34Z</time>
      </trkpt>
      <trkpt lat="43.32822" lon="2.61943">
        <ele>216.27600097656</ele>
        <time>2017-07-28T06:14:36Z</time>
      </trkpt>
      <trkpt lat="43.32826" lon="2.61946">
        <ele>216.27600097656</ele>
        <time>2017-07-28T06:14:38Z</time>
      </trkpt>
      <trkpt lat="43.3283" lon="2.61951">
        <ele>216.27600097656</ele>
        <time>2017-07-28T06:14:40Z</time>
      </trkpt>
      <trkpt lat="43.32833" lon="2.61956">
        <ele>216.27600097656</ele>
        <time>2017-07-28T06:14:42Z</time>
      </trkpt>
      <trkpt lat="43.32836" lon="2.61961">
        <ele>216.27600097656</ele>
        <time>2017-07-28T06:14:44Z</time>
      </trkpt>
      <trkpt lat="43.32838" lon="2.61968">
        <ele>216.27600097656</ele>
        <time>2017-07-28T06:14:46Z</time>
      </trkpt>
      <trkpt lat="43.3284" lon="2.61974">
        <ele>216.27600097656</ele>
        <time>2017-07-28T06:14:48Z</time>
      </trkpt>
      <trkpt lat="43.32841" lon="2.61981">
        <ele>216.27600097656</ele>
        <time>2017-07-28T06:14:50Z</time>
      </trkpt>
      <trkpt lat="43.32842" lon="2.61988">
        <ele>216.27600097656</ele>
        <time>2017-07-28T06:14:52Z</time>
      </trkpt>
      <trkpt lat="43.32844" lon="2.61996">
        <ele>215.27600097656</ele>
        <time>2017-07-28T06:14:54Z</time>
      </trkpt>
      <trkpt lat="43.32846" lon="2.62002">
        <ele>215.27600097656</ele>
        <time>2017-07-28T06:14:56Z</time>
      </trkpt>
      <trkpt lat="43.32851" lon="2.62007">
        <ele>215.27600097656</ele>
        <time>2017-07-28T06:14:58Z</time>
      </trkpt>
      <trkpt lat="43.32857" lon="2.62008">
        <ele>215.27600097656</ele>
        <time>2017-07-28T06:15:00Z</time>
      </trkpt>
      <trkpt lat="43.32862" lon="2.6201">
        <ele>214.27600097656</ele>
        <time>2017-07-28T06:15:02Z</time>
      </trkpt>
      <trkpt lat="43.32868" lon="2.62012">
        <ele>214.27600097656</ele>
        <time>2017-07-28T06:15:04Z</time>
      </trkpt>
      <trkpt lat="43.32874" lon="2.62014">
        <ele>214.27600097656</ele>
        <time>2017-07-28T06:15:06Z</time>
      </trkpt>
      <trkpt lat="43.32878" lon="2.62016">
        <ele>214.27600097656</ele>
        <time>2017-07-28T06:15:08Z</time>
      </trkpt>
      <trkpt lat="43.32885" lon="2.62019">
        <ele>213.27600097656</ele>
        <time>2017-07-28T06:15:11Z</time>
      </trkpt>
      <trkpt lat="43.3289" lon="2.62022">
        <ele>213.27600097656</ele>
        <time>2017-07-28T06:15:13Z</time>
      </trkpt>
      <trkpt lat="43.32894" lon="2.62026">
        <ele>213.27600097656</ele>
        <time>2017-07-28T06:15:15Z</time>
      </trkpt>
      <trkpt lat="43.32901" lon="2.62024">
        <ele>214.27600097656</ele>
        <time>2017-07-28T06:15:18Z</time>
      </trkpt>
      <trkpt lat="43.32905" lon="2.62018">
        <ele>214.27600097656</ele>
        <time>2017-07-28T06:15:20Z</time>
      </trkpt>
      <trkpt lat="43.32908" lon="2.62012">
        <ele>215.27600097656</ele>
        <time>2017-07-28T06:15:23Z</time>
      </trkpt>
      <trkpt lat="43.3291" lon="2.62006">
        <ele>215.27600097656</ele>
        <time>2017-07-28T06:15:25Z</time>
      </trkpt>
      <trkpt lat="43.32912" lon="2.62">
        <ele>215.27600097656</ele>
        <time>2017-07-28T06:15:27Z</time>
      </trkpt>
      <trkpt lat="43.32915" lon="2.61993">
        <ele>212.27600097656</ele>
        <time>2017-07-28T06:15:30Z</time>
      </trkpt>
      <trkpt lat="43.32917" lon="2.61987">
        <ele>212.27600097656</ele>
        <time>2017-07-28T06:15:32Z</time>
      </trkpt>
      <trkpt lat="43.32919" lon="2.61979">
        <ele>212.27600097656</ele>
        <time>2017-07-28T06:15:35Z</time>
      </trkpt>
      <trkpt lat="43.32921" lon="2.61973">
        <ele>213.27600097656</ele>
        <time>2017-07-28T06:15:37Z</time>
      </trkpt>
      <trkpt lat="43.32924" lon="2.61966">
        <ele>212.27600097656</ele>
        <time>2017-07-28T06:15:40Z</time>
      </trkpt>
      <trkpt lat="43.32927" lon="2.61959">
        <ele>214.27600097656</ele>
        <time>2017-07-28T06:15:43Z</time>
      </trkpt>
      <trkpt lat="43.32928" lon="2.61951">
        <ele>215.27600097656</ele>
        <time>2017-07-28T06:15:45Z</time>
      </trkpt>
      <trkpt lat="43.32932" lon="2.61945">
        <ele>215.27600097656</ele>
        <time>2017-07-28T06:15:48Z</time>
      </trkpt>
      <trkpt lat="43.32932" lon="2.61937">
        <ele>215.27600097656</ele>
        <time>2017-07-28T06:15:50Z</time>
      </trkpt>
      <trkpt lat="43.32934" lon="2.61929">
        <ele>215.27600097656</ele>
        <time>2017-07-28T06:15:53Z</time>
      </trkpt>
      <trkpt lat="43.32936" lon="2.61922">
        <ele>215.27600097656</ele>
        <time>2017-07-28T06:15:56Z</time>
      </trkpt>
      <trkpt lat="43.32937" lon="2.61914">
        <ele>216.27600097656</ele>
        <time>2017-07-28T06:15:59Z</time>
      </trkpt>
      <trkpt lat="43.3294" lon="2.61905">
        <ele>217.27600097656</ele>
        <time>2017-07-28T06:16:02Z</time>
      </trkpt>
      <trkpt lat="43.32942" lon="2.61898">
        <ele>218.27600097656</ele>
        <time>2017-07-28T06:16:05Z</time>
      </trkpt>
      <trkpt lat="43.32943" lon="2.6189">
        <ele>219.27600097656</ele>
        <time>2017-07-28T06:16:08Z</time>
      </trkpt>
      <trkpt lat="43.32945" lon="2.61882">
        <ele>222.27600097656</ele>
        <time>2017-07-28T06:16:11Z</time>
      </trkpt>
      <trkpt lat="43.32947" lon="2.61874">
        <ele>222.27600097656</ele>
        <time>2017-07-28T06:16:14Z</time>
      </trkpt>
      <trkpt lat="43.3295" lon="2.61867">
        <ele>222.27600097656</ele>
        <time>2017-07-28T06:16:17Z</time>
      </trkpt>
      <trkpt lat="43.32952" lon="2.61856">
        <ele>226.27600097656</ele>
        <time>2017-07-28T06:16:20Z</time>
      </trkpt>
      <trkpt lat="43.32959" lon="2.61856">
        <ele>224.27600097656</ele>
        <time>2017-07-28T06:16:23Z</time>
      </trkpt>
      <trkpt lat="43.32963" lon="2.61856">
        <ele>224.27600097656</ele>
        <time>2017-07-28T06:16:25Z</time>
      </trkpt>
      <trkpt lat="43.32968" lon="2.61857">
        <ele>224.27600097656</ele>
        <time>2017-07-28T06:16:27Z</time>
      </trkpt>
      <trkpt lat="43.32973" lon="2.61858">
        <ele>222.27600097656</ele>
        <time>2017-07-28T06:16:29Z</time>
      </trkpt>
      <trkpt lat="43.32977" lon="2.61861">
        <ele>223.27600097656</ele>
        <time>2017-07-28T06:16:32Z</time>
      </trkpt>
      <trkpt lat="43.32974" lon="2.61855">
        <ele>223.27600097656</ele>
        <time>2017-07-28T06:16:38Z</time>
      </trkpt>
      <trkpt lat="43.32979" lon="2.61852">
        <ele>223.27600097656</ele>
        <time>2017-07-28T06:16:42Z</time>
      </trkpt>
      <trkpt lat="43.32984" lon="2.6185">
        <ele>223.27600097656</ele>
        <time>2017-07-28T06:16:44Z</time>
      </trkpt>
      <trkpt lat="43.32987" lon="2.61846">
        <ele>222.27600097656</ele>
        <time>2017-07-28T06:16:46Z</time>
      </trkpt>
      <trkpt lat="43.32991" lon="2.61841">
        <ele>222.27600097656</ele>
        <time>2017-07-28T06:16:48Z</time>
      </trkpt>
      <trkpt lat="43.32993" lon="2.61835">
        <ele>224.27600097656</ele>
        <time>2017-07-28T06:16:50Z</time>
      </trkpt>
      <trkpt lat="43.32995" lon="2.6183">
        <ele>224.27600097656</ele>
        <time>2017-07-28T06:16:52Z</time>
      </trkpt>
      <trkpt lat="43.32997" lon="2.61822">
        <ele>227.27600097656</ele>
        <time>2017-07-28T06:16:55Z</time>
      </trkpt>
      <trkpt lat="43.33" lon="2.61813">
        <ele>229.27600097656</ele>
        <time>2017-07-28T06:16:58Z</time>
      </trkpt>
      <trkpt lat="43.33002" lon="2.61807">
        <ele>229.27600097656</ele>
        <time>2017-07-28T06:17:00Z</time>
      </trkpt>
      <trkpt lat="43.33004" lon="2.61801">
        <ele>228.27600097656</ele>
        <time>2017-07-28T06:17:02Z</time>
      </trkpt>
      <trkpt lat="43.33009" lon="2.61795">
        <ele>227.27600097656</ele>
        <time>2017-07-28T06:17:05Z</time>
      </trkpt>
      <trkpt lat="43.33013" lon="2.61793">
        <ele>228.27600097656</ele>
        <time>2017-07-28T06:17:07Z</time>
      </trkpt>
      <trkpt lat="43.33019" lon="2.61791">
        <ele>229.27600097656</ele>
        <time>2017-07-28T06:17:10Z</time>
      </trkpt>
      <trkpt lat="43.33024" lon="2.61789">
        <ele>229.27600097656</ele>
        <time>2017-07-28T06:17:12Z</time>
      </trkpt>
      <trkpt lat="43.33029" lon="2.61786">
        <ele>230.27600097656</ele>
        <time>2017-07-28T06:17:14Z</time>
      </trkpt>
      <trkpt lat="43.33034" lon="2.61783">
        <ele>230.27600097656</ele>
        <time>2017-07-28T06:17:17Z</time>
      </trkpt>
      <trkpt lat="43.33039" lon="2.6178">
        <ele>230.27600097656</ele>
        <time>2017-07-28T06:17:20Z</time>
      </trkpt>
      <trkpt lat="43.33046" lon="2.61777">
        <ele>231.27600097656</ele>
        <time>2017-07-28T06:17:23Z</time>
      </trkpt>
      <trkpt lat="43.33051" lon="2.61776">
        <ele>231.27600097656</ele>
        <time>2017-07-28T06:17:25Z</time>
      </trkpt>
      <trkpt lat="43.33055" lon="2.61773">
        <ele>231.27600097656</ele>
        <time>2017-07-28T06:17:27Z</time>
      </trkpt>
      <trkpt lat="43.3306" lon="2.61769">
        <ele>232.27600097656</ele>
        <time>2017-07-28T06:17:30Z</time>
      </trkpt>
      <trkpt lat="43.33065" lon="2.61767">
        <ele>234.27600097656</ele>
        <time>2017-07-28T06:17:32Z</time>
      </trkpt>
      <trkpt lat="43.33071" lon="2.61764">
        <ele>235.27600097656</ele>
        <time>2017-07-28T06:17:35Z</time>
      </trkpt>
      <trkpt lat="43.33077" lon="2.6176">
        <ele>233.27600097656</ele>
        <time>2017-07-28T06:17:39Z</time>
      </trkpt>
      <trkpt lat="43.33081" lon="2.61757">
        <ele>233.27699279785</ele>
        <time>2017-07-28T06:17:41Z</time>
      </trkpt>
      <trkpt lat="43.33086" lon="2.61754">
        <ele>233.27699279785</ele>
        <time>2017-07-28T06:17:43Z</time>
      </trkpt>
      <trkpt lat="43.33091" lon="2.61752">
        <ele>233.27699279785</ele>
        <time>2017-07-28T06:17:46Z</time>
      </trkpt>
      <trkpt lat="43.33096" lon="2.61749">
        <ele>235.27699279785</ele>
        <time>2017-07-28T06:17:49Z</time>
      </trkpt>
      <trkpt lat="43.33102" lon="2.61747">
        <ele>235.27699279785</ele>
        <time>2017-07-28T06:17:52Z</time>
      </trkpt>
      <trkpt lat="43.33108" lon="2.61744">
        <ele>236.27699279785</ele>
        <time>2017-07-28T06:17:55Z</time>
      </trkpt>
      <trkpt lat="43.33113" lon="2.61745">
        <ele>238.27699279785</ele>
        <time>2017-07-28T06:17:58Z</time>
      </trkpt>
      <trkpt lat="43.33118" lon="2.61744">
        <ele>240.27699279785</ele>
        <time>2017-07-28T06:18:01Z</time>
      </trkpt>
      <trkpt lat="43.33124" lon="2.61743">
        <ele>240.27699279785</ele>
        <time>2017-07-28T06:18:03Z</time>
      </trkpt>
      <trkpt lat="43.33131" lon="2.61746">
        <ele>238.27699279785</ele>
        <time>2017-07-28T06:18:05Z</time>
      </trkpt>
      <trkpt lat="43.33137" lon="2.61744">
        <ele>237.27699279785</ele>
        <time>2017-07-28T06:18:08Z</time>
      </trkpt>
      <trkpt lat="43.33143" lon="2.61744">
        <ele>237.27699279785</ele>
        <time>2017-07-28T06:18:11Z</time>
      </trkpt>
      <trkpt lat="43.33149" lon="2.61746">
        <ele>236.27699279785</ele>
        <time>2017-07-28T06:18:14Z</time>
      </trkpt>
      <trkpt lat="43.33168" lon="2.61733">
        <ele>234.27699279785</ele>
        <time>2017-07-28T06:18:23Z</time>
      </trkpt>
      <trkpt lat="43.33172" lon="2.61737">
        <ele>238.27699279785</ele>
        <time>2017-07-28T06:18:26Z</time>
      </trkpt>
      <trkpt lat="43.33176" lon="2.61733">
        <ele>238.27699279785</ele>
        <time>2017-07-28T06:18:28Z</time>
      </trkpt>
      <trkpt lat="43.3318" lon="2.61728">
        <ele>236.27699279785</ele>
        <time>2017-07-28T06:18:30Z</time>
      </trkpt>
      <trkpt lat="43.33186" lon="2.61726">
        <ele>237.27699279785</ele>
        <time>2017-07-28T06:18:32Z</time>
      </trkpt>
      <trkpt lat="43.33191" lon="2.61724">
        <ele>238.27699279785</ele>
        <time>2017-07-28T06:18:34Z</time>
      </trkpt>
      <trkpt lat="43.33197" lon="2.61721">
        <ele>238.27699279785</ele>
        <time>2017-07-28T06:18:36Z</time>
      </trkpt>
      <trkpt lat="43.33203" lon="2.61719">
        <ele>239.27699279785</ele>
        <time>2017-07-28T06:18:38Z</time>
      </trkpt>
      <trkpt lat="43.33208" lon="2.61715">
        <ele>238.27699279785</ele>
        <time>2017-07-28T06:18:41Z</time>
      </trkpt>
      <trkpt lat="43.33213" lon="2.61713">
        <ele>236.27699279785</ele>
        <time>2017-07-28T06:18:43Z</time>
      </trkpt>
      <trkpt lat="43.33218" lon="2.61711">
        <ele>237.27699279785</ele>
        <time>2017-07-28T06:18:45Z</time>
      </trkpt>
      <trkpt lat="43.33223" lon="2.61709">
        <ele>235.27699279785</ele>
        <time>2017-07-28T06:18:47Z</time>
      </trkpt>
      <trkpt lat="43.33228" lon="2.61708">
        <ele>235.27699279785</ele>
        <time>2017-07-28T06:18:49Z</time>
      </trkpt>
      <trkpt lat="43.33233" lon="2.61705">
        <ele>235.27699279785</ele>
        <time>2017-07-28T06:18:52Z</time>
      </trkpt>
      <trkpt lat="43.3324" lon="2.61705">
        <ele>235.27699279785</ele>
        <time>2017-07-28T06:18:55Z</time>
      </trkpt>
      <trkpt lat="43.33244" lon="2.61705">
        <ele>234.27699279785</ele>
        <time>2017-07-28T06:18:57Z</time>
      </trkpt>
      <trkpt lat="43.3325" lon="2.61707">
        <ele>234.27699279785</ele>
        <time>2017-07-28T06:19:00Z</time>
      </trkpt>
      <trkpt lat="43.33254" lon="2.6171">
        <ele>236.27699279785</ele>
        <time>2017-07-28T06:19:03Z</time>
      </trkpt>
      <trkpt lat="43.33259" lon="2.61713">
        <ele>238.27699279785</ele>
        <time>2017-07-28T06:19:07Z</time>
      </trkpt>
      <trkpt lat="43.33264" lon="2.61715">
        <ele>238.27699279785</ele>
        <time>2017-07-28T06:19:10Z</time>
      </trkpt>
      <trkpt lat="43.33269" lon="2.61719">
        <ele>237.27699279785</ele>
        <time>2017-07-28T06:19:14Z</time>
      </trkpt>
      <trkpt lat="43.33273" lon="2.61721">
        <ele>237.27699279785</ele>
        <time>2017-07-28T06:19:16Z</time>
      </trkpt>
      <trkpt lat="43.33276" lon="2.61727">
        <ele>237.27699279785</ele>
        <time>2017-07-28T06:19:19Z</time>
      </trkpt>
      <trkpt lat="43.33278" lon="2.61733">
        <ele>236.27699279785</ele>
        <time>2017-07-28T06:19:21Z</time>
      </trkpt>
      <trkpt lat="43.33282" lon="2.61731">
        <ele>234.27699279785</ele>
        <time>2017-07-28T06:19:25Z</time>
      </trkpt>
      <trkpt lat="43.33287" lon="2.61729">
        <ele>234.27699279785</ele>
        <time>2017-07-28T06:19:27Z</time>
      </trkpt>
      <trkpt lat="43.33293" lon="2.61729">
        <ele>234.27699279785</ele>
        <time>2017-07-28T06:19:29Z</time>
      </trkpt>
      <trkpt lat="43.333" lon="2.6173">
        <ele>234.27699279785</ele>
        <time>2017-07-28T06:19:32Z</time>
      </trkpt>
      <trkpt lat="43.33305" lon="2.61731">
        <ele>235.27699279785</ele>
        <time>2017-07-28T06:19:34Z</time>
      </trkpt>
      <trkpt lat="43.33311" lon="2.61731">
        <ele>237.27699279785</ele>
        <time>2017-07-28T06:19:37Z</time>
      </trkpt>
      <trkpt lat="43.33317" lon="2.61729">
        <ele>238.27699279785</ele>
        <time>2017-07-28T06:19:40Z</time>
      </trkpt>
      <trkpt lat="43.33321" lon="2.61729">
        <ele>240.27699279785</ele>
        <time>2017-07-28T06:19:44Z</time>
      </trkpt>
      <trkpt lat="43.33328" lon="2.61728">
        <ele>243.27699279785</ele>
        <time>2017-07-28T06:19:48Z</time>
      </trkpt>
      <trkpt lat="43.33333" lon="2.61727">
        <ele>243.27699279785</ele>
        <time>2017-07-28T06:19:51Z</time>
      </trkpt>
      <trkpt lat="43.33338" lon="2.61725">
        <ele>244.27699279785</ele>
        <time>2017-07-28T06:19:55Z</time>
      </trkpt>
      <trkpt lat="43.33343" lon="2.61724">
        <ele>246.27699279785</ele>
        <time>2017-07-28T06:19:58Z</time>
      </trkpt>
      <trkpt lat="43.33349" lon="2.61724">
        <ele>248.27699279785</ele>
        <time>2017-07-28T06:20:02Z</time>
      </trkpt>
      <trkpt lat="43.33355" lon="2.61725">
        <ele>250.27699279785</ele>
        <time>2017-07-28T06:20:05Z</time>
      </trkpt>
      <trkpt lat="43.3336" lon="2.61725">
        <ele>250.27699279785</ele>
        <time>2017-07-28T06:20:08Z</time>
      </trkpt>
      <trkpt lat="43.33365" lon="2.61725">
        <ele>252.27699279785</ele>
        <time>2017-07-28T06:20:10Z</time>
      </trkpt>
      <trkpt lat="43.33371" lon="2.61726">
        <ele>254.27799987793</ele>
        <time>2017-07-28T06:20:13Z</time>
      </trkpt>
      <trkpt lat="43.33376" lon="2.61726">
        <ele>254.27799987793</ele>
        <time>2017-07-28T06:20:16Z</time>
      </trkpt>
      <trkpt lat="43.33381" lon="2.61727">
        <ele>254.27799987793</ele>
        <time>2017-07-28T06:20:19Z</time>
      </trkpt>
      <trkpt lat="43.33386" lon="2.61727">
        <ele>253.27799987793</ele>
        <time>2017-07-28T06:20:22Z</time>
      </trkpt>
      <trkpt lat="43.33391" lon="2.61726">
        <ele>255.27799987793</ele>
        <time>2017-07-28T06:20:25Z</time>
      </trkpt>
      <trkpt lat="43.33396" lon="2.61727">
        <ele>258.27801513672</ele>
        <time>2017-07-28T06:20:29Z</time>
      </trkpt>
      <trkpt lat="43.33402" lon="2.61726">
        <ele>259.27801513672</ele>
        <time>2017-07-28T06:20:34Z</time>
      </trkpt>
      <trkpt lat="43.33407" lon="2.61727">
        <ele>258.27801513672</ele>
        <time>2017-07-28T06:20:41Z</time>
      </trkpt>
      <trkpt lat="43.33412" lon="2.6173">
        <ele>259.27801513672</ele>
        <time>2017-07-28T06:20:46Z</time>
      </trkpt>
      <trkpt lat="43.33416" lon="2.61733">
        <ele>264.27801513672</ele>
        <time>2017-07-28T06:20:51Z</time>
      </trkpt>
      <trkpt lat="43.33421" lon="2.61731">
        <ele>265.27801513672</ele>
        <time>2017-07-28T06:20:55Z</time>
      </trkpt>
      <trkpt lat="43.33426" lon="2.61732">
        <ele>267.27801513672</ele>
        <time>2017-07-28T06:21:00Z</time>
      </trkpt>
      <trkpt lat="43.33434" lon="2.61729">
        <ele>265.27801513672</ele>
        <time>2017-07-28T06:21:04Z</time>
      </trkpt>
      <trkpt lat="43.3344" lon="2.61726">
        <ele>267.27801513672</ele>
        <time>2017-07-28T06:21:06Z</time>
      </trkpt>
      <trkpt lat="43.33445" lon="2.61726">
        <ele>268.27801513672</ele>
        <time>2017-07-28T06:21:08Z</time>
      </trkpt>
      <trkpt lat="43.33447" lon="2.61732">
        <ele>269.27801513672</ele>
        <time>2017-07-28T06:21:11Z</time>
      </trkpt>
      <trkpt lat="43.33448" lon="2.61739">
        <ele>269.27801513672</ele>
        <time>2017-07-28T06:21:14Z</time>
      </trkpt>
      <trkpt lat="43.33448" lon="2.61747">
        <ele>271.27801513672</ele>
        <time>2017-07-28T06:21:17Z</time>
      </trkpt>
      <trkpt lat="43.33448" lon="2.61755">
        <ele>272.27801513672</ele>
        <time>2017-07-28T06:21:20Z</time>
      </trkpt>
      <trkpt lat="43.33449" lon="2.61762">
        <ele>273.27801513672</ele>
        <time>2017-07-28T06:21:24Z</time>
      </trkpt>
      <trkpt lat="43.33446" lon="2.61767">
        <ele>273.27801513672</ele>
        <time>2017-07-28T06:21:28Z</time>
      </trkpt>
      <trkpt lat="43.33446" lon="2.61774">
        <ele>271.27801513672</ele>
        <time>2017-07-28T06:21:32Z</time>
      </trkpt>
      <trkpt lat="43.33445" lon="2.6178">
        <ele>275.27801513672</ele>
        <time>2017-07-28T06:21:42Z</time>
      </trkpt>
      <trkpt lat="43.33447" lon="2.61787">
        <ele>276.27801513672</ele>
        <time>2017-07-28T06:21:49Z</time>
      </trkpt>
      <trkpt lat="43.33442" lon="2.6179">
        <ele>279.27801513672</ele>
        <time>2017-07-28T06:21:55Z</time>
      </trkpt>
      <trkpt lat="43.33437" lon="2.61792">
        <ele>282.27801513672</ele>
        <time>2017-07-28T06:22:00Z</time>
      </trkpt>
      <trkpt lat="43.33434" lon="2.61796">
        <ele>282.27801513672</ele>
        <time>2017-07-28T06:22:06Z</time>
      </trkpt>
      <trkpt lat="43.33431" lon="2.61804">
        <ele>282.27801513672</ele>
        <time>2017-07-28T06:22:14Z</time>
      </trkpt>
      <trkpt lat="43.33432" lon="2.6181">
        <ele>284.27801513672</ele>
        <time>2017-07-28T06:22:30Z</time>
      </trkpt>
      <trkpt lat="43.33448" lon="2.61814">
        <ele>286.27801513672</ele>
        <time>2017-07-28T06:22:57Z</time>
      </trkpt>
      <trkpt lat="43.33453" lon="2.61817">
        <ele>286.27801513672</ele>
        <time>2017-07-28T06:23:10Z</time>
      </trkpt>
      <trkpt lat="43.33457" lon="2.61819">
        <ele>287.27801513672</ele>
        <time>2017-07-28T06:23:15Z</time>
      </trkpt>
      <trkpt lat="43.33449" lon="2.6182">
        <ele>287.27801513672</ele>
        <time>2017-07-28T06:23:31Z</time>
      </trkpt>
      <trkpt lat="43.33443" lon="2.61829">
        <ele>290.27801513672</ele>
        <time>2017-07-28T06:23:32Z</time>
      </trkpt>
      <trkpt lat="43.33443" lon="2.61835">
        <ele>290.27801513672</ele>
        <time>2017-07-28T06:23:47Z</time>
      </trkpt>
      <trkpt lat="43.33441" lon="2.61829">
        <ele>289.27801513672</ele>
        <time>2017-07-28T06:23:52Z</time>
      </trkpt>
      <trkpt lat="43.33439" lon="2.61823">
        <ele>289.27801513672</ele>
        <time>2017-07-28T06:23:57Z</time>
      </trkpt>
      <trkpt lat="43.33437" lon="2.61815">
        <ele>288.27801513672</ele>
        <time>2017-07-28T06:24:02Z</time>
      </trkpt>
      <trkpt lat="43.33441" lon="2.61823">
        <ele>286.27801513672</ele>
        <time>2017-07-28T06:24:24Z</time>
      </trkpt>
      <trkpt lat="43.33442" lon="2.61828">
        <ele>286.27801513672</ele>
        <time>2017-07-28T06:24:26Z</time>
      </trkpt>
      <trkpt lat="43.33446" lon="2.61837">
        <ele>288.27801513672</ele>
        <time>2017-07-28T06:24:29Z</time>
      </trkpt>
      <trkpt lat="43.33447" lon="2.61843">
        <ele>287.27801513672</ele>
        <time>2017-07-28T06:24:31Z</time>
      </trkpt>
      <trkpt lat="43.33447" lon="2.6185">
        <ele>285.27801513672</ele>
        <time>2017-07-28T06:24:34Z</time>
      </trkpt>
      <trkpt lat="43.33451" lon="2.61855">
        <ele>285.27801513672</ele>
        <time>2017-07-28T06:24:38Z</time>
      </trkpt>
      <trkpt lat="43.33455" lon="2.61859">
        <ele>283.27801513672</ele>
        <time>2017-07-28T06:24:41Z</time>
      </trkpt>
      <trkpt lat="43.33459" lon="2.61865">
        <ele>282.27801513672</ele>
        <time>2017-07-28T06:24:47Z</time>
      </trkpt>
      <trkpt lat="43.33463" lon="2.61862">
        <ele>282.27801513672</ele>
        <time>2017-07-28T06:24:54Z</time>
      </trkpt>
      <trkpt lat="43.33466" lon="2.61857">
        <ele>283.27801513672</ele>
        <time>2017-07-28T06:24:57Z</time>
      </trkpt>
      <trkpt lat="43.3347" lon="2.61849">
        <ele>284.27801513672</ele>
        <time>2017-07-28T06:25:00Z</time>
      </trkpt>
      <trkpt lat="43.33473" lon="2.61843">
        <ele>284.27801513672</ele>
        <time>2017-07-28T06:25:04Z</time>
      </trkpt>
      <trkpt lat="43.33477" lon="2.61836">
        <ele>285.27801513672</ele>
        <time>2017-07-28T06:25:07Z</time>
      </trkpt>
      <trkpt lat="43.33481" lon="2.6183">
        <ele>286.27801513672</ele>
        <time>2017-07-28T06:25:11Z</time>
      </trkpt>
      <trkpt lat="43.33483" lon="2.61825">
        <ele>287.27801513672</ele>
        <time>2017-07-28T06:25:14Z</time>
      </trkpt>
      <trkpt lat="43.33486" lon="2.6182">
        <ele>289.27801513672</ele>
        <time>2017-07-28T06:25:17Z</time>
      </trkpt>
      <trkpt lat="43.33491" lon="2.61813">
        <ele>290.27801513672</ele>
        <time>2017-07-28T06:25:20Z</time>
      </trkpt>
      <trkpt lat="43.33496" lon="2.61811">
        <ele>294.27801513672</ele>
        <time>2017-07-28T06:25:23Z</time>
      </trkpt>
      <trkpt lat="43.33501" lon="2.61811">
        <ele>295.27801513672</ele>
        <time>2017-07-28T06:25:26Z</time>
      </trkpt>
      <trkpt lat="43.33505" lon="2.61814">
        <ele>295.27801513672</ele>
        <time>2017-07-28T06:25:30Z</time>
      </trkpt>
      <trkpt lat="43.33509" lon="2.61818">
        <ele>295.27801513672</ele>
        <time>2017-07-28T06:25:34Z</time>
      </trkpt>
      <trkpt lat="43.33514" lon="2.61823">
        <ele>294.27801513672</ele>
        <time>2017-07-28T06:25:37Z</time>
      </trkpt>
      <trkpt lat="43.33517" lon="2.61827">
        <ele>295.27801513672</ele>
        <time>2017-07-28T06:25:39Z</time>
      </trkpt>
      <trkpt lat="43.33521" lon="2.61831">
        <ele>296.27801513672</ele>
        <time>2017-07-28T06:25:41Z</time>
      </trkpt>
      <trkpt lat="43.33524" lon="2.61836">
        <ele>296.27801513672</ele>
        <time>2017-07-28T06:25:44Z</time>
      </trkpt>
      <trkpt lat="43.33529" lon="2.6184">
        <ele>296.27801513672</ele>
        <time>2017-07-28T06:25:47Z</time>
      </trkpt>
      <trkpt lat="43.33527" lon="2.61846">
        <ele>297.27801513672</ele>
        <time>2017-07-28T06:25:58Z</time>
      </trkpt>
      <trkpt lat="43.33524" lon="2.61851">
        <ele>296.27801513672</ele>
        <time>2017-07-28T06:26:00Z</time>
      </trkpt>
      <trkpt lat="43.33521" lon="2.61857">
        <ele>297.27801513672</ele>
        <time>2017-07-28T06:26:02Z</time>
      </trkpt>
      <trkpt lat="43.33519" lon="2.61863">
        <ele>295.27801513672</ele>
        <time>2017-07-28T06:26:04Z</time>
      </trkpt>
      <trkpt lat="43.33517" lon="2.61869">
        <ele>295.27801513672</ele>
        <time>2017-07-28T06:26:06Z</time>
      </trkpt>
      <trkpt lat="43.33523" lon="2.61871">
        <ele>296.27801513672</ele>
        <time>2017-07-28T06:26:14Z</time>
      </trkpt>
      <trkpt lat="43.33527" lon="2.61872">
        <ele>296.27801513672</ele>
        <time>2017-07-28T06:26:16Z</time>
      </trkpt>
      <trkpt lat="43.33533" lon="2.61872">
        <ele>294.27801513672</ele>
        <time>2017-07-28T06:26:18Z</time>
      </trkpt>
      <trkpt lat="43.33538" lon="2.61872">
        <ele>292.27801513672</ele>
        <time>2017-07-28T06:26:20Z</time>
      </trkpt>
      <trkpt lat="43.33543" lon="2.61873">
        <ele>291.27801513672</ele>
        <time>2017-07-28T06:26:22Z</time>
      </trkpt>
      <trkpt lat="43.33548" lon="2.61872">
        <ele>290.27801513672</ele>
        <time>2017-07-28T06:26:24Z</time>
      </trkpt>
      <trkpt lat="43.33553" lon="2.61873">
        <ele>289.27899169922</ele>
        <time>2017-07-28T06:26:26Z</time>
      </trkpt>
      <trkpt lat="43.33555" lon="2.6188">
        <ele>290.27899169922</ele>
        <time>2017-07-28T06:26:30Z</time>
      </trkpt>
      <trkpt lat="43.33552" lon="2.61885">
        <ele>290.27899169922</ele>
        <time>2017-07-28T06:26:33Z</time>
      </trkpt>
      <trkpt lat="43.3355" lon="2.61892">
        <ele>289.27899169922</ele>
        <time>2017-07-28T06:26:36Z</time>
      </trkpt>
      <trkpt lat="43.33551" lon="2.61899">
        <ele>286.27899169922</ele>
        <time>2017-07-28T06:26:39Z</time>
      </trkpt>
      <trkpt lat="43.33551" lon="2.61906">
        <ele>285.27899169922</ele>
        <time>2017-07-28T06:26:43Z</time>
      </trkpt>
      <trkpt lat="43.33553" lon="2.61899">
        <ele>283.27899169922</ele>
        <time>2017-07-28T06:26:53Z</time>
      </trkpt>
      <trkpt lat="43.33552" lon="2.61893">
        <ele>285.27899169922</ele>
        <time>2017-07-28T06:26:57Z</time>
      </trkpt>
      <trkpt lat="43.33553" lon="2.61886">
        <ele>286.27899169922</ele>
        <time>2017-07-28T06:27:00Z</time>
      </trkpt>
      <trkpt lat="43.33554" lon="2.61879">
        <ele>287.27899169922</ele>
        <time>2017-07-28T06:27:02Z</time>
      </trkpt>
      <trkpt lat="43.33553" lon="2.61872">
        <ele>288.27899169922</ele>
        <time>2017-07-28T06:27:05Z</time>
      </trkpt>
      <trkpt lat="43.33548" lon="2.61875">
        <ele>289.27899169922</ele>
        <time>2017-07-28T06:27:08Z</time>
      </trkpt>
      <trkpt lat="43.33544" lon="2.6188">
        <ele>289.27899169922</ele>
        <time>2017-07-28T06:27:10Z</time>
      </trkpt>
      <trkpt lat="43.33543" lon="2.61887">
        <ele>288.27899169922</ele>
        <time>2017-07-28T06:27:12Z</time>
      </trkpt>
      <trkpt lat="43.3354" lon="2.61894">
        <ele>287.27899169922</ele>
        <time>2017-07-28T06:27:14Z</time>
      </trkpt>
      <trkpt lat="43.33538" lon="2.61901">
        <ele>287.27899169922</ele>
        <time>2017-07-28T06:27:16Z</time>
      </trkpt>
      <trkpt lat="43.33535" lon="2.61907">
        <ele>286.27899169922</ele>
        <time>2017-07-28T06:27:18Z</time>
      </trkpt>
      <trkpt lat="43.33533" lon="2.61915">
        <ele>286.27899169922</ele>
        <time>2017-07-28T06:27:20Z</time>
      </trkpt>
      <trkpt lat="43.33531" lon="2.61922">
        <ele>285.27899169922</ele>
        <time>2017-07-28T06:27:22Z</time>
      </trkpt>
      <trkpt lat="43.33529" lon="2.61929">
        <ele>284.27899169922</ele>
        <time>2017-07-28T06:27:24Z</time>
      </trkpt>
      <trkpt lat="43.33526" lon="2.61936">
        <ele>282.27899169922</ele>
        <time>2017-07-28T06:27:26Z</time>
      </trkpt>
      <trkpt lat="43.33524" lon="2.61944">
        <ele>281.27899169922</ele>
        <time>2017-07-28T06:27:28Z</time>
      </trkpt>
      <trkpt lat="43.33521" lon="2.61951">
        <ele>280.27899169922</ele>
        <time>2017-07-28T06:27:30Z</time>
      </trkpt>
      <trkpt lat="43.3352" lon="2.61957">
        <ele>282.27899169922</ele>
        <time>2017-07-28T06:27:32Z</time>
      </trkpt>
      <trkpt lat="43.33517" lon="2.61965">
        <ele>280.27899169922</ele>
        <time>2017-07-28T06:27:34Z</time>
      </trkpt>
      <trkpt lat="43.33512" lon="2.6197">
        <ele>279.27899169922</ele>
        <time>2017-07-28T06:27:36Z</time>
      </trkpt>
      <trkpt lat="43.33511" lon="2.61978">
        <ele>278.27899169922</ele>
        <time>2017-07-28T06:27:38Z</time>
      </trkpt>
      <trkpt lat="43.33507" lon="2.61985">
        <ele>276.27899169922</ele>
        <time>2017-07-28T06:27:40Z</time>
      </trkpt>
      <trkpt lat="43.33505" lon="2.61992">
        <ele>275.27899169922</ele>
        <time>2017-07-28T06:27:42Z</time>
      </trkpt>
      <trkpt lat="43.33502" lon="2.61998">
        <ele>274.27899169922</ele>
        <time>2017-07-28T06:27:44Z</time>
      </trkpt>
      <trkpt lat="43.33494" lon="2.62027">
        <ele>273.27899169922</ele>
        <time>2017-07-28T06:27:56Z</time>
      </trkpt>
      <trkpt lat="43.33495" lon="2.6202">
        <ele>270.27899169922</ele>
        <time>2017-07-28T06:27:59Z</time>
      </trkpt>
      <trkpt lat="43.33489" lon="2.62018">
        <ele>274.27899169922</ele>
        <time>2017-07-28T06:28:02Z</time>
      </trkpt>
      <trkpt lat="43.33483" lon="2.62015">
        <ele>273.27899169922</ele>
        <time>2017-07-28T06:28:05Z</time>
      </trkpt>
      <trkpt lat="43.33478" lon="2.62013">
        <ele>272.27899169922</ele>
        <time>2017-07-28T06:28:07Z</time>
      </trkpt>
      <trkpt lat="43.33473" lon="2.62012">
        <ele>272.27899169922</ele>
        <time>2017-07-28T06:28:10Z</time>
      </trkpt>
      <trkpt lat="43.33469" lon="2.62016">
        <ele>272.27899169922</ele>
        <time>2017-07-28T06:28:15Z</time>
      </trkpt>
      <trkpt lat="43.33466" lon="2.62023">
        <ele>271.27899169922</ele>
        <time>2017-07-28T06:28:17Z</time>
      </trkpt>
      <trkpt lat="43.33464" lon="2.62034">
        <ele>270.27899169922</ele>
        <time>2017-07-28T06:28:20Z</time>
      </trkpt>
      <trkpt lat="43.33462" lon="2.62042">
        <ele>270.27899169922</ele>
        <time>2017-07-28T06:28:22Z</time>
      </trkpt>
      <trkpt lat="43.3346" lon="2.62049">
        <ele>270.27899169922</ele>
        <time>2017-07-28T06:28:24Z</time>
      </trkpt>
      <trkpt lat="43.33459" lon="2.62056">
        <ele>270.27899169922</ele>
        <time>2017-07-28T06:28:26Z</time>
      </trkpt>
      <trkpt lat="43.33458" lon="2.62063">
        <ele>268.27899169922</ele>
        <time>2017-07-28T06:28:28Z</time>
      </trkpt>
      <trkpt lat="43.33456" lon="2.62073">
        <ele>268.27899169922</ele>
        <time>2017-07-28T06:28:30Z</time>
      </trkpt>
      <trkpt lat="43.33457" lon="2.62082">
        <ele>267.27899169922</ele>
        <time>2017-07-28T06:28:33Z</time>
      </trkpt>
      <trkpt lat="43.33455" lon="2.62089">
        <ele>267.27899169922</ele>
        <time>2017-07-28T06:28:35Z</time>
      </trkpt>
      <trkpt lat="43.33453" lon="2.62096">
        <ele>265.27899169922</ele>
        <time>2017-07-28T06:28:37Z</time>
      </trkpt>
      <trkpt lat="43.3345" lon="2.62101">
        <ele>263.27899169922</ele>
        <time>2017-07-28T06:28:39Z</time>
      </trkpt>
      <trkpt lat="43.33447" lon="2.62108">
        <ele>261.27899169922</ele>
        <time>2017-07-28T06:28:42Z</time>
      </trkpt>
      <trkpt lat="43.33443" lon="2.62113">
        <ele>261.27899169922</ele>
        <time>2017-07-28T06:28:44Z</time>
      </trkpt>
      <trkpt lat="43.33439" lon="2.62117">
        <ele>260.27899169922</ele>
        <time>2017-07-28T06:28:46Z</time>
      </trkpt>
      <trkpt lat="43.33437" lon="2.62124">
        <ele>260.27899169922</ele>
        <time>2017-07-28T06:28:48Z</time>
      </trkpt>
      <trkpt lat="43.33437" lon="2.62134">
        <ele>260.27899169922</ele>
        <time>2017-07-28T06:28:51Z</time>
      </trkpt>
      <trkpt lat="43.33435" lon="2.62142">
        <ele>259.27899169922</ele>
        <time>2017-07-28T06:28:53Z</time>
      </trkpt>
      <trkpt lat="43.33431" lon="2.62149">
        <ele>258.27899169922</ele>
        <time>2017-07-28T06:28:56Z</time>
      </trkpt>
      <trkpt lat="43.33429" lon="2.62156">
        <ele>257.27899169922</ele>
        <time>2017-07-28T06:29:02Z</time>
      </trkpt>
      <trkpt lat="43.33428" lon="2.62162">
        <ele>257.27899169922</ele>
        <time>2017-07-28T06:29:11Z</time>
      </trkpt>
      <trkpt lat="43.33425" lon="2.62167">
        <ele>258.27899169922</ele>
        <time>2017-07-28T06:29:17Z</time>
      </trkpt>
      <trkpt lat="43.3342" lon="2.62169">
        <ele>255.27900695801</ele>
        <time>2017-07-28T06:29:26Z</time>
      </trkpt>
      <trkpt lat="43.33416" lon="2.62168">
        <ele>256.27899169922</ele>
        <time>2017-07-28T06:29:36Z</time>
      </trkpt>
      <trkpt lat="43.33415" lon="2.62174">
        <ele>254.27900695801</ele>
        <time>2017-07-28T06:30:23Z</time>
      </trkpt>
      <trkpt lat="43.33414" lon="2.62181">
        <ele>254.27900695801</ele>
        <time>2017-07-28T06:30:46Z</time>
      </trkpt>
      <trkpt lat="43.33414" lon="2.62188">
        <ele>253.27900695801</ele>
        <time>2017-07-28T06:30:48Z</time>
      </trkpt>
      <trkpt lat="43.33412" lon="2.62198">
        <ele>253.27900695801</ele>
        <time>2017-07-28T06:30:50Z</time>
      </trkpt>
      <trkpt lat="43.3341" lon="2.62207">
        <ele>253.27900695801</ele>
        <time>2017-07-28T06:30:52Z</time>
      </trkpt>
      <trkpt lat="43.33408" lon="2.62215">
        <ele>252.27900695801</ele>
        <time>2017-07-28T06:30:54Z</time>
      </trkpt>
      <trkpt lat="43.33405" lon="2.62223">
        <ele>252.27900695801</ele>
        <time>2017-07-28T06:30:56Z</time>
      </trkpt>
      <trkpt lat="43.33404" lon="2.62231">
        <ele>250.27900695801</ele>
        <time>2017-07-28T06:30:59Z</time>
      </trkpt>
      <trkpt lat="43.33402" lon="2.62239">
        <ele>249.27900695801</ele>
        <time>2017-07-28T06:31:01Z</time>
      </trkpt>
      <trkpt lat="43.33401" lon="2.62247">
        <ele>246.27900695801</ele>
        <time>2017-07-28T06:31:03Z</time>
      </trkpt>
      <trkpt lat="43.33398" lon="2.62255">
        <ele>245.27900695801</ele>
        <time>2017-07-28T06:31:05Z</time>
      </trkpt>
      <trkpt lat="43.33395" lon="2.62263">
        <ele>246.27900695801</ele>
        <time>2017-07-28T06:31:07Z</time>
      </trkpt>
      <trkpt lat="43.33393" lon="2.62269">
        <ele>246.27900695801</ele>
        <time>2017-07-28T06:31:09Z</time>
      </trkpt>
      <trkpt lat="43.33389" lon="2.62276">
        <ele>247.27900695801</ele>
        <time>2017-07-28T06:31:11Z</time>
      </trkpt>
      <trkpt lat="43.33386" lon="2.62283">
        <ele>247.27900695801</ele>
        <time>2017-07-28T06:31:13Z</time>
      </trkpt>
      <trkpt lat="43.33383" lon="2.6229">
        <ele>248.27900695801</ele>
        <time>2017-07-28T06:31:15Z</time>
      </trkpt>
      <trkpt lat="43.3338" lon="2.62295">
        <ele>250.27900695801</ele>
        <time>2017-07-28T06:31:17Z</time>
      </trkpt>
      <trkpt lat="43.33375" lon="2.62297">
        <ele>249.27900695801</ele>
        <time>2017-07-28T06:31:19Z</time>
      </trkpt>
      <trkpt lat="43.3337" lon="2.62297">
        <ele>249.27900695801</ele>
        <time>2017-07-28T06:31:21Z</time>
      </trkpt>
      <trkpt lat="43.33372" lon="2.62304">
        <ele>249.27900695801</ele>
        <time>2017-07-28T06:31:24Z</time>
      </trkpt>
      <trkpt lat="43.33374" lon="2.6231">
        <ele>249.27900695801</ele>
        <time>2017-07-28T06:31:26Z</time>
      </trkpt>
      <trkpt lat="43.33377" lon="2.62317">
        <ele>249.27900695801</ele>
        <time>2017-07-28T06:31:28Z</time>
      </trkpt>
      <trkpt lat="43.33379" lon="2.62323">
        <ele>249.27900695801</ele>
        <time>2017-07-28T06:31:30Z</time>
      </trkpt>
      <trkpt lat="43.33379" lon="2.6233">
        <ele>251.27900695801</ele>
        <time>2017-07-28T06:31:32Z</time>
      </trkpt>
      <trkpt lat="43.33381" lon="2.62339">
        <ele>250.27900695801</ele>
        <time>2017-07-28T06:31:35Z</time>
      </trkpt>
      <trkpt lat="43.33383" lon="2.62347">
        <ele>250.27900695801</ele>
        <time>2017-07-28T06:31:38Z</time>
      </trkpt>
      <trkpt lat="43.33384" lon="2.62355">
        <ele>249.27900695801</ele>
        <time>2017-07-28T06:31:41Z</time>
      </trkpt>
      <trkpt lat="43.33385" lon="2.62363">
        <ele>250.27900695801</ele>
        <time>2017-07-28T06:31:44Z</time>
      </trkpt>
      <trkpt lat="43.33385" lon="2.62371">
        <ele>251.27900695801</ele>
        <time>2017-07-28T06:31:47Z</time>
      </trkpt>
      <trkpt lat="43.33384" lon="2.62377">
        <ele>252.27900695801</ele>
        <time>2017-07-28T06:31:49Z</time>
      </trkpt>
      <trkpt lat="43.33384" lon="2.62383">
        <ele>252.27900695801</ele>
        <time>2017-07-28T06:31:51Z</time>
      </trkpt>
      <trkpt lat="43.33382" lon="2.62391">
        <ele>254.27900695801</ele>
        <time>2017-07-28T06:31:54Z</time>
      </trkpt>
      <trkpt lat="43.33378" lon="2.62395">
        <ele>253.27900695801</ele>
        <time>2017-07-28T06:31:57Z</time>
      </trkpt>
      <trkpt lat="43.33373" lon="2.62398">
        <ele>255.27900695801</ele>
        <time>2017-07-28T06:31:59Z</time>
      </trkpt>
      <trkpt lat="43.3337" lon="2.62402">
        <ele>255.27900695801</ele>
        <time>2017-07-28T06:32:01Z</time>
      </trkpt>
      <trkpt lat="43.33371" lon="2.6241">
        <ele>258.27899169922</ele>
        <time>2017-07-28T06:32:04Z</time>
      </trkpt>
      <trkpt lat="43.33376" lon="2.6241">
        <ele>258.27899169922</ele>
        <time>2017-07-28T06:32:06Z</time>
      </trkpt>
      <trkpt lat="43.3338" lon="2.62408">
        <ele>258.27899169922</ele>
        <time>2017-07-28T06:32:08Z</time>
      </trkpt>
      <trkpt lat="43.33384" lon="2.62402">
        <ele>257.27899169922</ele>
        <time>2017-07-28T06:32:11Z</time>
      </trkpt>
      <trkpt lat="43.3339" lon="2.62399">
        <ele>257.27899169922</ele>
        <time>2017-07-28T06:32:14Z</time>
      </trkpt>
      <trkpt lat="43.33396" lon="2.62395">
        <ele>257.27899169922</ele>
        <time>2017-07-28T06:32:17Z</time>
      </trkpt>
      <trkpt lat="43.33401" lon="2.62392">
        <ele>257.27899169922</ele>
        <time>2017-07-28T06:32:20Z</time>
      </trkpt>
      <trkpt lat="43.33407" lon="2.62387">
        <ele>255.27900695801</ele>
        <time>2017-07-28T06:32:23Z</time>
      </trkpt>
      <trkpt lat="43.33414" lon="2.62383">
        <ele>255.27900695801</ele>
        <time>2017-07-28T06:32:26Z</time>
      </trkpt>
      <trkpt lat="43.33419" lon="2.6238">
        <ele>254.27900695801</ele>
        <time>2017-07-28T06:32:29Z</time>
      </trkpt>
      <trkpt lat="43.33423" lon="2.62379">
        <ele>254.27900695801</ele>
        <time>2017-07-28T06:32:31Z</time>
      </trkpt>
      <trkpt lat="43.33429" lon="2.62379">
        <ele>255.27900695801</ele>
        <time>2017-07-28T06:32:33Z</time>
      </trkpt>
      <trkpt lat="43.33434" lon="2.62377">
        <ele>255.27900695801</ele>
        <time>2017-07-28T06:32:35Z</time>
      </trkpt>
      <trkpt lat="43.3344" lon="2.62375">
        <ele>257.27899169922</ele>
        <time>2017-07-28T06:32:38Z</time>
      </trkpt>
      <trkpt lat="43.33447" lon="2.62374">
        <ele>258.27899169922</ele>
        <time>2017-07-28T06:32:41Z</time>
      </trkpt>
      <trkpt lat="43.33452" lon="2.62374">
        <ele>258.27899169922</ele>
        <time>2017-07-28T06:32:43Z</time>
      </trkpt>
      <trkpt lat="43.33458" lon="2.62377">
        <ele>256.27899169922</ele>
        <time>2017-07-28T06:32:45Z</time>
      </trkpt>
      <trkpt lat="43.33464" lon="2.62378">
        <ele>256.27899169922</ele>
        <time>2017-07-28T06:32:47Z</time>
      </trkpt>
      <trkpt lat="43.33469" lon="2.62379">
        <ele>256.27899169922</ele>
        <time>2017-07-28T06:32:49Z</time>
      </trkpt>
      <trkpt lat="43.33474" lon="2.62381">
        <ele>256.27899169922</ele>
        <time>2017-07-28T06:32:51Z</time>
      </trkpt>
      <trkpt lat="43.33479" lon="2.62382">
        <ele>257.27899169922</ele>
        <time>2017-07-28T06:32:53Z</time>
      </trkpt>
      <trkpt lat="43.33484" lon="2.62384">
        <ele>259.27899169922</ele>
        <time>2017-07-28T06:32:55Z</time>
      </trkpt>
      <trkpt lat="43.3349" lon="2.62383">
        <ele>256.27899169922</ele>
        <time>2017-07-28T06:32:58Z</time>
      </trkpt>
      <trkpt lat="43.33496" lon="2.62385">
        <ele>256.2799987793</ele>
        <time>2017-07-28T06:33:00Z</time>
      </trkpt>
      <trkpt lat="43.33501" lon="2.62385">
        <ele>256.2799987793</ele>
        <time>2017-07-28T06:33:02Z</time>
      </trkpt>
      <trkpt lat="43.33507" lon="2.62387">
        <ele>256.2799987793</ele>
        <time>2017-07-28T06:33:05Z</time>
      </trkpt>
      <trkpt lat="43.33511" lon="2.62391">
        <ele>255.2799987793</ele>
        <time>2017-07-28T06:33:07Z</time>
      </trkpt>
      <trkpt lat="43.33514" lon="2.62395">
        <ele>255.2799987793</ele>
        <time>2017-07-28T06:33:09Z</time>
      </trkpt>
      <trkpt lat="43.33519" lon="2.624">
        <ele>254.2799987793</ele>
        <time>2017-07-28T06:33:11Z</time>
      </trkpt>
      <trkpt lat="43.33523" lon="2.62406">
        <ele>254.2799987793</ele>
        <time>2017-07-28T06:33:13Z</time>
      </trkpt>
      <trkpt lat="43.33527" lon="2.6241">
        <ele>253.2799987793</ele>
        <time>2017-07-28T06:33:15Z</time>
      </trkpt>
      <trkpt lat="43.33532" lon="2.62414">
        <ele>252.2799987793</ele>
        <time>2017-07-28T06:33:17Z</time>
      </trkpt>
      <trkpt lat="43.33535" lon="2.62419">
        <ele>253.2799987793</ele>
        <time>2017-07-28T06:33:19Z</time>
      </trkpt>
      <trkpt lat="43.3354" lon="2.62424">
        <ele>253.2799987793</ele>
        <time>2017-07-28T06:33:21Z</time>
      </trkpt>
      <trkpt lat="43.33544" lon="2.62427">
        <ele>254.2799987793</ele>
        <time>2017-07-28T06:33:23Z</time>
      </trkpt>
      <trkpt lat="43.3355" lon="2.62432">
        <ele>255.2799987793</ele>
        <time>2017-07-28T06:33:26Z</time>
      </trkpt>
      <trkpt lat="43.33555" lon="2.62436">
        <ele>255.2799987793</ele>
        <time>2017-07-28T06:33:28Z</time>
      </trkpt>
      <trkpt lat="43.33559" lon="2.62439">
        <ele>253.2799987793</ele>
        <time>2017-07-28T06:33:30Z</time>
      </trkpt>
      <trkpt lat="43.33565" lon="2.62441">
        <ele>253.2799987793</ele>
        <time>2017-07-28T06:33:32Z</time>
      </trkpt>
      <trkpt lat="43.3357" lon="2.62444">
        <ele>253.2799987793</ele>
        <time>2017-07-28T06:33:34Z</time>
      </trkpt>
      <trkpt lat="43.33576" lon="2.62446">
        <ele>253.2799987793</ele>
        <time>2017-07-28T06:33:36Z</time>
      </trkpt>
      <trkpt lat="43.33581" lon="2.62447">
        <ele>252.2799987793</ele>
        <time>2017-07-28T06:33:38Z</time>
      </trkpt>
      <trkpt lat="43.33586" lon="2.62449">
        <ele>252.2799987793</ele>
        <time>2017-07-28T06:33:40Z</time>
      </trkpt>
      <trkpt lat="43.3359" lon="2.62453">
        <ele>252.2799987793</ele>
        <time>2017-07-28T06:33:42Z</time>
      </trkpt>
      <trkpt lat="43.33595" lon="2.62455">
        <ele>250.2799987793</ele>
        <time>2017-07-28T06:33:44Z</time>
      </trkpt>
      <trkpt lat="43.336" lon="2.62458">
        <ele>250.2799987793</ele>
        <time>2017-07-28T06:33:46Z</time>
      </trkpt>
      <trkpt lat="43.33608" lon="2.6246">
        <ele>248.2799987793</ele>
        <time>2017-07-28T06:33:49Z</time>
      </trkpt>
      <trkpt lat="43.33613" lon="2.62463">
        <ele>249.2799987793</ele>
        <time>2017-07-28T06:33:51Z</time>
      </trkpt>
      <trkpt lat="43.33618" lon="2.62466">
        <ele>248.2799987793</ele>
        <time>2017-07-28T06:33:53Z</time>
      </trkpt>
      <trkpt lat="43.33622" lon="2.62468">
        <ele>248.2799987793</ele>
        <time>2017-07-28T06:33:55Z</time>
      </trkpt>
      <trkpt lat="43.33629" lon="2.6247">
        <ele>247.2799987793</ele>
        <time>2017-07-28T06:33:58Z</time>
      </trkpt>
      <trkpt lat="43.33636" lon="2.62469">
        <ele>246.2799987793</ele>
        <time>2017-07-28T06:34:00Z</time>
      </trkpt>
      <trkpt lat="43.33642" lon="2.62466">
        <ele>245.2799987793</ele>
        <time>2017-07-28T06:34:02Z</time>
      </trkpt>
      <trkpt lat="43.33647" lon="2.62466">
        <ele>244.2799987793</ele>
        <time>2017-07-28T06:34:04Z</time>
      </trkpt>
      <trkpt lat="43.33654" lon="2.62465">
        <ele>244.2799987793</ele>
        <time>2017-07-28T06:34:06Z</time>
      </trkpt>
      <trkpt lat="43.33659" lon="2.62464">
        <ele>244.2799987793</ele>
        <time>2017-07-28T06:34:08Z</time>
      </trkpt>
      <trkpt lat="43.33665" lon="2.62463">
        <ele>243.2799987793</ele>
        <time>2017-07-28T06:34:10Z</time>
      </trkpt>
      <trkpt lat="43.3367" lon="2.62461">
        <ele>243.2799987793</ele>
        <time>2017-07-28T06:34:12Z</time>
      </trkpt>
      <trkpt lat="43.33675" lon="2.62461">
        <ele>244.2799987793</ele>
        <time>2017-07-28T06:34:14Z</time>
      </trkpt>
      <trkpt lat="43.3368" lon="2.6246">
        <ele>245.2799987793</ele>
        <time>2017-07-28T06:34:16Z</time>
      </trkpt>
      <trkpt lat="43.33686" lon="2.62458">
        <ele>244.2799987793</ele>
        <time>2017-07-28T06:34:18Z</time>
      </trkpt>
      <trkpt lat="43.33692" lon="2.62457">
        <ele>243.2799987793</ele>
        <time>2017-07-28T06:34:20Z</time>
      </trkpt>
      <trkpt lat="43.33699" lon="2.62457">
        <ele>243.2799987793</ele>
        <time>2017-07-28T06:34:23Z</time>
      </trkpt>
      <trkpt lat="43.33704" lon="2.62459">
        <ele>243.2799987793</ele>
        <time>2017-07-28T06:34:25Z</time>
      </trkpt>
      <trkpt lat="43.3371" lon="2.62461">
        <ele>242.2799987793</ele>
        <time>2017-07-28T06:34:27Z</time>
      </trkpt>
      <trkpt lat="43.33715" lon="2.62467">
        <ele>242.2799987793</ele>
        <time>2017-07-28T06:34:30Z</time>
      </trkpt>
      <trkpt lat="43.33719" lon="2.62471">
        <ele>242.28100585938</ele>
        <time>2017-07-28T06:34:32Z</time>
      </trkpt>
      <trkpt lat="43.33725" lon="2.62474">
        <ele>242.28100585938</ele>
        <time>2017-07-28T06:34:34Z</time>
      </trkpt>
      <trkpt lat="43.3373" lon="2.62477">
        <ele>242.28100585938</ele>
        <time>2017-07-28T06:34:36Z</time>
      </trkpt>
      <trkpt lat="43.33735" lon="2.62477">
        <ele>242.28100585938</ele>
        <time>2017-07-28T06:34:38Z</time>
      </trkpt>
      <trkpt lat="43.3374" lon="2.62477">
        <ele>241.28100585938</ele>
        <time>2017-07-28T06:34:40Z</time>
      </trkpt>
      <trkpt lat="43.33746" lon="2.62477">
        <ele>239.28100585938</ele>
        <time>2017-07-28T06:34:42Z</time>
      </trkpt>
      <trkpt lat="43.33751" lon="2.62477">
        <ele>241.28100585938</ele>
        <time>2017-07-28T06:34:44Z</time>
      </trkpt>
      <trkpt lat="43.33756" lon="2.62476">
        <ele>240.28100585938</ele>
        <time>2017-07-28T06:34:46Z</time>
      </trkpt>
      <trkpt lat="43.33763" lon="2.62477">
        <ele>239.28100585938</ele>
        <time>2017-07-28T06:34:49Z</time>
      </trkpt>
      <trkpt lat="43.33767" lon="2.62477">
        <ele>239.28100585938</ele>
        <time>2017-07-28T06:34:51Z</time>
      </trkpt>
      <trkpt lat="43.33773" lon="2.62477">
        <ele>239.28100585938</ele>
        <time>2017-07-28T06:34:53Z</time>
      </trkpt>
      <trkpt lat="43.33778" lon="2.62477">
        <ele>241.28100585938</ele>
        <time>2017-07-28T06:34:55Z</time>
      </trkpt>
      <trkpt lat="43.33784" lon="2.62475">
        <ele>239.28100585938</ele>
        <time>2017-07-28T06:34:57Z</time>
      </trkpt>
      <trkpt lat="43.33786" lon="2.62469">
        <ele>238.28100585938</ele>
        <time>2017-07-28T06:34:59Z</time>
      </trkpt>
      <trkpt lat="43.33788" lon="2.62463">
        <ele>237.28100585938</ele>
        <time>2017-07-28T06:35:01Z</time>
      </trkpt>
      <trkpt lat="43.33791" lon="2.62456">
        <ele>235.28100585938</ele>
        <time>2017-07-28T06:35:03Z</time>
      </trkpt>
      <trkpt lat="43.33794" lon="2.62449">
        <ele>235.28100585938</ele>
        <time>2017-07-28T06:35:05Z</time>
      </trkpt>
      <trkpt lat="43.33797" lon="2.62442">
        <ele>234.28100585938</ele>
        <time>2017-07-28T06:35:08Z</time>
      </trkpt>
      <trkpt lat="43.33801" lon="2.62437">
        <ele>235.28100585938</ele>
        <time>2017-07-28T06:35:10Z</time>
      </trkpt>
      <trkpt lat="43.33806" lon="2.62433">
        <ele>233.28100585938</ele>
        <time>2017-07-28T06:35:12Z</time>
      </trkpt>
      <trkpt lat="43.33811" lon="2.62434">
        <ele>233.28100585938</ele>
        <time>2017-07-28T06:35:14Z</time>
      </trkpt>
      <trkpt lat="43.33816" lon="2.62434">
        <ele>232.28100585938</ele>
        <time>2017-07-28T06:35:16Z</time>
      </trkpt>
      <trkpt lat="43.33822" lon="2.62433">
        <ele>233.28100585938</ele>
        <time>2017-07-28T06:35:18Z</time>
      </trkpt>
      <trkpt lat="43.33828" lon="2.62431">
        <ele>232.28100585938</ele>
        <time>2017-07-28T06:35:21Z</time>
      </trkpt>
      <trkpt lat="43.33833" lon="2.62431">
        <ele>232.28100585938</ele>
        <time>2017-07-28T06:35:23Z</time>
      </trkpt>
      <trkpt lat="43.3384" lon="2.6243">
        <ele>233.28100585938</ele>
        <time>2017-07-28T06:35:25Z</time>
      </trkpt>
      <trkpt lat="43.33845" lon="2.6243">
        <ele>233.28100585938</ele>
        <time>2017-07-28T06:35:27Z</time>
      </trkpt>
      <trkpt lat="43.33851" lon="2.62429">
        <ele>232.28100585938</ele>
        <time>2017-07-28T06:35:30Z</time>
      </trkpt>
      <trkpt lat="43.33856" lon="2.62427">
        <ele>232.28100585938</ele>
        <time>2017-07-28T06:35:32Z</time>
      </trkpt>
      <trkpt lat="43.33862" lon="2.62425">
        <ele>233.28100585938</ele>
        <time>2017-07-28T06:35:35Z</time>
      </trkpt>
      <trkpt lat="43.33868" lon="2.62425">
        <ele>235.28100585938</ele>
        <time>2017-07-28T06:35:37Z</time>
      </trkpt>
      <trkpt lat="43.33873" lon="2.62426">
        <ele>236.28100585938</ele>
        <time>2017-07-28T06:35:39Z</time>
      </trkpt>
      <trkpt lat="43.33879" lon="2.62426">
        <ele>236.28100585938</ele>
        <time>2017-07-28T06:35:41Z</time>
      </trkpt>
      <trkpt lat="43.33884" lon="2.62427">
        <ele>237.28100585938</ele>
        <time>2017-07-28T06:35:43Z</time>
      </trkpt>
      <trkpt lat="43.3389" lon="2.62425">
        <ele>237.28100585938</ele>
        <time>2017-07-28T06:35:45Z</time>
      </trkpt>
      <trkpt lat="43.33895" lon="2.62423">
        <ele>235.28100585938</ele>
        <time>2017-07-28T06:35:53Z</time>
      </trkpt>
      <trkpt lat="43.33901" lon="2.62422">
        <ele>235.28100585938</ele>
        <time>2017-07-28T06:35:56Z</time>
      </trkpt>
      <trkpt lat="43.33907" lon="2.62421">
        <ele>235.28100585938</ele>
        <time>2017-07-28T06:35:58Z</time>
      </trkpt>
      <trkpt lat="43.33911" lon="2.6242">
        <ele>235.28100585938</ele>
        <time>2017-07-28T06:36:00Z</time>
      </trkpt>
      <trkpt lat="43.33917" lon="2.62419">
        <ele>235.28100585938</ele>
        <time>2017-07-28T06:36:02Z</time>
      </trkpt>
      <trkpt lat="43.33922" lon="2.62419">
        <ele>237.28100585938</ele>
        <time>2017-07-28T06:36:04Z</time>
      </trkpt>
      <trkpt lat="43.33927" lon="2.6242">
        <ele>237.28100585938</ele>
        <time>2017-07-28T06:36:06Z</time>
      </trkpt>
      <trkpt lat="43.33931" lon="2.6242">
        <ele>238.28100585938</ele>
        <time>2017-07-28T06:36:08Z</time>
      </trkpt>
      <trkpt lat="43.33938" lon="2.62421">
        <ele>239.28100585938</ele>
        <time>2017-07-28T06:36:11Z</time>
      </trkpt>
      <trkpt lat="43.33943" lon="2.62421">
        <ele>239.28100585938</ele>
        <time>2017-07-28T06:36:13Z</time>
      </trkpt>
      <trkpt lat="43.33949" lon="2.62421">
        <ele>240.28100585938</ele>
        <time>2017-07-28T06:36:16Z</time>
      </trkpt>
      <trkpt lat="43.33955" lon="2.62422">
        <ele>241.28100585938</ele>
        <time>2017-07-28T06:36:19Z</time>
      </trkpt>
      <trkpt lat="43.33961" lon="2.62424">
        <ele>241.28100585938</ele>
        <time>2017-07-28T06:36:22Z</time>
      </trkpt>
      <trkpt lat="43.33966" lon="2.62423">
        <ele>241.28100585938</ele>
        <time>2017-07-28T06:36:25Z</time>
      </trkpt>
      <trkpt lat="43.33971" lon="2.62421">
        <ele>241.28100585938</ele>
        <time>2017-07-28T06:36:28Z</time>
      </trkpt>
      <trkpt lat="43.33976" lon="2.62421">
        <ele>241.28100585938</ele>
        <time>2017-07-28T06:36:30Z</time>
      </trkpt>
      <trkpt lat="43.33981" lon="2.62419">
        <ele>242.28100585938</ele>
        <time>2017-07-28T06:36:32Z</time>
      </trkpt>
      <trkpt lat="43.33986" lon="2.62417">
        <ele>241.28100585938</ele>
        <time>2017-07-28T06:36:35Z</time>
      </trkpt>
      <trkpt lat="43.33991" lon="2.62415">
        <ele>240.28100585938</ele>
        <time>2017-07-28T06:36:37Z</time>
      </trkpt>
      <trkpt lat="43.33996" lon="2.62414">
        <ele>241.28100585938</ele>
        <time>2017-07-28T06:36:39Z</time>
      </trkpt>
      <trkpt lat="43.34001" lon="2.62414">
        <ele>242.28100585938</ele>
        <time>2017-07-28T06:36:41Z</time>
      </trkpt>
      <trkpt lat="43.34006" lon="2.62414">
        <ele>244.28100585938</ele>
        <time>2017-07-28T06:36:43Z</time>
      </trkpt>
      <trkpt lat="43.34011" lon="2.62411">
        <ele>244.28100585938</ele>
        <time>2017-07-28T06:36:46Z</time>
      </trkpt>
      <trkpt lat="43.34017" lon="2.62413">
        <ele>247.28100585938</ele>
        <time>2017-07-28T06:36:49Z</time>
      </trkpt>
      <trkpt lat="43.34023" lon="2.62413">
        <ele>249.28199768066</ele>
        <time>2017-07-28T06:36:52Z</time>
      </trkpt>
      <trkpt lat="43.34029" lon="2.62418">
        <ele>250.28199768066</ele>
        <time>2017-07-28T06:36:55Z</time>
      </trkpt>
      <trkpt lat="43.34034" lon="2.62423">
        <ele>251.28199768066</ele>
        <time>2017-07-28T06:36:58Z</time>
      </trkpt>
      <trkpt lat="43.34037" lon="2.62431">
        <ele>252.28199768066</ele>
        <time>2017-07-28T06:37:01Z</time>
      </trkpt>
      <trkpt lat="43.34039" lon="2.62438">
        <ele>253.28199768066</ele>
        <time>2017-07-28T06:37:04Z</time>
      </trkpt>
      <trkpt lat="43.34039" lon="2.62445">
        <ele>251.28199768066</ele>
        <time>2017-07-28T06:37:06Z</time>
      </trkpt>
      <trkpt lat="43.3404" lon="2.62451">
        <ele>250.28199768066</ele>
        <time>2017-07-28T06:37:08Z</time>
      </trkpt>
      <trkpt lat="43.34042" lon="2.62457">
        <ele>251.28199768066</ele>
        <time>2017-07-28T06:37:10Z</time>
      </trkpt>
      <trkpt lat="43.34042" lon="2.62464">
        <ele>252.28199768066</ele>
        <time>2017-07-28T06:37:13Z</time>
      </trkpt>
      <trkpt lat="43.34044" lon="2.62471">
        <ele>251.28199768066</ele>
        <time>2017-07-28T06:37:15Z</time>
      </trkpt>
      <trkpt lat="43.34048" lon="2.62478">
        <ele>252.28199768066</ele>
        <time>2017-07-28T06:37:18Z</time>
      </trkpt>
      <trkpt lat="43.34052" lon="2.62483">
        <ele>252.28199768066</ele>
        <time>2017-07-28T06:37:21Z</time>
      </trkpt>
      <trkpt lat="43.34056" lon="2.62488">
        <ele>252.28199768066</ele>
        <time>2017-07-28T06:37:24Z</time>
      </trkpt>
      <trkpt lat="43.34059" lon="2.62495">
        <ele>252.28199768066</ele>
        <time>2017-07-28T06:37:27Z</time>
      </trkpt>
      <trkpt lat="43.34061" lon="2.62501">
        <ele>254.28199768066</ele>
        <time>2017-07-28T06:37:30Z</time>
      </trkpt>
      <trkpt lat="43.34065" lon="2.62506">
        <ele>254.28199768066</ele>
        <time>2017-07-28T06:37:32Z</time>
      </trkpt>
      <trkpt lat="43.34069" lon="2.62513">
        <ele>255.28199768066</ele>
        <time>2017-07-28T06:37:35Z</time>
      </trkpt>
      <trkpt lat="43.34075" lon="2.62517">
        <ele>256.28201293945</ele>
        <time>2017-07-28T06:37:38Z</time>
      </trkpt>
      <trkpt lat="43.3408" lon="2.62522">
        <ele>256.28201293945</ele>
        <time>2017-07-28T06:37:41Z</time>
      </trkpt>
      <trkpt lat="43.34085" lon="2.62524">
        <ele>255.28199768066</ele>
        <time>2017-07-28T06:37:44Z</time>
      </trkpt>
      <trkpt lat="43.3409" lon="2.62528">
        <ele>254.28199768066</ele>
        <time>2017-07-28T06:37:47Z</time>
      </trkpt>
      <trkpt lat="43.34095" lon="2.62532">
        <ele>255.28199768066</ele>
        <time>2017-07-28T06:37:50Z</time>
      </trkpt>
      <trkpt lat="43.341" lon="2.62535">
        <ele>254.28199768066</ele>
        <time>2017-07-28T06:37:54Z</time>
      </trkpt>
      <trkpt lat="43.34104" lon="2.62537">
        <ele>254.28199768066</ele>
        <time>2017-07-28T06:37:57Z</time>
      </trkpt>
      <trkpt lat="43.34109" lon="2.62541">
        <ele>255.28199768066</ele>
        <time>2017-07-28T06:38:00Z</time>
      </trkpt>
      <trkpt lat="43.34113" lon="2.62543">
        <ele>255.28199768066</ele>
        <time>2017-07-28T06:38:04Z</time>
      </trkpt>
      <trkpt lat="43.34119" lon="2.62542">
        <ele>255.28199768066</ele>
        <time>2017-07-28T06:38:10Z</time>
      </trkpt>
      <trkpt lat="43.34124" lon="2.62543">
        <ele>255.28199768066</ele>
        <time>2017-07-28T06:38:12Z</time>
      </trkpt>
      <trkpt lat="43.34129" lon="2.62544">
        <ele>256.28201293945</ele>
        <time>2017-07-28T06:38:14Z</time>
      </trkpt>
      <trkpt lat="43.34135" lon="2.62544">
        <ele>256.28201293945</ele>
        <time>2017-07-28T06:38:17Z</time>
      </trkpt>
      <trkpt lat="43.3414" lon="2.62542">
        <ele>258.28201293945</ele>
        <time>2017-07-28T06:38:20Z</time>
      </trkpt>
      <trkpt lat="43.34146" lon="2.6254">
        <ele>258.28201293945</ele>
        <time>2017-07-28T06:38:23Z</time>
      </trkpt>
      <trkpt lat="43.3415" lon="2.62537">
        <ele>258.28201293945</ele>
        <time>2017-07-28T06:38:25Z</time>
      </trkpt>
      <trkpt lat="43.34155" lon="2.62536">
        <ele>259.28201293945</ele>
        <time>2017-07-28T06:38:28Z</time>
      </trkpt>
      <trkpt lat="43.3416" lon="2.62534">
        <ele>259.28201293945</ele>
        <time>2017-07-28T06:38:31Z</time>
      </trkpt>
      <trkpt lat="43.34167" lon="2.62534">
        <ele>262.28201293945</ele>
        <time>2017-07-28T06:38:34Z</time>
      </trkpt>
      <trkpt lat="43.34176" lon="2.62536">
        <ele>261.28201293945</ele>
        <time>2017-07-28T06:38:39Z</time>
      </trkpt>
      <trkpt lat="43.34182" lon="2.62539">
        <ele>262.28201293945</ele>
        <time>2017-07-28T06:38:42Z</time>
      </trkpt>
      <trkpt lat="43.34188" lon="2.62541">
        <ele>263.28201293945</ele>
        <time>2017-07-28T06:38:44Z</time>
      </trkpt>
      <trkpt lat="43.34193" lon="2.62543">
        <ele>263.28201293945</ele>
        <time>2017-07-28T06:38:46Z</time>
      </trkpt>
      <trkpt lat="43.34199" lon="2.62547">
        <ele>263.28201293945</ele>
        <time>2017-07-28T06:38:49Z</time>
      </trkpt>
      <trkpt lat="43.34204" lon="2.62552">
        <ele>264.28201293945</ele>
        <time>2017-07-28T06:38:52Z</time>
      </trkpt>
      <trkpt lat="43.34209" lon="2.62558">
        <ele>264.28298950195</ele>
        <time>2017-07-28T06:38:55Z</time>
      </trkpt>
      <trkpt lat="43.34213" lon="2.62563">
        <ele>264.28298950195</ele>
        <time>2017-07-28T06:38:57Z</time>
      </trkpt>
      <trkpt lat="43.34215" lon="2.62572">
        <ele>263.28298950195</ele>
        <time>2017-07-28T06:39:00Z</time>
      </trkpt>
      <trkpt lat="43.34217" lon="2.62578">
        <ele>263.28298950195</ele>
        <time>2017-07-28T06:39:02Z</time>
      </trkpt>
      <trkpt lat="43.34217" lon="2.62584">
        <ele>263.28298950195</ele>
        <time>2017-07-28T06:39:04Z</time>
      </trkpt>
      <trkpt lat="43.34217" lon="2.62592">
        <ele>264.28298950195</ele>
        <time>2017-07-28T06:39:07Z</time>
      </trkpt>
      <trkpt lat="43.34219" lon="2.62598">
        <ele>265.28298950195</ele>
        <time>2017-07-28T06:39:09Z</time>
      </trkpt>
      <trkpt lat="43.34222" lon="2.62602">
        <ele>265.28298950195</ele>
        <time>2017-07-28T06:39:12Z</time>
      </trkpt>
      <trkpt lat="43.34228" lon="2.62603">
        <ele>266.28298950195</ele>
        <time>2017-07-28T06:39:15Z</time>
      </trkpt>
      <trkpt lat="43.34233" lon="2.62604">
        <ele>265.28298950195</ele>
        <time>2017-07-28T06:39:18Z</time>
      </trkpt>
      <trkpt lat="43.34239" lon="2.62604">
        <ele>266.28298950195</ele>
        <time>2017-07-28T06:39:21Z</time>
      </trkpt>
      <trkpt lat="43.34243" lon="2.62604">
        <ele>268.28298950195</ele>
        <time>2017-07-28T06:39:24Z</time>
      </trkpt>
      <trkpt lat="43.34249" lon="2.62605">
        <ele>267.28298950195</ele>
        <time>2017-07-28T06:39:27Z</time>
      </trkpt>
      <trkpt lat="43.34253" lon="2.62607">
        <ele>267.28298950195</ele>
        <time>2017-07-28T06:39:30Z</time>
      </trkpt>
      <trkpt lat="43.34259" lon="2.62609">
        <ele>268.28298950195</ele>
        <time>2017-07-28T06:39:33Z</time>
      </trkpt>
      <trkpt lat="43.34265" lon="2.62612">
        <ele>270.28298950195</ele>
        <time>2017-07-28T06:39:36Z</time>
      </trkpt>
      <trkpt lat="43.34271" lon="2.62614">
        <ele>271.28298950195</ele>
        <time>2017-07-28T06:39:39Z</time>
      </trkpt>
      <trkpt lat="43.34276" lon="2.62617">
        <ele>272.28298950195</ele>
        <time>2017-07-28T06:39:42Z</time>
      </trkpt>
      <trkpt lat="43.34281" lon="2.62619">
        <ele>273.28298950195</ele>
        <time>2017-07-28T06:39:45Z</time>
      </trkpt>
      <trkpt lat="43.34286" lon="2.62622">
        <ele>274.28298950195</ele>
        <time>2017-07-28T06:39:48Z</time>
      </trkpt>
      <trkpt lat="43.34292" lon="2.62624">
        <ele>275.28298950195</ele>
        <time>2017-07-28T06:39:51Z</time>
      </trkpt>
      <trkpt lat="43.34298" lon="2.62626">
        <ele>277.28298950195</ele>
        <time>2017-07-28T06:39:54Z</time>
      </trkpt>
      <trkpt lat="43.34305" lon="2.62628">
        <ele>277.28298950195</ele>
        <time>2017-07-28T06:39:57Z</time>
      </trkpt>
      <trkpt lat="43.34311" lon="2.62631">
        <ele>278.28298950195</ele>
        <time>2017-07-28T06:40:00Z</time>
      </trkpt>
      <trkpt lat="43.34316" lon="2.62634">
        <ele>279.28298950195</ele>
        <time>2017-07-28T06:40:03Z</time>
      </trkpt>
      <trkpt lat="43.34321" lon="2.62637">
        <ele>280.28298950195</ele>
        <time>2017-07-28T06:40:05Z</time>
      </trkpt>
      <trkpt lat="43.34326" lon="2.62639">
        <ele>281.28298950195</ele>
        <time>2017-07-28T06:40:08Z</time>
      </trkpt>
      <trkpt lat="43.34332" lon="2.62642">
        <ele>281.28298950195</ele>
        <time>2017-07-28T06:40:11Z</time>
      </trkpt>
      <trkpt lat="43.34336" lon="2.62644">
        <ele>282.28298950195</ele>
        <time>2017-07-28T06:40:14Z</time>
      </trkpt>
      <trkpt lat="43.34342" lon="2.62647">
        <ele>284.28298950195</ele>
        <time>2017-07-28T06:40:17Z</time>
      </trkpt>
      <trkpt lat="43.34347" lon="2.6265">
        <ele>282.28298950195</ele>
        <time>2017-07-28T06:40:20Z</time>
      </trkpt>
      <trkpt lat="43.34351" lon="2.62652">
        <ele>282.28298950195</ele>
        <time>2017-07-28T06:40:22Z</time>
      </trkpt>
      <trkpt lat="43.34356" lon="2.62654">
        <ele>280.28298950195</ele>
        <time>2017-07-28T06:40:25Z</time>
      </trkpt>
      <trkpt lat="43.34362" lon="2.62658">
        <ele>282.28298950195</ele>
        <time>2017-07-28T06:40:28Z</time>
      </trkpt>
      <trkpt lat="43.34367" lon="2.6266">
        <ele>283.28298950195</ele>
        <time>2017-07-28T06:40:31Z</time>
      </trkpt>
      <trkpt lat="43.34372" lon="2.62663">
        <ele>284.28298950195</ele>
        <time>2017-07-28T06:40:34Z</time>
      </trkpt>
      <trkpt lat="43.34377" lon="2.62665">
        <ele>284.28298950195</ele>
        <time>2017-07-28T06:40:37Z</time>
      </trkpt>
      <trkpt lat="43.34382" lon="2.62666">
        <ele>285.28298950195</ele>
        <time>2017-07-28T06:40:39Z</time>
      </trkpt>
      <trkpt lat="43.34387" lon="2.6267">
        <ele>286.28298950195</ele>
        <time>2017-07-28T06:40:42Z</time>
      </trkpt>
      <trkpt lat="43.34393" lon="2.62673">
        <ele>286.28298950195</ele>
        <time>2017-07-28T06:40:45Z</time>
      </trkpt>
      <trkpt lat="43.34398" lon="2.62674">
        <ele>288.28298950195</ele>
        <time>2017-07-28T06:40:48Z</time>
      </trkpt>
      <trkpt lat="43.34404" lon="2.62677">
        <ele>289.28399658203</ele>
        <time>2017-07-28T06:40:51Z</time>
      </trkpt>
      <trkpt lat="43.34409" lon="2.62679">
        <ele>289.28399658203</ele>
        <time>2017-07-28T06:40:53Z</time>
      </trkpt>
      <trkpt lat="43.34413" lon="2.62681">
        <ele>288.28399658203</ele>
        <time>2017-07-28T06:40:55Z</time>
      </trkpt>
      <trkpt lat="43.34418" lon="2.62683">
        <ele>289.28399658203</ele>
        <time>2017-07-28T06:40:57Z</time>
      </trkpt>
      <trkpt lat="43.34422" lon="2.62686">
        <ele>290.28399658203</ele>
        <time>2017-07-28T06:41:00Z</time>
      </trkpt>
      <trkpt lat="43.34427" lon="2.62688">
        <ele>290.28399658203</ele>
        <time>2017-07-28T06:41:02Z</time>
      </trkpt>
      <trkpt lat="43.34433" lon="2.62689">
        <ele>289.28399658203</ele>
        <time>2017-07-28T06:41:05Z</time>
      </trkpt>
      <trkpt lat="43.34438" lon="2.62693">
        <ele>291.28399658203</ele>
        <time>2017-07-28T06:41:08Z</time>
      </trkpt>
      <trkpt lat="43.34444" lon="2.62695">
        <ele>290.28399658203</ele>
        <time>2017-07-28T06:41:11Z</time>
      </trkpt>
      <trkpt lat="43.3445" lon="2.62698">
        <ele>290.28399658203</ele>
        <time>2017-07-28T06:41:14Z</time>
      </trkpt>
      <trkpt lat="43.34454" lon="2.62702">
        <ele>289.28399658203</ele>
        <time>2017-07-28T06:41:17Z</time>
      </trkpt>
      <trkpt lat="43.34459" lon="2.62705">
        <ele>290.28399658203</ele>
        <time>2017-07-28T06:41:20Z</time>
      </trkpt>
      <trkpt lat="43.34465" lon="2.62708">
        <ele>290.28399658203</ele>
        <time>2017-07-28T06:41:24Z</time>
      </trkpt>
      <trkpt lat="43.34469" lon="2.62712">
        <ele>290.28399658203</ele>
        <time>2017-07-28T06:41:26Z</time>
      </trkpt>
      <trkpt lat="43.34473" lon="2.62716">
        <ele>290.28399658203</ele>
        <time>2017-07-28T06:41:29Z</time>
      </trkpt>
      <trkpt lat="43.34477" lon="2.62721">
        <ele>290.28399658203</ele>
        <time>2017-07-28T06:41:31Z</time>
      </trkpt>
      <trkpt lat="43.34483" lon="2.62727">
        <ele>292.28399658203</ele>
        <time>2017-07-28T06:41:34Z</time>
      </trkpt>
      <trkpt lat="43.34487" lon="2.62733">
        <ele>294.28399658203</ele>
        <time>2017-07-28T06:41:37Z</time>
      </trkpt>
      <trkpt lat="43.34491" lon="2.62739">
        <ele>297.28399658203</ele>
        <time>2017-07-28T06:41:40Z</time>
      </trkpt>
      <trkpt lat="43.34493" lon="2.62747">
        <ele>297.28399658203</ele>
        <time>2017-07-28T06:41:43Z</time>
      </trkpt>
      <trkpt lat="43.34494" lon="2.62754">
        <ele>294.28399658203</ele>
        <time>2017-07-28T06:41:46Z</time>
      </trkpt>
      <trkpt lat="43.34495" lon="2.62762">
        <ele>296.28399658203</ele>
        <time>2017-07-28T06:41:49Z</time>
      </trkpt>
      <trkpt lat="43.34498" lon="2.62769">
        <ele>296.28399658203</ele>
        <time>2017-07-28T06:41:52Z</time>
      </trkpt>
      <trkpt lat="43.34501" lon="2.62774">
        <ele>297.28399658203</ele>
        <time>2017-07-28T06:41:54Z</time>
      </trkpt>
      <trkpt lat="43.34505" lon="2.62781">
        <ele>297.28399658203</ele>
        <time>2017-07-28T06:41:57Z</time>
      </trkpt>
      <trkpt lat="43.34508" lon="2.62785">
        <ele>298.28399658203</ele>
        <time>2017-07-28T06:41:59Z</time>
      </trkpt>
      <trkpt lat="43.34513" lon="2.62789">
        <ele>298.28399658203</ele>
        <time>2017-07-28T06:42:01Z</time>
      </trkpt>
      <trkpt lat="43.34517" lon="2.62794">
        <ele>298.28399658203</ele>
        <time>2017-07-28T06:42:04Z</time>
      </trkpt>
      <trkpt lat="43.34521" lon="2.62798">
        <ele>297.28399658203</ele>
        <time>2017-07-28T06:42:06Z</time>
      </trkpt>
      <trkpt lat="43.34525" lon="2.62803">
        <ele>298.28399658203</ele>
        <time>2017-07-28T06:42:09Z</time>
      </trkpt>
      <trkpt lat="43.34531" lon="2.62808">
        <ele>297.28399658203</ele>
        <time>2017-07-28T06:42:12Z</time>
      </trkpt>
      <trkpt lat="43.34535" lon="2.62813">
        <ele>297.28399658203</ele>
        <time>2017-07-28T06:42:15Z</time>
      </trkpt>
      <trkpt lat="43.34539" lon="2.62816">
        <ele>298.28399658203</ele>
        <time>2017-07-28T06:42:17Z</time>
      </trkpt>
      <trkpt lat="43.34545" lon="2.62819">
        <ele>301.28399658203</ele>
        <time>2017-07-28T06:42:20Z</time>
      </trkpt>
      <trkpt lat="43.34551" lon="2.62821">
        <ele>304.28399658203</ele>
        <time>2017-07-28T06:42:23Z</time>
      </trkpt>
      <trkpt lat="43.34557" lon="2.62821">
        <ele>303.28399658203</ele>
        <time>2017-07-28T06:42:26Z</time>
      </trkpt>
      <trkpt lat="43.34564" lon="2.62821">
        <ele>302.28399658203</ele>
        <time>2017-07-28T06:42:29Z</time>
      </trkpt>
      <trkpt lat="43.34569" lon="2.62821">
        <ele>303.28399658203</ele>
        <time>2017-07-28T06:42:32Z</time>
      </trkpt>
      <trkpt lat="43.34575" lon="2.6282">
        <ele>303.28399658203</ele>
        <time>2017-07-28T06:42:35Z</time>
      </trkpt>
      <trkpt lat="43.34581" lon="2.62819">
        <ele>304.28500366211</ele>
        <time>2017-07-28T06:42:38Z</time>
      </trkpt>
      <trkpt lat="43.34587" lon="2.62817">
        <ele>305.28500366211</ele>
        <time>2017-07-28T06:42:41Z</time>
      </trkpt>
      <trkpt lat="43.34593" lon="2.62816">
        <ele>305.28500366211</ele>
        <time>2017-07-28T06:42:44Z</time>
      </trkpt>
      <trkpt lat="43.34599" lon="2.62815">
        <ele>306.28500366211</ele>
        <time>2017-07-28T06:42:47Z</time>
      </trkpt>
      <trkpt lat="43.34604" lon="2.62813">
        <ele>306.28500366211</ele>
        <time>2017-07-28T06:42:49Z</time>
      </trkpt>
      <trkpt lat="43.3461" lon="2.62812">
        <ele>306.28500366211</ele>
        <time>2017-07-28T06:42:52Z</time>
      </trkpt>
      <trkpt lat="43.34616" lon="2.62812">
        <ele>308.28500366211</ele>
        <time>2017-07-28T06:42:56Z</time>
      </trkpt>
      <trkpt lat="43.34621" lon="2.62811">
        <ele>308.28500366211</ele>
        <time>2017-07-28T06:42:59Z</time>
      </trkpt>
      <trkpt lat="43.34627" lon="2.62811">
        <ele>309.28500366211</ele>
        <time>2017-07-28T06:43:02Z</time>
      </trkpt>
      <trkpt lat="43.34632" lon="2.62812">
        <ele>309.28500366211</ele>
        <time>2017-07-28T06:43:04Z</time>
      </trkpt>
      <trkpt lat="43.34638" lon="2.6281">
        <ele>310.28500366211</ele>
        <time>2017-07-28T06:43:07Z</time>
      </trkpt>
      <trkpt lat="43.34643" lon="2.62811">
        <ele>308.28500366211</ele>
        <time>2017-07-28T06:43:10Z</time>
      </trkpt>
      <trkpt lat="43.34648" lon="2.6281">
        <ele>307.28500366211</ele>
        <time>2017-07-28T06:43:13Z</time>
      </trkpt>
      <trkpt lat="43.34653" lon="2.6281">
        <ele>308.28500366211</ele>
        <time>2017-07-28T06:43:16Z</time>
      </trkpt>
      <trkpt lat="43.3466" lon="2.6281">
        <ele>308.28500366211</ele>
        <time>2017-07-28T06:43:19Z</time>
      </trkpt>
      <trkpt lat="43.34665" lon="2.62811">
        <ele>309.28500366211</ele>
        <time>2017-07-28T06:43:21Z</time>
      </trkpt>
      <trkpt lat="43.34669" lon="2.62811">
        <ele>309.28500366211</ele>
        <time>2017-07-28T06:43:24Z</time>
      </trkpt>
      <trkpt lat="43.34674" lon="2.62808">
        <ele>310.28500366211</ele>
        <time>2017-07-28T06:43:27Z</time>
      </trkpt>
      <trkpt lat="43.3468" lon="2.62803">
        <ele>310.28500366211</ele>
        <time>2017-07-28T06:43:30Z</time>
      </trkpt>
      <trkpt lat="43.34686" lon="2.62804">
        <ele>312.28500366211</ele>
        <time>2017-07-28T06:43:33Z</time>
      </trkpt>
      <trkpt lat="43.34692" lon="2.62805">
        <ele>313.28500366211</ele>
        <time>2017-07-28T06:43:36Z</time>
      </trkpt>
      <trkpt lat="43.34697" lon="2.62806">
        <ele>314.28500366211</ele>
        <time>2017-07-28T06:43:39Z</time>
      </trkpt>
      <trkpt lat="43.34703" lon="2.62807">
        <ele>314.28500366211</ele>
        <time>2017-07-28T06:43:42Z</time>
      </trkpt>
      <trkpt lat="43.34709" lon="2.6281">
        <ele>313.28500366211</ele>
        <time>2017-07-28T06:43:46Z</time>
      </trkpt>
      <trkpt lat="43.34714" lon="2.62814">
        <ele>312.28500366211</ele>
        <time>2017-07-28T06:43:49Z</time>
      </trkpt>
      <trkpt lat="43.34719" lon="2.62817">
        <ele>313.28500366211</ele>
        <time>2017-07-28T06:43:52Z</time>
      </trkpt>
      <trkpt lat="43.34725" lon="2.62817">
        <ele>314.28500366211</ele>
        <time>2017-07-28T06:43:55Z</time>
      </trkpt>
      <trkpt lat="43.34732" lon="2.6282">
        <ele>316.28500366211</ele>
        <time>2017-07-28T06:43:58Z</time>
      </trkpt>
      <trkpt lat="43.34737" lon="2.62821">
        <ele>317.28500366211</ele>
        <time>2017-07-28T06:44:00Z</time>
      </trkpt>
      <trkpt lat="43.34742" lon="2.62822">
        <ele>317.28500366211</ele>
        <time>2017-07-28T06:44:02Z</time>
      </trkpt>
      <trkpt lat="43.34749" lon="2.62825">
        <ele>318.28500366211</ele>
        <time>2017-07-28T06:44:05Z</time>
      </trkpt>
      <trkpt lat="43.34755" lon="2.62828">
        <ele>320.28500366211</ele>
        <time>2017-07-28T06:44:08Z</time>
      </trkpt>
      <trkpt lat="43.34761" lon="2.6283">
        <ele>320.28500366211</ele>
        <time>2017-07-28T06:44:11Z</time>
      </trkpt>
      <trkpt lat="43.34765" lon="2.62833">
        <ele>320.28500366211</ele>
        <time>2017-07-28T06:44:14Z</time>
      </trkpt>
      <trkpt lat="43.34772" lon="2.62837">
        <ele>322.28500366211</ele>
        <time>2017-07-28T06:44:17Z</time>
      </trkpt>
      <trkpt lat="43.34777" lon="2.6284">
        <ele>322.28500366211</ele>
        <time>2017-07-28T06:44:20Z</time>
      </trkpt>
      <trkpt lat="43.34782" lon="2.62844">
        <ele>324.28500366211</ele>
        <time>2017-07-28T06:44:23Z</time>
      </trkpt>
      <trkpt lat="43.34787" lon="2.62845">
        <ele>325.28500366211</ele>
        <time>2017-07-28T06:44:26Z</time>
      </trkpt>
      <trkpt lat="43.34792" lon="2.62847">
        <ele>325.28500366211</ele>
        <time>2017-07-28T06:44:29Z</time>
      </trkpt>
      <trkpt lat="43.34798" lon="2.62849">
        <ele>325.28500366211</ele>
        <time>2017-07-28T06:44:32Z</time>
      </trkpt>
      <trkpt lat="43.34804" lon="2.62852">
        <ele>326.28500366211</ele>
        <time>2017-07-28T06:44:35Z</time>
      </trkpt>
      <trkpt lat="43.34808" lon="2.62854">
        <ele>326.28500366211</ele>
        <time>2017-07-28T06:44:37Z</time>
      </trkpt>
      <trkpt lat="43.34813" lon="2.62855">
        <ele>325.28500366211</ele>
        <time>2017-07-28T06:44:39Z</time>
      </trkpt>
      <trkpt lat="43.34817" lon="2.62855">
        <ele>325.28500366211</ele>
        <time>2017-07-28T06:44:42Z</time>
      </trkpt>
      <trkpt lat="43.34823" lon="2.62858">
        <ele>326.28500366211</ele>
        <time>2017-07-28T06:44:45Z</time>
      </trkpt>
      <trkpt lat="43.34829" lon="2.62861">
        <ele>327.28601074219</ele>
        <time>2017-07-28T06:44:49Z</time>
      </trkpt>
      <trkpt lat="43.34834" lon="2.62862">
        <ele>328.28601074219</ele>
        <time>2017-07-28T06:44:52Z</time>
      </trkpt>
      <trkpt lat="43.3484" lon="2.62864">
        <ele>326.28601074219</ele>
        <time>2017-07-28T06:44:56Z</time>
      </trkpt>
      <trkpt lat="43.34845" lon="2.62866">
        <ele>327.28601074219</ele>
        <time>2017-07-28T06:44:59Z</time>
      </trkpt>
      <trkpt lat="43.34852" lon="2.62867">
        <ele>327.28601074219</ele>
        <time>2017-07-28T06:45:02Z</time>
      </trkpt>
      <trkpt lat="43.34858" lon="2.62869">
        <ele>331.28601074219</ele>
        <time>2017-07-28T06:45:05Z</time>
      </trkpt>
      <trkpt lat="43.34864" lon="2.62872">
        <ele>332.28601074219</ele>
        <time>2017-07-28T06:45:08Z</time>
      </trkpt>
      <trkpt lat="43.34868" lon="2.62874">
        <ele>333.28601074219</ele>
        <time>2017-07-28T06:45:10Z</time>
      </trkpt>
      <trkpt lat="43.34874" lon="2.62875">
        <ele>334.28601074219</ele>
        <time>2017-07-28T06:45:13Z</time>
      </trkpt>
      <trkpt lat="43.34879" lon="2.62877">
        <ele>334.28601074219</ele>
        <time>2017-07-28T06:45:16Z</time>
      </trkpt>
      <trkpt lat="43.34884" lon="2.62879">
        <ele>334.28601074219</ele>
        <time>2017-07-28T06:45:19Z</time>
      </trkpt>
      <trkpt lat="43.34888" lon="2.62881">
        <ele>336.28601074219</ele>
        <time>2017-07-28T06:45:21Z</time>
      </trkpt>
      <trkpt lat="43.34894" lon="2.62881">
        <ele>336.28601074219</ele>
        <time>2017-07-28T06:45:24Z</time>
      </trkpt>
      <trkpt lat="43.34899" lon="2.62883">
        <ele>336.28601074219</ele>
        <time>2017-07-28T06:45:27Z</time>
      </trkpt>
      <trkpt lat="43.34905" lon="2.62885">
        <ele>337.28601074219</ele>
        <time>2017-07-28T06:45:30Z</time>
      </trkpt>
      <trkpt lat="43.34911" lon="2.62886">
        <ele>338.28601074219</ele>
        <time>2017-07-28T06:45:33Z</time>
      </trkpt>
      <trkpt lat="43.34915" lon="2.62889">
        <ele>341.28601074219</ele>
        <time>2017-07-28T06:46:02Z</time>
      </trkpt>
      <trkpt lat="43.3492" lon="2.62889">
        <ele>341.28601074219</ele>
        <time>2017-07-28T06:46:07Z</time>
      </trkpt>
      <trkpt lat="43.34925" lon="2.62889">
        <ele>340.28601074219</ele>
        <time>2017-07-28T06:46:11Z</time>
      </trkpt>
      <trkpt lat="43.3493" lon="2.62891">
        <ele>340.28601074219</ele>
        <time>2017-07-28T06:46:16Z</time>
      </trkpt>
      <trkpt lat="43.34935" lon="2.62892">
        <ele>340.28601074219</ele>
        <time>2017-07-28T06:46:21Z</time>
      </trkpt>
      <trkpt lat="43.34941" lon="2.62893">
        <ele>341.28601074219</ele>
        <time>2017-07-28T06:46:25Z</time>
      </trkpt>
      <trkpt lat="43.34946" lon="2.62896">
        <ele>341.28601074219</ele>
        <time>2017-07-28T06:46:30Z</time>
      </trkpt>
      <trkpt lat="43.34951" lon="2.62897">
        <ele>341.28601074219</ele>
        <time>2017-07-28T06:46:34Z</time>
      </trkpt>
      <trkpt lat="43.34956" lon="2.629">
        <ele>343.28601074219</ele>
        <time>2017-07-28T06:46:38Z</time>
      </trkpt>
      <trkpt lat="43.34961" lon="2.62901">
        <ele>342.28601074219</ele>
        <time>2017-07-28T06:46:43Z</time>
      </trkpt>
      <trkpt lat="43.34966" lon="2.62904">
        <ele>342.28601074219</ele>
        <time>2017-07-28T06:46:46Z</time>
      </trkpt>
      <trkpt lat="43.34971" lon="2.62906">
        <ele>342.28601074219</ele>
        <time>2017-07-28T06:46:49Z</time>
      </trkpt>
      <trkpt lat="43.34976" lon="2.62908">
        <ele>342.28601074219</ele>
        <time>2017-07-28T06:46:54Z</time>
      </trkpt>
      <trkpt lat="43.34982" lon="2.62911">
        <ele>343.28601074219</ele>
        <time>2017-07-28T06:46:58Z</time>
      </trkpt>
      <trkpt lat="43.34987" lon="2.62913">
        <ele>344.28601074219</ele>
        <time>2017-07-28T06:47:01Z</time>
      </trkpt>
      <trkpt lat="43.34992" lon="2.62916">
        <ele>345.28601074219</ele>
        <time>2017-07-28T06:47:05Z</time>
      </trkpt>
      <trkpt lat="43.34997" lon="2.6292">
        <ele>346.28601074219</ele>
        <time>2017-07-28T06:47:09Z</time>
      </trkpt>
      <trkpt lat="43.35001" lon="2.62924">
        <ele>345.28601074219</ele>
        <time>2017-07-28T06:47:13Z</time>
      </trkpt>
      <trkpt lat="43.35005" lon="2.62928">
        <ele>348.28601074219</ele>
        <time>2017-07-28T06:47:17Z</time>
      </trkpt>
      <trkpt lat="43.35011" lon="2.6293">
        <ele>347.28601074219</ele>
        <time>2017-07-28T06:47:20Z</time>
      </trkpt>
      <trkpt lat="43.35017" lon="2.62935">
        <ele>346.28601074219</ele>
        <time>2017-07-28T06:47:24Z</time>
      </trkpt>
      <trkpt lat="43.3502" lon="2.6294">
        <ele>345.28601074219</ele>
        <time>2017-07-28T06:47:26Z</time>
      </trkpt>
      <trkpt lat="43.35022" lon="2.62948">
        <ele>344.28601074219</ele>
        <time>2017-07-28T06:47:28Z</time>
      </trkpt>
      <trkpt lat="43.35025" lon="2.62955">
        <ele>343.28601074219</ele>
        <time>2017-07-28T06:47:30Z</time>
      </trkpt>
      <trkpt lat="43.35027" lon="2.62962">
        <ele>343.28601074219</ele>
        <time>2017-07-28T06:47:32Z</time>
      </trkpt>
      <trkpt lat="43.3503" lon="2.62967">
        <ele>343.28698730469</ele>
        <time>2017-07-28T06:47:34Z</time>
      </trkpt>
      <trkpt lat="43.35033" lon="2.62973">
        <ele>343.28698730469</ele>
        <time>2017-07-28T06:47:37Z</time>
      </trkpt>
      <trkpt lat="43.35035" lon="2.62978">
        <ele>344.28698730469</ele>
        <time>2017-07-28T06:47:39Z</time>
      </trkpt>
      <trkpt lat="43.35038" lon="2.62983">
        <ele>346.28698730469</ele>
        <time>2017-07-28T06:47:41Z</time>
      </trkpt>
      <trkpt lat="43.35043" lon="2.6299">
        <ele>347.28698730469</ele>
        <time>2017-07-28T06:47:44Z</time>
      </trkpt>
      <trkpt lat="43.35047" lon="2.62994">
        <ele>346.28698730469</ele>
        <time>2017-07-28T06:47:46Z</time>
      </trkpt>
      <trkpt lat="43.35052" lon="2.63001">
        <ele>344.28698730469</ele>
        <time>2017-07-28T06:47:49Z</time>
      </trkpt>
      <trkpt lat="43.35056" lon="2.63005">
        <ele>344.28698730469</ele>
        <time>2017-07-28T06:47:51Z</time>
      </trkpt>
      <trkpt lat="43.3506" lon="2.63011">
        <ele>343.28698730469</ele>
        <time>2017-07-28T06:47:54Z</time>
      </trkpt>
      <trkpt lat="43.35064" lon="2.63016">
        <ele>342.28698730469</ele>
        <time>2017-07-28T06:47:56Z</time>
      </trkpt>
      <trkpt lat="43.35068" lon="2.63021">
        <ele>342.28698730469</ele>
        <time>2017-07-28T06:47:59Z</time>
      </trkpt>
      <trkpt lat="43.35073" lon="2.63023">
        <ele>342.28698730469</ele>
        <time>2017-07-28T06:48:02Z</time>
      </trkpt>
      <trkpt lat="43.35077" lon="2.63029">
        <ele>345.28698730469</ele>
        <time>2017-07-28T06:48:06Z</time>
      </trkpt>
      <trkpt lat="43.35081" lon="2.63034">
        <ele>346.28698730469</ele>
        <time>2017-07-28T06:48:09Z</time>
      </trkpt>
      <trkpt lat="43.35085" lon="2.63039">
        <ele>346.28698730469</ele>
        <time>2017-07-28T06:48:12Z</time>
      </trkpt>
      <trkpt lat="43.35089" lon="2.63043">
        <ele>346.28698730469</ele>
        <time>2017-07-28T06:48:15Z</time>
      </trkpt>
      <trkpt lat="43.35095" lon="2.63048">
        <ele>347.28698730469</ele>
        <time>2017-07-28T06:48:19Z</time>
      </trkpt>
      <trkpt lat="43.35099" lon="2.63052">
        <ele>349.28698730469</ele>
        <time>2017-07-28T06:48:22Z</time>
      </trkpt>
      <trkpt lat="43.35104" lon="2.63055">
        <ele>348.28698730469</ele>
        <time>2017-07-28T06:48:25Z</time>
      </trkpt>
      <trkpt lat="43.3511" lon="2.63058">
        <ele>350.28698730469</ele>
        <time>2017-07-28T06:48:28Z</time>
      </trkpt>
      <trkpt lat="43.35114" lon="2.63062">
        <ele>351.28698730469</ele>
        <time>2017-07-28T06:48:31Z</time>
      </trkpt>
      <trkpt lat="43.35118" lon="2.63065">
        <ele>352.28698730469</ele>
        <time>2017-07-28T06:48:35Z</time>
      </trkpt>
      <trkpt lat="43.35122" lon="2.63068">
        <ele>352.28698730469</ele>
        <time>2017-07-28T06:48:39Z</time>
      </trkpt>
      <trkpt lat="43.35127" lon="2.6307">
        <ele>353.28698730469</ele>
        <time>2017-07-28T06:48:43Z</time>
      </trkpt>
      <trkpt lat="43.35131" lon="2.63073">
        <ele>353.28698730469</ele>
        <time>2017-07-28T06:48:47Z</time>
      </trkpt>
      <trkpt lat="43.35136" lon="2.63076">
        <ele>353.28698730469</ele>
        <time>2017-07-28T06:48:51Z</time>
      </trkpt>
      <trkpt lat="43.35141" lon="2.63079">
        <ele>353.28698730469</ele>
        <time>2017-07-28T06:48:55Z</time>
      </trkpt>
      <trkpt lat="43.35146" lon="2.63082">
        <ele>354.28698730469</ele>
        <time>2017-07-28T06:48:59Z</time>
      </trkpt>
      <trkpt lat="43.3515" lon="2.63085">
        <ele>353.28698730469</ele>
        <time>2017-07-28T06:49:03Z</time>
      </trkpt>
      <trkpt lat="43.35155" lon="2.6309">
        <ele>354.28698730469</ele>
        <time>2017-07-28T06:49:07Z</time>
      </trkpt>
      <trkpt lat="43.35158" lon="2.63095">
        <ele>354.28698730469</ele>
        <time>2017-07-28T06:49:12Z</time>
      </trkpt>
      <trkpt lat="43.35162" lon="2.63099">
        <ele>355.28698730469</ele>
        <time>2017-07-28T06:49:16Z</time>
      </trkpt>
      <trkpt lat="43.35167" lon="2.63102">
        <ele>358.28698730469</ele>
        <time>2017-07-28T06:49:20Z</time>
      </trkpt>
      <trkpt lat="43.35171" lon="2.63108">
        <ele>358.28698730469</ele>
        <time>2017-07-28T06:49:24Z</time>
      </trkpt>
      <trkpt lat="43.35175" lon="2.63113">
        <ele>358.28698730469</ele>
        <time>2017-07-28T06:49:29Z</time>
      </trkpt>
      <trkpt lat="43.3518" lon="2.63117">
        <ele>359.28698730469</ele>
        <time>2017-07-28T06:49:33Z</time>
      </trkpt>
      <trkpt lat="43.35183" lon="2.63122">
        <ele>358.28698730469</ele>
        <time>2017-07-28T06:49:37Z</time>
      </trkpt>
      <trkpt lat="43.35188" lon="2.63126">
        <ele>359.28698730469</ele>
        <time>2017-07-28T06:49:41Z</time>
      </trkpt>
      <trkpt lat="43.35192" lon="2.63131">
        <ele>358.28698730469</ele>
        <time>2017-07-28T06:49:45Z</time>
      </trkpt>
      <trkpt lat="43.35197" lon="2.63133">
        <ele>358.28799438477</ele>
        <time>2017-07-28T06:49:49Z</time>
      </trkpt>
      <trkpt lat="43.35201" lon="2.63138">
        <ele>356.28799438477</ele>
        <time>2017-07-28T06:49:54Z</time>
      </trkpt>
      <trkpt lat="43.35206" lon="2.63142">
        <ele>357.28799438477</ele>
        <time>2017-07-28T06:49:59Z</time>
      </trkpt>
      <trkpt lat="43.35208" lon="2.63148">
        <ele>358.28799438477</ele>
        <time>2017-07-28T06:50:02Z</time>
      </trkpt>
      <trkpt lat="43.35213" lon="2.63154">
        <ele>359.28799438477</ele>
        <time>2017-07-28T06:50:05Z</time>
      </trkpt>
      <trkpt lat="43.35216" lon="2.63159">
        <ele>361.28799438477</ele>
        <time>2017-07-28T06:50:08Z</time>
      </trkpt>
      <trkpt lat="43.3522" lon="2.63163">
        <ele>361.28799438477</ele>
        <time>2017-07-28T06:50:12Z</time>
      </trkpt>
      <trkpt lat="43.35222" lon="2.63169">
        <ele>362.28799438477</ele>
        <time>2017-07-28T06:50:15Z</time>
      </trkpt>
      <trkpt lat="43.35226" lon="2.63173">
        <ele>363.28799438477</ele>
        <time>2017-07-28T06:50:18Z</time>
      </trkpt>
      <trkpt lat="43.35229" lon="2.63179">
        <ele>363.28799438477</ele>
        <time>2017-07-28T06:50:23Z</time>
      </trkpt>
      <trkpt lat="43.35233" lon="2.63184">
        <ele>364.28799438477</ele>
        <time>2017-07-28T06:50:27Z</time>
      </trkpt>
      <trkpt lat="43.35238" lon="2.63189">
        <ele>363.28799438477</ele>
        <time>2017-07-28T06:50:32Z</time>
      </trkpt>
      <trkpt lat="43.35241" lon="2.63195">
        <ele>363.28799438477</ele>
        <time>2017-07-28T06:50:36Z</time>
      </trkpt>
      <trkpt lat="43.35244" lon="2.632">
        <ele>364.28799438477</ele>
        <time>2017-07-28T06:50:39Z</time>
      </trkpt>
      <trkpt lat="43.35246" lon="2.63207">
        <ele>364.28799438477</ele>
        <time>2017-07-28T06:50:43Z</time>
      </trkpt>
      <trkpt lat="43.35248" lon="2.63213">
        <ele>365.28799438477</ele>
        <time>2017-07-28T06:50:47Z</time>
      </trkpt>
      <trkpt lat="43.35251" lon="2.6322">
        <ele>365.28799438477</ele>
        <time>2017-07-28T06:50:51Z</time>
      </trkpt>
      <trkpt lat="43.35254" lon="2.63225">
        <ele>365.28799438477</ele>
        <time>2017-07-28T06:50:55Z</time>
      </trkpt>
      <trkpt lat="43.35258" lon="2.6323">
        <ele>366.28799438477</ele>
        <time>2017-07-28T06:50:59Z</time>
      </trkpt>
      <trkpt lat="43.35262" lon="2.63235">
        <ele>365.28799438477</ele>
        <time>2017-07-28T06:51:03Z</time>
      </trkpt>
      <trkpt lat="43.35266" lon="2.63239">
        <ele>365.28799438477</ele>
        <time>2017-07-28T06:51:07Z</time>
      </trkpt>
      <trkpt lat="43.35269" lon="2.63243">
        <ele>366.28799438477</ele>
        <time>2017-07-28T06:51:10Z</time>
      </trkpt>
      <trkpt lat="43.35274" lon="2.63247">
        <ele>368.28799438477</ele>
        <time>2017-07-28T06:51:13Z</time>
      </trkpt>
      <trkpt lat="43.35279" lon="2.63251">
        <ele>369.28799438477</ele>
        <time>2017-07-28T06:51:17Z</time>
      </trkpt>
      <trkpt lat="43.35283" lon="2.63255">
        <ele>370.28799438477</ele>
        <time>2017-07-28T06:51:23Z</time>
      </trkpt>
      <trkpt lat="43.35287" lon="2.63257">
        <ele>372.28799438477</ele>
        <time>2017-07-28T06:51:27Z</time>
      </trkpt>
      <trkpt lat="43.35293" lon="2.63262">
        <ele>372.28799438477</ele>
        <time>2017-07-28T06:51:32Z</time>
      </trkpt>
      <trkpt lat="43.35298" lon="2.63263">
        <ele>372.28799438477</ele>
        <time>2017-07-28T06:51:36Z</time>
      </trkpt>
      <trkpt lat="43.35302" lon="2.63266">
        <ele>372.28799438477</ele>
        <time>2017-07-28T06:51:41Z</time>
      </trkpt>
      <trkpt lat="43.35307" lon="2.6327">
        <ele>374.28799438477</ele>
        <time>2017-07-28T06:51:45Z</time>
      </trkpt>
      <trkpt lat="43.35314" lon="2.63271">
        <ele>373.28799438477</ele>
        <time>2017-07-28T06:51:48Z</time>
      </trkpt>
      <trkpt lat="43.35319" lon="2.63273">
        <ele>374.28799438477</ele>
        <time>2017-07-28T06:51:51Z</time>
      </trkpt>
      <trkpt lat="43.35323" lon="2.63272">
        <ele>375.28799438477</ele>
        <time>2017-07-28T06:51:55Z</time>
      </trkpt>
      <trkpt lat="43.35329" lon="2.63272">
        <ele>376.28799438477</ele>
        <time>2017-07-28T06:51:59Z</time>
      </trkpt>
      <trkpt lat="43.35334" lon="2.63271">
        <ele>376.28799438477</ele>
        <time>2017-07-28T06:52:02Z</time>
      </trkpt>
      <trkpt lat="43.3534" lon="2.6327">
        <ele>377.28799438477</ele>
        <time>2017-07-28T06:52:06Z</time>
      </trkpt>
      <trkpt lat="43.35345" lon="2.63268">
        <ele>377.28799438477</ele>
        <time>2017-07-28T06:52:11Z</time>
      </trkpt>
      <trkpt lat="43.3535" lon="2.63267">
        <ele>377.28799438477</ele>
        <time>2017-07-28T06:52:15Z</time>
      </trkpt>
      <trkpt lat="43.35355" lon="2.63268">
        <ele>378.28799438477</ele>
        <time>2017-07-28T06:52:19Z</time>
      </trkpt>
      <trkpt lat="43.35361" lon="2.6327">
        <ele>377.28799438477</ele>
        <time>2017-07-28T06:52:24Z</time>
      </trkpt>
      <trkpt lat="43.35365" lon="2.63272">
        <ele>378.28799438477</ele>
        <time>2017-07-28T06:52:28Z</time>
      </trkpt>
      <trkpt lat="43.3537" lon="2.63274">
        <ele>378.28799438477</ele>
        <time>2017-07-28T06:52:31Z</time>
      </trkpt>
      <trkpt lat="43.35376" lon="2.63276">
        <ele>379.28900146484</ele>
        <time>2017-07-28T06:52:35Z</time>
      </trkpt>
      <trkpt lat="43.3538" lon="2.63279">
        <ele>380.28900146484</ele>
        <time>2017-07-28T06:52:38Z</time>
      </trkpt>
      <trkpt lat="43.35385" lon="2.63281">
        <ele>381.28900146484</ele>
        <time>2017-07-28T06:52:42Z</time>
      </trkpt>
      <trkpt lat="43.35388" lon="2.63285">
        <ele>382.28900146484</ele>
        <time>2017-07-28T06:52:46Z</time>
      </trkpt>
      <trkpt lat="43.35392" lon="2.63287">
        <ele>383.28900146484</ele>
        <time>2017-07-28T06:52:50Z</time>
      </trkpt>
      <trkpt lat="43.35397" lon="2.6329">
        <ele>383.28900146484</ele>
        <time>2017-07-28T06:52:54Z</time>
      </trkpt>
      <trkpt lat="43.35402" lon="2.63294">
        <ele>383.28900146484</ele>
        <time>2017-07-28T06:52:59Z</time>
      </trkpt>
      <trkpt lat="43.35407" lon="2.63296">
        <ele>384.28900146484</ele>
        <time>2017-07-28T06:53:02Z</time>
      </trkpt>
      <trkpt lat="43.35412" lon="2.633">
        <ele>384.28900146484</ele>
        <time>2017-07-28T06:53:08Z</time>
      </trkpt>
      <trkpt lat="43.35416" lon="2.63304">
        <ele>384.28900146484</ele>
        <time>2017-07-28T06:53:11Z</time>
      </trkpt>
      <trkpt lat="43.35419" lon="2.63309">
        <ele>385.28900146484</ele>
        <time>2017-07-28T06:53:15Z</time>
      </trkpt>
      <trkpt lat="43.35424" lon="2.63313">
        <ele>385.28900146484</ele>
        <time>2017-07-28T06:53:19Z</time>
      </trkpt>
      <trkpt lat="43.35428" lon="2.63315">
        <ele>386.28900146484</ele>
        <time>2017-07-28T06:53:22Z</time>
      </trkpt>
      <trkpt lat="43.35433" lon="2.63317">
        <ele>387.28900146484</ele>
        <time>2017-07-28T06:53:27Z</time>
      </trkpt>
      <trkpt lat="43.35438" lon="2.63318">
        <ele>388.28900146484</ele>
        <time>2017-07-28T06:53:30Z</time>
      </trkpt>
      <trkpt lat="43.35444" lon="2.6332">
        <ele>388.28900146484</ele>
        <time>2017-07-28T06:53:34Z</time>
      </trkpt>
      <trkpt lat="43.35449" lon="2.63321">
        <ele>388.28900146484</ele>
        <time>2017-07-28T06:53:38Z</time>
      </trkpt>
      <trkpt lat="43.35454" lon="2.63323">
        <ele>388.28900146484</ele>
        <time>2017-07-28T06:53:41Z</time>
      </trkpt>
      <trkpt lat="43.35458" lon="2.63326">
        <ele>389.28900146484</ele>
        <time>2017-07-28T06:53:44Z</time>
      </trkpt>
      <trkpt lat="43.35464" lon="2.63328">
        <ele>388.28900146484</ele>
        <time>2017-07-28T06:53:50Z</time>
      </trkpt>
      <trkpt lat="43.35467" lon="2.63332">
        <ele>388.28900146484</ele>
        <time>2017-07-28T06:53:54Z</time>
      </trkpt>
      <trkpt lat="43.35472" lon="2.63335">
        <ele>389.28900146484</ele>
        <time>2017-07-28T06:53:57Z</time>
      </trkpt>
      <trkpt lat="43.35476" lon="2.63339">
        <ele>392.28900146484</ele>
        <time>2017-07-28T06:54:01Z</time>
      </trkpt>
      <trkpt lat="43.35481" lon="2.63342">
        <ele>393.28900146484</ele>
        <time>2017-07-28T06:54:05Z</time>
      </trkpt>
      <trkpt lat="43.35486" lon="2.63344">
        <ele>394.28900146484</ele>
        <time>2017-07-28T06:54:09Z</time>
      </trkpt>
      <trkpt lat="43.35491" lon="2.63346">
        <ele>395.28900146484</ele>
        <time>2017-07-28T06:54:12Z</time>
      </trkpt>
      <trkpt lat="43.35495" lon="2.63348">
        <ele>394.28900146484</ele>
        <time>2017-07-28T06:54:16Z</time>
      </trkpt>
      <trkpt lat="43.35501" lon="2.63349">
        <ele>393.28900146484</ele>
        <time>2017-07-28T06:54:20Z</time>
      </trkpt>
      <trkpt lat="43.35505" lon="2.63349">
        <ele>394.28900146484</ele>
        <time>2017-07-28T06:54:23Z</time>
      </trkpt>
      <trkpt lat="43.3551" lon="2.63347">
        <ele>394.28900146484</ele>
        <time>2017-07-28T06:54:28Z</time>
      </trkpt>
      <trkpt lat="43.35516" lon="2.63345">
        <ele>394.28900146484</ele>
        <time>2017-07-28T06:54:32Z</time>
      </trkpt>
      <trkpt lat="43.35521" lon="2.63342">
        <ele>393.28900146484</ele>
        <time>2017-07-28T06:54:35Z</time>
      </trkpt>
      <trkpt lat="43.35525" lon="2.63339">
        <ele>394.28900146484</ele>
        <time>2017-07-28T06:54:37Z</time>
      </trkpt>
      <trkpt lat="43.3553" lon="2.63335">
        <ele>396.28900146484</ele>
        <time>2017-07-28T06:54:39Z</time>
      </trkpt>
      <trkpt lat="43.35536" lon="2.63331">
        <ele>396.28900146484</ele>
        <time>2017-07-28T06:54:41Z</time>
      </trkpt>
      <trkpt lat="43.3554" lon="2.63328">
        <ele>398.28900146484</ele>
        <time>2017-07-28T06:54:43Z</time>
      </trkpt>
      <trkpt lat="43.35545" lon="2.63323">
        <ele>396.28900146484</ele>
        <time>2017-07-28T06:54:45Z</time>
      </trkpt>
      <trkpt lat="43.35552" lon="2.63319">
        <ele>395.28900146484</ele>
        <time>2017-07-28T06:54:48Z</time>
      </trkpt>
      <trkpt lat="43.35556" lon="2.63314">
        <ele>396.28900146484</ele>
        <time>2017-07-28T06:54:50Z</time>
      </trkpt>
      <trkpt lat="43.3556" lon="2.63311">
        <ele>396.28900146484</ele>
        <time>2017-07-28T06:54:52Z</time>
      </trkpt>
      <trkpt lat="43.35564" lon="2.63305">
        <ele>396.28900146484</ele>
        <time>2017-07-28T06:54:54Z</time>
      </trkpt>
      <trkpt lat="43.35567" lon="2.63301">
        <ele>396.28900146484</ele>
        <time>2017-07-28T06:54:56Z</time>
      </trkpt>
      <trkpt lat="43.35571" lon="2.63296">
        <ele>396.28900146484</ele>
        <time>2017-07-28T06:54:58Z</time>
      </trkpt>
      <trkpt lat="43.35573" lon="2.6329">
        <ele>397.28900146484</ele>
        <time>2017-07-28T06:55:00Z</time>
      </trkpt>
      <trkpt lat="43.35576" lon="2.63284">
        <ele>397.28900146484</ele>
        <time>2017-07-28T06:55:02Z</time>
      </trkpt>
      <trkpt lat="43.3558" lon="2.63276">
        <ele>397.28900146484</ele>
        <time>2017-07-28T06:55:05Z</time>
      </trkpt>
      <trkpt lat="43.35582" lon="2.63271">
        <ele>397.28900146484</ele>
        <time>2017-07-28T06:55:07Z</time>
      </trkpt>
      <trkpt lat="43.35587" lon="2.63265">
        <ele>398.28900146484</ele>
        <time>2017-07-28T06:55:10Z</time>
      </trkpt>
      <trkpt lat="43.35591" lon="2.6326">
        <ele>397.28900146484</ele>
        <time>2017-07-28T06:55:12Z</time>
      </trkpt>
      <trkpt lat="43.35595" lon="2.63256">
        <ele>395.28900146484</ele>
        <time>2017-07-28T06:55:15Z</time>
      </trkpt>
      <trkpt lat="43.35598" lon="2.63251">
        <ele>395.28900146484</ele>
        <time>2017-07-28T06:55:17Z</time>
      </trkpt>
      <trkpt lat="43.35601" lon="2.63244">
        <ele>393.28900146484</ele>
        <time>2017-07-28T06:55:19Z</time>
      </trkpt>
      <trkpt lat="43.35604" lon="2.63239">
        <ele>394.28900146484</ele>
        <time>2017-07-28T06:55:21Z</time>
      </trkpt>
      <trkpt lat="43.35605" lon="2.6323">
        <ele>395.28900146484</ele>
        <time>2017-07-28T06:55:24Z</time>
      </trkpt>
      <trkpt lat="43.35605" lon="2.63222">
        <ele>396.28900146484</ele>
        <time>2017-07-28T06:55:27Z</time>
      </trkpt>
      <trkpt lat="43.35606" lon="2.63214">
        <ele>397.28900146484</ele>
        <time>2017-07-28T06:55:29Z</time>
      </trkpt>
      <trkpt lat="43.35608" lon="2.63209">
        <ele>397.28900146484</ele>
        <time>2017-07-28T06:55:31Z</time>
      </trkpt>
      <trkpt lat="43.35608" lon="2.63201">
        <ele>398.28900146484</ele>
        <time>2017-07-28T06:55:33Z</time>
      </trkpt>
      <trkpt lat="43.35608" lon="2.63193">
        <ele>399.28900146484</ele>
        <time>2017-07-28T06:55:35Z</time>
      </trkpt>
      <trkpt lat="43.3561" lon="2.63185">
        <ele>399.28900146484</ele>
        <time>2017-07-28T06:55:38Z</time>
      </trkpt>
      <trkpt lat="43.3561" lon="2.63177">
        <ele>400.28900146484</ele>
        <time>2017-07-28T06:55:41Z</time>
      </trkpt>
      <trkpt lat="43.35612" lon="2.6317">
        <ele>398.28900146484</ele>
        <time>2017-07-28T06:55:43Z</time>
      </trkpt>
      <trkpt lat="43.35613" lon="2.63163">
        <ele>400.28900146484</ele>
        <time>2017-07-28T06:55:45Z</time>
      </trkpt>
      <trkpt lat="43.35615" lon="2.63156">
        <ele>400.28900146484</ele>
        <time>2017-07-28T06:55:47Z</time>
      </trkpt>
      <trkpt lat="43.35616" lon="2.6315">
        <ele>400.28900146484</ele>
        <time>2017-07-28T06:55:49Z</time>
      </trkpt>
      <trkpt lat="43.35618" lon="2.63142">
        <ele>400.28900146484</ele>
        <time>2017-07-28T06:55:52Z</time>
      </trkpt>
      <trkpt lat="43.3562" lon="2.63134">
        <ele>401.28900146484</ele>
        <time>2017-07-28T06:55:54Z</time>
      </trkpt>
      <trkpt lat="43.35622" lon="2.63128">
        <ele>400.28900146484</ele>
        <time>2017-07-28T06:55:56Z</time>
      </trkpt>
      <trkpt lat="43.35625" lon="2.63121">
        <ele>398.28900146484</ele>
        <time>2017-07-28T06:55:59Z</time>
      </trkpt>
      <trkpt lat="43.35628" lon="2.63116">
        <ele>400.28900146484</ele>
        <time>2017-07-28T06:56:01Z</time>
      </trkpt>
      <trkpt lat="43.3563" lon="2.63107">
        <ele>402.28900146484</ele>
        <time>2017-07-28T06:56:04Z</time>
      </trkpt>
      <trkpt lat="43.35632" lon="2.63101">
        <ele>402.28900146484</ele>
        <time>2017-07-28T06:56:06Z</time>
      </trkpt>
      <trkpt lat="43.35634" lon="2.63094">
        <ele>400.28900146484</ele>
        <time>2017-07-28T06:56:08Z</time>
      </trkpt>
      <trkpt lat="43.35638" lon="2.63089">
        <ele>399.28900146484</ele>
        <time>2017-07-28T06:56:11Z</time>
      </trkpt>
      <trkpt lat="43.3564" lon="2.63082">
        <ele>400.28900146484</ele>
        <time>2017-07-28T06:56:14Z</time>
      </trkpt>
      <trkpt lat="43.35644" lon="2.63078">
        <ele>400.28900146484</ele>
        <time>2017-07-28T06:56:17Z</time>
      </trkpt>
      <trkpt lat="43.35648" lon="2.63072">
        <ele>399.28900146484</ele>
        <time>2017-07-28T06:56:20Z</time>
      </trkpt>
      <trkpt lat="43.35652" lon="2.63065">
        <ele>400.28900146484</ele>
        <time>2017-07-28T06:56:23Z</time>
      </trkpt>
      <trkpt lat="43.35656" lon="2.63058">
        <ele>400.28900146484</ele>
        <time>2017-07-28T06:56:26Z</time>
      </trkpt>
      <trkpt lat="43.35659" lon="2.63052">
        <ele>400.28900146484</ele>
        <time>2017-07-28T06:56:29Z</time>
      </trkpt>
      <trkpt lat="43.35663" lon="2.63045">
        <ele>401.28900146484</ele>
        <time>2017-07-28T06:56:32Z</time>
      </trkpt>
      <trkpt lat="43.35666" lon="2.63038">
        <ele>401.28900146484</ele>
        <time>2017-07-28T06:56:35Z</time>
      </trkpt>
      <trkpt lat="43.35669" lon="2.63031">
        <ele>403.28900146484</ele>
        <time>2017-07-28T06:56:38Z</time>
      </trkpt>
      <trkpt lat="43.35672" lon="2.63024">
        <ele>402.28900146484</ele>
        <time>2017-07-28T06:56:41Z</time>
      </trkpt>
      <trkpt lat="43.35676" lon="2.63017">
        <ele>403.28900146484</ele>
        <time>2017-07-28T06:56:44Z</time>
      </trkpt>
      <trkpt lat="43.35677" lon="2.63011">
        <ele>403.28900146484</ele>
        <time>2017-07-28T06:56:46Z</time>
      </trkpt>
      <trkpt lat="43.3568" lon="2.63004">
        <ele>403.28900146484</ele>
        <time>2017-07-28T06:56:49Z</time>
      </trkpt>
      <trkpt lat="43.35685" lon="2.62998">
        <ele>404.28900146484</ele>
        <time>2017-07-28T06:56:52Z</time>
      </trkpt>
      <trkpt lat="43.35688" lon="2.62994">
        <ele>403.28900146484</ele>
        <time>2017-07-28T06:56:55Z</time>
      </trkpt>
      <trkpt lat="43.35692" lon="2.62988">
        <ele>405.28900146484</ele>
        <time>2017-07-28T06:56:58Z</time>
      </trkpt>
      <trkpt lat="43.35696" lon="2.62981">
        <ele>405.28900146484</ele>
        <time>2017-07-28T06:57:01Z</time>
      </trkpt>
      <trkpt lat="43.35699" lon="2.62976">
        <ele>406.28900146484</ele>
        <time>2017-07-28T06:57:03Z</time>
      </trkpt>
      <trkpt lat="43.35703" lon="2.62971">
        <ele>407.28900146484</ele>
        <time>2017-07-28T06:57:06Z</time>
      </trkpt>
      <trkpt lat="43.35706" lon="2.62965">
        <ele>406.28900146484</ele>
        <time>2017-07-28T06:57:09Z</time>
      </trkpt>
      <trkpt lat="43.35709" lon="2.6296">
        <ele>407.28900146484</ele>
        <time>2017-07-28T06:57:12Z</time>
      </trkpt>
      <trkpt lat="43.35712" lon="2.62953">
        <ele>408.28900146484</ele>
        <time>2017-07-28T06:57:15Z</time>
      </trkpt>
      <trkpt lat="43.35715" lon="2.62946">
        <ele>407.28900146484</ele>
        <time>2017-07-28T06:57:18Z</time>
      </trkpt>
      <trkpt lat="43.35718" lon="2.6294">
        <ele>407.28900146484</ele>
        <time>2017-07-28T06:57:20Z</time>
      </trkpt>
      <trkpt lat="43.3572" lon="2.62935">
        <ele>408.28900146484</ele>
        <time>2017-07-28T06:57:22Z</time>
      </trkpt>
      <trkpt lat="43.35723" lon="2.62927">
        <ele>408.28900146484</ele>
        <time>2017-07-28T06:57:25Z</time>
      </trkpt>
      <trkpt lat="43.35725" lon="2.62922">
        <ele>408.28900146484</ele>
        <time>2017-07-28T06:57:27Z</time>
      </trkpt>
      <trkpt lat="43.35726" lon="2.62915">
        <ele>408.28900146484</ele>
        <time>2017-07-28T06:57:29Z</time>
      </trkpt>
      <trkpt lat="43.35728" lon="2.62908">
        <ele>408.28900146484</ele>
        <time>2017-07-28T06:57:31Z</time>
      </trkpt>
      <trkpt lat="43.3573" lon="2.62902">
        <ele>409.28900146484</ele>
        <time>2017-07-28T06:57:33Z</time>
      </trkpt>
      <trkpt lat="43.35733" lon="2.62895">
        <ele>409.28900146484</ele>
        <time>2017-07-28T06:57:36Z</time>
      </trkpt>
      <trkpt lat="43.35734" lon="2.62889">
        <ele>410.28900146484</ele>
        <time>2017-07-28T06:57:38Z</time>
      </trkpt>
      <trkpt lat="43.35737" lon="2.62881">
        <ele>411.28900146484</ele>
        <time>2017-07-28T06:57:41Z</time>
      </trkpt>
      <trkpt lat="43.3574" lon="2.62876">
        <ele>412.28900146484</ele>
        <time>2017-07-28T06:57:43Z</time>
      </trkpt>
      <trkpt lat="43.3574" lon="2.62869">
        <ele>412.28900146484</ele>
        <time>2017-07-28T06:57:45Z</time>
      </trkpt>
      <trkpt lat="43.35743" lon="2.62863">
        <ele>412.28900146484</ele>
        <time>2017-07-28T06:57:47Z</time>
      </trkpt>
      <trkpt lat="43.35744" lon="2.62856">
        <ele>412.28900146484</ele>
        <time>2017-07-28T06:57:50Z</time>
      </trkpt>
      <trkpt lat="43.35747" lon="2.6285">
        <ele>412.28900146484</ele>
        <time>2017-07-28T06:57:52Z</time>
      </trkpt>
      <trkpt lat="43.35748" lon="2.62842">
        <ele>413.28900146484</ele>
        <time>2017-07-28T06:57:54Z</time>
      </trkpt>
      <trkpt lat="43.35749" lon="2.62836">
        <ele>412.28900146484</ele>
        <time>2017-07-28T06:57:56Z</time>
      </trkpt>
      <trkpt lat="43.35753" lon="2.62831">
        <ele>410.28900146484</ele>
        <time>2017-07-28T06:57:58Z</time>
      </trkpt>
      <trkpt lat="43.35754" lon="2.62825">
        <ele>409.28900146484</ele>
        <time>2017-07-28T06:58:00Z</time>
      </trkpt>
      <trkpt lat="43.35756" lon="2.62819">
        <ele>410.28900146484</ele>
        <time>2017-07-28T06:58:02Z</time>
      </trkpt>
      <trkpt lat="43.35759" lon="2.62813">
        <ele>408.28900146484</ele>
        <time>2017-07-28T06:58:04Z</time>
      </trkpt>
      <trkpt lat="43.35761" lon="2.62808">
        <ele>410.28900146484</ele>
        <time>2017-07-28T06:58:06Z</time>
      </trkpt>
      <trkpt lat="43.35764" lon="2.62799">
        <ele>410.28900146484</ele>
        <time>2017-07-28T06:58:09Z</time>
      </trkpt>
      <trkpt lat="43.35766" lon="2.62792">
        <ele>412.28900146484</ele>
        <time>2017-07-28T06:58:11Z</time>
      </trkpt>
      <trkpt lat="43.35768" lon="2.62786">
        <ele>412.28900146484</ele>
        <time>2017-07-28T06:58:13Z</time>
      </trkpt>
      <trkpt lat="43.35769" lon="2.62777">
        <ele>410.28900146484</ele>
        <time>2017-07-28T06:58:16Z</time>
      </trkpt>
      <trkpt lat="43.35772" lon="2.62771">
        <ele>410.28900146484</ele>
        <time>2017-07-28T06:58:18Z</time>
      </trkpt>
      <trkpt lat="43.35774" lon="2.62765">
        <ele>410.28900146484</ele>
        <time>2017-07-28T06:58:21Z</time>
      </trkpt>
      <trkpt lat="43.35777" lon="2.62757">
        <ele>409.28900146484</ele>
        <time>2017-07-28T06:58:24Z</time>
      </trkpt>
      <trkpt lat="43.3578" lon="2.6275">
        <ele>408.28900146484</ele>
        <time>2017-07-28T06:58:27Z</time>
      </trkpt>
      <trkpt lat="43.35783" lon="2.62745">
        <ele>408.28900146484</ele>
        <time>2017-07-28T06:58:29Z</time>
      </trkpt>
      <trkpt lat="43.35785" lon="2.62738">
        <ele>410.28900146484</ele>
        <time>2017-07-28T06:58:31Z</time>
      </trkpt>
      <trkpt lat="43.35788" lon="2.62733">
        <ele>410.28900146484</ele>
        <time>2017-07-28T06:58:33Z</time>
      </trkpt>
      <trkpt lat="43.35791" lon="2.62727">
        <ele>411.28900146484</ele>
        <time>2017-07-28T06:58:36Z</time>
      </trkpt>
      <trkpt lat="43.35794" lon="2.62719">
        <ele>410.28900146484</ele>
        <time>2017-07-28T06:58:39Z</time>
      </trkpt>
      <trkpt lat="43.35798" lon="2.62716">
        <ele>410.28900146484</ele>
        <time>2017-07-28T06:58:41Z</time>
      </trkpt>
      <trkpt lat="43.358" lon="2.62707">
        <ele>409.28900146484</ele>
        <time>2017-07-28T06:58:43Z</time>
      </trkpt>
      <trkpt lat="43.35803" lon="2.62701">
        <ele>408.28900146484</ele>
        <time>2017-07-28T06:58:46Z</time>
      </trkpt>
      <trkpt lat="43.35806" lon="2.62694">
        <ele>408.28900146484</ele>
        <time>2017-07-28T06:58:49Z</time>
      </trkpt>
      <trkpt lat="43.3581" lon="2.62688">
        <ele>410.28900146484</ele>
        <time>2017-07-28T06:58:52Z</time>
      </trkpt>
      <trkpt lat="43.35814" lon="2.62681">
        <ele>411.28900146484</ele>
        <time>2017-07-28T06:58:55Z</time>
      </trkpt>
      <trkpt lat="43.35817" lon="2.62677">
        <ele>412.28900146484</ele>
        <time>2017-07-28T06:58:57Z</time>
      </trkpt>
      <trkpt lat="43.35822" lon="2.62672">
        <ele>412.28900146484</ele>
        <time>2017-07-28T06:59:00Z</time>
      </trkpt>
      <trkpt lat="43.35826" lon="2.62666">
        <ele>412.28900146484</ele>
        <time>2017-07-28T06:59:03Z</time>
      </trkpt>
      <trkpt lat="43.3583" lon="2.62662">
        <ele>412.28900146484</ele>
        <time>2017-07-28T06:59:05Z</time>
      </trkpt>
      <trkpt lat="43.35835" lon="2.62657">
        <ele>414.28900146484</ele>
        <time>2017-07-28T06:59:08Z</time>
      </trkpt>
      <trkpt lat="43.35838" lon="2.62652">
        <ele>414.28900146484</ele>
        <time>2017-07-28T06:59:10Z</time>
      </trkpt>
      <trkpt lat="43.35844" lon="2.62649">
        <ele>414.28900146484</ele>
        <time>2017-07-28T06:59:13Z</time>
      </trkpt>
      <trkpt lat="43.35848" lon="2.62649">
        <ele>415.28900146484</ele>
        <time>2017-07-28T06:59:15Z</time>
      </trkpt>
      <trkpt lat="43.35853" lon="2.6265">
        <ele>414.28900146484</ele>
        <time>2017-07-28T06:59:17Z</time>
      </trkpt>
      <trkpt lat="43.35859" lon="2.62655">
        <ele>412.28900146484</ele>
        <time>2017-07-28T06:59:20Z</time>
      </trkpt>
      <trkpt lat="43.35863" lon="2.62658">
        <ele>411.28900146484</ele>
        <time>2017-07-28T06:59:24Z</time>
      </trkpt>
      <trkpt lat="43.35867" lon="2.62661">
        <ele>413.28900146484</ele>
        <time>2017-07-28T06:59:27Z</time>
      </trkpt>
      <trkpt lat="43.35871" lon="2.62666">
        <ele>413.28900146484</ele>
        <time>2017-07-28T06:59:32Z</time>
      </trkpt>
      <trkpt lat="43.35875" lon="2.62672">
        <ele>411.28900146484</ele>
        <time>2017-07-28T06:59:46Z</time>
      </trkpt>
      <trkpt lat="43.35882" lon="2.62678">
        <ele>411.28900146484</ele>
        <time>2017-07-28T06:59:51Z</time>
      </trkpt>
      <trkpt lat="43.35887" lon="2.62679">
        <ele>411.28900146484</ele>
        <time>2017-07-28T06:59:53Z</time>
      </trkpt>
      <trkpt lat="43.35894" lon="2.62682">
        <ele>411.28900146484</ele>
        <time>2017-07-28T06:59:57Z</time>
      </trkpt>
      <trkpt lat="43.35899" lon="2.62685">
        <ele>409.28900146484</ele>
        <time>2017-07-28T06:59:59Z</time>
      </trkpt>
      <trkpt lat="43.35905" lon="2.62687">
        <ele>408.28900146484</ele>
        <time>2017-07-28T07:00:01Z</time>
      </trkpt>
      <trkpt lat="43.3591" lon="2.62688">
        <ele>408.28900146484</ele>
        <time>2017-07-28T07:00:03Z</time>
      </trkpt>
      <trkpt lat="43.35916" lon="2.62689">
        <ele>407.28900146484</ele>
        <time>2017-07-28T07:00:05Z</time>
      </trkpt>
      <trkpt lat="43.35922" lon="2.62691">
        <ele>404.28900146484</ele>
        <time>2017-07-28T07:00:08Z</time>
      </trkpt>
      <trkpt lat="43.35926" lon="2.6269">
        <ele>404.28900146484</ele>
        <time>2017-07-28T07:00:10Z</time>
      </trkpt>
      <trkpt lat="43.35931" lon="2.62689">
        <ele>404.28900146484</ele>
        <time>2017-07-28T07:00:12Z</time>
      </trkpt>
      <trkpt lat="43.3594" lon="2.62686">
        <ele>404.28900146484</ele>
        <time>2017-07-28T07:00:16Z</time>
      </trkpt>
      <trkpt lat="43.35946" lon="2.62683">
        <ele>405.28900146484</ele>
        <time>2017-07-28T07:00:18Z</time>
      </trkpt>
      <trkpt lat="43.35948" lon="2.62677">
        <ele>404.28900146484</ele>
        <time>2017-07-28T07:00:20Z</time>
      </trkpt>
      <trkpt lat="43.35952" lon="2.62672">
        <ele>403.28900146484</ele>
        <time>2017-07-28T07:00:22Z</time>
      </trkpt>
      <trkpt lat="43.35957" lon="2.62668">
        <ele>404.28900146484</ele>
        <time>2017-07-28T07:00:24Z</time>
      </trkpt>
      <trkpt lat="43.3596" lon="2.62664">
        <ele>402.28900146484</ele>
        <time>2017-07-28T07:00:27Z</time>
      </trkpt>
      <trkpt lat="43.35961" lon="2.62657">
        <ele>404.28900146484</ele>
        <time>2017-07-28T07:00:30Z</time>
      </trkpt>
      <trkpt lat="43.35962" lon="2.62651">
        <ele>404.28900146484</ele>
        <time>2017-07-28T07:00:34Z</time>
      </trkpt>
      <trkpt lat="43.35962" lon="2.62644">
        <ele>404.28900146484</ele>
        <time>2017-07-28T07:00:38Z</time>
      </trkpt>
      <trkpt lat="43.3596" lon="2.62636">
        <ele>405.28900146484</ele>
        <time>2017-07-28T07:00:42Z</time>
      </trkpt>
      <trkpt lat="43.3596" lon="2.62629">
        <ele>406.28900146484</ele>
        <time>2017-07-28T07:00:46Z</time>
      </trkpt>
      <trkpt lat="43.35961" lon="2.62622">
        <ele>404.28900146484</ele>
        <time>2017-07-28T07:00:49Z</time>
      </trkpt>
      <trkpt lat="43.35964" lon="2.62615">
        <ele>404.28900146484</ele>
        <time>2017-07-28T07:00:53Z</time>
      </trkpt>
      <trkpt lat="43.35968" lon="2.62609">
        <ele>404.28900146484</ele>
        <time>2017-07-28T07:00:56Z</time>
      </trkpt>
      <trkpt lat="43.3597" lon="2.62603">
        <ele>403.28900146484</ele>
        <time>2017-07-28T07:00:58Z</time>
      </trkpt>
      <trkpt lat="43.35975" lon="2.62596">
        <ele>402.28900146484</ele>
        <time>2017-07-28T07:01:01Z</time>
      </trkpt>
      <trkpt lat="43.35979" lon="2.6259">
        <ele>403.28900146484</ele>
        <time>2017-07-28T07:01:04Z</time>
      </trkpt>
      <trkpt lat="43.35981" lon="2.6258">
        <ele>405.28900146484</ele>
        <time>2017-07-28T07:01:07Z</time>
      </trkpt>
      <trkpt lat="43.3598" lon="2.62573">
        <ele>406.28900146484</ele>
        <time>2017-07-28T07:01:09Z</time>
      </trkpt>
      <trkpt lat="43.35978" lon="2.62566">
        <ele>406.28900146484</ele>
        <time>2017-07-28T07:01:11Z</time>
      </trkpt>
      <trkpt lat="43.35977" lon="2.62558">
        <ele>406.28900146484</ele>
        <time>2017-07-28T07:01:14Z</time>
      </trkpt>
      <trkpt lat="43.35976" lon="2.62549">
        <ele>408.28900146484</ele>
        <time>2017-07-28T07:01:16Z</time>
      </trkpt>
      <trkpt lat="43.35973" lon="2.62541">
        <ele>408.28900146484</ele>
        <time>2017-07-28T07:01:19Z</time>
      </trkpt>
      <trkpt lat="43.35969" lon="2.62534">
        <ele>407.28900146484</ele>
        <time>2017-07-28T07:01:22Z</time>
      </trkpt>
      <trkpt lat="43.35965" lon="2.62525">
        <ele>408.28900146484</ele>
        <time>2017-07-28T07:01:24Z</time>
      </trkpt>
      <trkpt lat="43.35961" lon="2.6252">
        <ele>409.28900146484</ele>
        <time>2017-07-28T07:01:26Z</time>
      </trkpt>
      <trkpt lat="43.35959" lon="2.62513">
        <ele>408.28900146484</ele>
        <time>2017-07-28T07:01:28Z</time>
      </trkpt>
      <trkpt lat="43.35956" lon="2.62507">
        <ele>407.28900146484</ele>
        <time>2017-07-28T07:01:30Z</time>
      </trkpt>
      <trkpt lat="43.35953" lon="2.625">
        <ele>407.28900146484</ele>
        <time>2017-07-28T07:01:32Z</time>
      </trkpt>
      <trkpt lat="43.3595" lon="2.62492">
        <ele>407.28900146484</ele>
        <time>2017-07-28T07:01:35Z</time>
      </trkpt>
      <trkpt lat="43.35947" lon="2.62487">
        <ele>407.28900146484</ele>
        <time>2017-07-28T07:01:37Z</time>
      </trkpt>
      <trkpt lat="43.35945" lon="2.6248">
        <ele>407.28900146484</ele>
        <time>2017-07-28T07:01:39Z</time>
      </trkpt>
      <trkpt lat="43.35943" lon="2.62474">
        <ele>407.28900146484</ele>
        <time>2017-07-28T07:01:41Z</time>
      </trkpt>
      <trkpt lat="43.35939" lon="2.62467">
        <ele>407.28900146484</ele>
        <time>2017-07-28T07:01:43Z</time>
      </trkpt>
      <trkpt lat="43.35936" lon="2.62463">
        <ele>408.28900146484</ele>
        <time>2017-07-28T07:01:45Z</time>
      </trkpt>
      <trkpt lat="43.3593" lon="2.62456">
        <ele>409.28900146484</ele>
        <time>2017-07-28T07:01:48Z</time>
      </trkpt>
      <trkpt lat="43.35926" lon="2.62451">
        <ele>407.28900146484</ele>
        <time>2017-07-28T07:01:50Z</time>
      </trkpt>
      <trkpt lat="43.35921" lon="2.62445">
        <ele>406.28900146484</ele>
        <time>2017-07-28T07:01:52Z</time>
      </trkpt>
      <trkpt lat="43.35918" lon="2.62437">
        <ele>407.28900146484</ele>
        <time>2017-07-28T07:01:54Z</time>
      </trkpt>
      <trkpt lat="43.35914" lon="2.62432">
        <ele>406.28900146484</ele>
        <time>2017-07-28T07:01:56Z</time>
      </trkpt>
      <trkpt lat="43.35911" lon="2.62425">
        <ele>404.28799438477</ele>
        <time>2017-07-28T07:01:59Z</time>
      </trkpt>
      <trkpt lat="43.35909" lon="2.62419">
        <ele>403.28799438477</ele>
        <time>2017-07-28T07:02:01Z</time>
      </trkpt>
      <trkpt lat="43.35906" lon="2.62414">
        <ele>402.28799438477</ele>
        <time>2017-07-28T07:02:04Z</time>
      </trkpt>
      <trkpt lat="43.35902" lon="2.62408">
        <ele>402.28799438477</ele>
        <time>2017-07-28T07:02:06Z</time>
      </trkpt>
      <trkpt lat="43.35898" lon="2.62403">
        <ele>400.28799438477</ele>
        <time>2017-07-28T07:02:09Z</time>
      </trkpt>
      <trkpt lat="43.35894" lon="2.62395">
        <ele>399.28799438477</ele>
        <time>2017-07-28T07:02:12Z</time>
      </trkpt>
      <trkpt lat="43.35892" lon="2.62382">
        <ele>396.28799438477</ele>
        <time>2017-07-28T07:02:17Z</time>
      </trkpt>
      <trkpt lat="43.35892" lon="2.62375">
        <ele>396.28799438477</ele>
        <time>2017-07-28T07:02:19Z</time>
      </trkpt>
      <trkpt lat="43.3589" lon="2.62366">
        <ele>397.28799438477</ele>
        <time>2017-07-28T07:02:21Z</time>
      </trkpt>
      <trkpt lat="43.35889" lon="2.62353">
        <ele>400.28799438477</ele>
        <time>2017-07-28T07:02:23Z</time>
      </trkpt>
      <trkpt lat="43.35889" lon="2.62346">
        <ele>400.28799438477</ele>
        <time>2017-07-28T07:02:25Z</time>
      </trkpt>
      <trkpt lat="43.35889" lon="2.62332">
        <ele>403.28799438477</ele>
        <time>2017-07-28T07:02:29Z</time>
      </trkpt>
      <trkpt lat="43.3589" lon="2.62325">
        <ele>405.28799438477</ele>
        <time>2017-07-28T07:02:32Z</time>
      </trkpt>
      <trkpt lat="43.3589" lon="2.62317">
        <ele>406.28799438477</ele>
        <time>2017-07-28T07:02:34Z</time>
      </trkpt>
      <trkpt lat="43.35891" lon="2.62308">
        <ele>405.28799438477</ele>
        <time>2017-07-28T07:02:37Z</time>
      </trkpt>
      <trkpt lat="43.35889" lon="2.62302">
        <ele>405.28799438477</ele>
        <time>2017-07-28T07:02:39Z</time>
      </trkpt>
      <trkpt lat="43.35887" lon="2.62294">
        <ele>405.28799438477</ele>
        <time>2017-07-28T07:02:42Z</time>
      </trkpt>
      <trkpt lat="43.35885" lon="2.62286">
        <ele>404.28799438477</ele>
        <time>2017-07-28T07:02:45Z</time>
      </trkpt>
      <trkpt lat="43.35884" lon="2.62279">
        <ele>404.28799438477</ele>
        <time>2017-07-28T07:02:48Z</time>
      </trkpt>
      <trkpt lat="43.35881" lon="2.6227">
        <ele>404.28799438477</ele>
        <time>2017-07-28T07:02:51Z</time>
      </trkpt>
      <trkpt lat="43.35878" lon="2.62261">
        <ele>405.28799438477</ele>
        <time>2017-07-28T07:02:53Z</time>
      </trkpt>
      <trkpt lat="43.35878" lon="2.62255">
        <ele>404.28799438477</ele>
        <time>2017-07-28T07:02:56Z</time>
      </trkpt>
      <trkpt lat="43.35877" lon="2.62246">
        <ele>405.28799438477</ele>
        <time>2017-07-28T07:02:58Z</time>
      </trkpt>
      <trkpt lat="43.35875" lon="2.62236">
        <ele>405.28799438477</ele>
        <time>2017-07-28T07:03:01Z</time>
      </trkpt>
      <trkpt lat="43.35873" lon="2.62228">
        <ele>402.28799438477</ele>
        <time>2017-07-28T07:03:04Z</time>
      </trkpt>
      <trkpt lat="43.3587" lon="2.62221">
        <ele>400.28799438477</ele>
        <time>2017-07-28T07:03:07Z</time>
      </trkpt>
      <trkpt lat="43.35868" lon="2.62213">
        <ele>399.28799438477</ele>
        <time>2017-07-28T07:03:10Z</time>
      </trkpt>
      <trkpt lat="43.35863" lon="2.62204">
        <ele>398.28799438477</ele>
        <time>2017-07-28T07:03:13Z</time>
      </trkpt>
      <trkpt lat="43.3586" lon="2.62199">
        <ele>397.28799438477</ele>
        <time>2017-07-28T07:03:15Z</time>
      </trkpt>
      <trkpt lat="43.35855" lon="2.62192">
        <ele>397.28799438477</ele>
        <time>2017-07-28T07:03:18Z</time>
      </trkpt>
      <trkpt lat="43.3585" lon="2.62187">
        <ele>397.28799438477</ele>
        <time>2017-07-28T07:03:20Z</time>
      </trkpt>
      <trkpt lat="43.35846" lon="2.62182">
        <ele>399.28799438477</ele>
        <time>2017-07-28T07:03:22Z</time>
      </trkpt>
      <trkpt lat="43.35843" lon="2.62177">
        <ele>397.28799438477</ele>
        <time>2017-07-28T07:03:25Z</time>
      </trkpt>
      <trkpt lat="43.35839" lon="2.62172">
        <ele>398.28799438477</ele>
        <time>2017-07-28T07:03:27Z</time>
      </trkpt>
      <trkpt lat="43.35836" lon="2.62167">
        <ele>398.28799438477</ele>
        <time>2017-07-28T07:03:29Z</time>
      </trkpt>
      <trkpt lat="43.35834" lon="2.62161">
        <ele>398.28799438477</ele>
        <time>2017-07-28T07:03:32Z</time>
      </trkpt>
      <trkpt lat="43.3583" lon="2.62154">
        <ele>396.28799438477</ele>
        <time>2017-07-28T07:03:35Z</time>
      </trkpt>
      <trkpt lat="43.35826" lon="2.62149">
        <ele>396.28799438477</ele>
        <time>2017-07-28T07:03:37Z</time>
      </trkpt>
      <trkpt lat="43.35823" lon="2.62143">
        <ele>398.28799438477</ele>
        <time>2017-07-28T07:03:40Z</time>
      </trkpt>
      <trkpt lat="43.35818" lon="2.62137">
        <ele>398.28698730469</ele>
        <time>2017-07-28T07:03:43Z</time>
      </trkpt>
      <trkpt lat="43.35816" lon="2.62131">
        <ele>396.28698730469</ele>
        <time>2017-07-28T07:03:45Z</time>
      </trkpt>
      <trkpt lat="43.35813" lon="2.62126">
        <ele>396.28698730469</ele>
        <time>2017-07-28T07:03:47Z</time>
      </trkpt>
      <trkpt lat="43.35809" lon="2.62121">
        <ele>396.28698730469</ele>
        <time>2017-07-28T07:03:49Z</time>
      </trkpt>
      <trkpt lat="43.35806" lon="2.62118">
        <ele>395.28698730469</ele>
        <time>2017-07-28T07:03:51Z</time>
      </trkpt>
      <trkpt lat="43.35801" lon="2.62114">
        <ele>394.28698730469</ele>
        <time>2017-07-28T07:03:53Z</time>
      </trkpt>
      <trkpt lat="43.35796" lon="2.6211">
        <ele>395.28698730469</ele>
        <time>2017-07-28T07:03:55Z</time>
      </trkpt>
      <trkpt lat="43.35793" lon="2.62106">
        <ele>395.28698730469</ele>
        <time>2017-07-28T07:03:57Z</time>
      </trkpt>
      <trkpt lat="43.35789" lon="2.62101">
        <ele>395.28698730469</ele>
        <time>2017-07-28T07:03:59Z</time>
      </trkpt>
      <trkpt lat="43.35784" lon="2.62097">
        <ele>393.28698730469</ele>
        <time>2017-07-28T07:04:02Z</time>
      </trkpt>
      <trkpt lat="43.35779" lon="2.62091">
        <ele>393.28698730469</ele>
        <time>2017-07-28T07:04:05Z</time>
      </trkpt>
      <trkpt lat="43.35774" lon="2.62084">
        <ele>393.28698730469</ele>
        <time>2017-07-28T07:04:08Z</time>
      </trkpt>
      <trkpt lat="43.35769" lon="2.6208">
        <ele>393.28698730469</ele>
        <time>2017-07-28T07:04:10Z</time>
      </trkpt>
      <trkpt lat="43.35764" lon="2.62075">
        <ele>393.28698730469</ele>
        <time>2017-07-28T07:04:13Z</time>
      </trkpt>
      <trkpt lat="43.3576" lon="2.62072">
        <ele>392.28698730469</ele>
        <time>2017-07-28T07:04:15Z</time>
      </trkpt>
      <trkpt lat="43.35756" lon="2.62072">
        <ele>391.28698730469</ele>
        <time>2017-07-28T07:04:17Z</time>
      </trkpt>
      <trkpt lat="43.35751" lon="2.62071">
        <ele>389.28698730469</ele>
        <time>2017-07-28T07:04:19Z</time>
      </trkpt>
      <trkpt lat="43.35746" lon="2.6207">
        <ele>388.28698730469</ele>
        <time>2017-07-28T07:04:21Z</time>
      </trkpt>
      <trkpt lat="43.3574" lon="2.62069">
        <ele>386.28698730469</ele>
        <time>2017-07-28T07:04:23Z</time>
      </trkpt>
      <trkpt lat="43.35736" lon="2.62066">
        <ele>384.28698730469</ele>
        <time>2017-07-28T07:04:25Z</time>
      </trkpt>
      <trkpt lat="43.35731" lon="2.6206">
        <ele>383.28698730469</ele>
        <time>2017-07-28T07:04:28Z</time>
      </trkpt>
      <trkpt lat="43.35728" lon="2.62055">
        <ele>384.28698730469</ele>
        <time>2017-07-28T07:04:30Z</time>
      </trkpt>
      <trkpt lat="43.35724" lon="2.62049">
        <ele>382.28698730469</ele>
        <time>2017-07-28T07:04:32Z</time>
      </trkpt>
      <trkpt lat="43.3572" lon="2.62044">
        <ele>381.28698730469</ele>
        <time>2017-07-28T07:04:34Z</time>
      </trkpt>
      <trkpt lat="43.35716" lon="2.62037">
        <ele>383.28698730469</ele>
        <time>2017-07-28T07:04:36Z</time>
      </trkpt>
      <trkpt lat="43.35712" lon="2.62032">
        <ele>383.28698730469</ele>
        <time>2017-07-28T07:04:38Z</time>
      </trkpt>
      <trkpt lat="43.35709" lon="2.62026">
        <ele>383.28698730469</ele>
        <time>2017-07-28T07:04:40Z</time>
      </trkpt>
      <trkpt lat="43.35705" lon="2.62022">
        <ele>383.28698730469</ele>
        <time>2017-07-28T07:04:42Z</time>
      </trkpt>
      <trkpt lat="43.35701" lon="2.62018">
        <ele>382.28698730469</ele>
        <time>2017-07-28T07:04:44Z</time>
      </trkpt>
      <trkpt lat="43.35695" lon="2.62012">
        <ele>381.28698730469</ele>
        <time>2017-07-28T07:04:47Z</time>
      </trkpt>
      <trkpt lat="43.35692" lon="2.62007">
        <ele>381.28698730469</ele>
        <time>2017-07-28T07:04:49Z</time>
      </trkpt>
      <trkpt lat="43.35686" lon="2.62001">
        <ele>381.28698730469</ele>
        <time>2017-07-28T07:04:52Z</time>
      </trkpt>
      <trkpt lat="43.35682" lon="2.61996">
        <ele>381.28698730469</ele>
        <time>2017-07-28T07:04:54Z</time>
      </trkpt>
      <trkpt lat="43.35678" lon="2.61988">
        <ele>379.28698730469</ele>
        <time>2017-07-28T07:04:57Z</time>
      </trkpt>
      <trkpt lat="43.35674" lon="2.61984">
        <ele>380.28698730469</ele>
        <time>2017-07-28T07:04:59Z</time>
      </trkpt>
      <trkpt lat="43.35671" lon="2.61978">
        <ele>379.28698730469</ele>
        <time>2017-07-28T07:05:01Z</time>
      </trkpt>
      <trkpt lat="43.35667" lon="2.61973">
        <ele>379.28698730469</ele>
        <time>2017-07-28T07:05:03Z</time>
      </trkpt>
      <trkpt lat="43.35665" lon="2.61966">
        <ele>379.28698730469</ele>
        <time>2017-07-28T07:05:05Z</time>
      </trkpt>
      <trkpt lat="43.35662" lon="2.6196">
        <ele>379.28698730469</ele>
        <time>2017-07-28T07:05:07Z</time>
      </trkpt>
      <trkpt lat="43.3566" lon="2.61953">
        <ele>379.28601074219</ele>
        <time>2017-07-28T07:05:09Z</time>
      </trkpt>
      <trkpt lat="43.35658" lon="2.61946">
        <ele>379.28601074219</ele>
        <time>2017-07-28T07:05:11Z</time>
      </trkpt>
      <trkpt lat="43.35657" lon="2.61937">
        <ele>378.28601074219</ele>
        <time>2017-07-28T07:05:14Z</time>
      </trkpt>
      <trkpt lat="43.35653" lon="2.6193">
        <ele>376.28601074219</ele>
        <time>2017-07-28T07:05:17Z</time>
      </trkpt>
      <trkpt lat="43.35649" lon="2.61924">
        <ele>375.28601074219</ele>
        <time>2017-07-28T07:05:19Z</time>
      </trkpt>
      <trkpt lat="43.35646" lon="2.61918">
        <ele>375.28601074219</ele>
        <time>2017-07-28T07:05:21Z</time>
      </trkpt>
      <trkpt lat="43.35641" lon="2.61913">
        <ele>372.28601074219</ele>
        <time>2017-07-28T07:05:24Z</time>
      </trkpt>
      <trkpt lat="43.35638" lon="2.61909">
        <ele>372.28601074219</ele>
        <time>2017-07-28T07:05:26Z</time>
      </trkpt>
      <trkpt lat="43.35634" lon="2.61904">
        <ele>372.28601074219</ele>
        <time>2017-07-28T07:05:28Z</time>
      </trkpt>
      <trkpt lat="43.35631" lon="2.61898">
        <ele>372.28601074219</ele>
        <time>2017-07-28T07:05:30Z</time>
      </trkpt>
      <trkpt lat="43.35628" lon="2.6189">
        <ele>373.28601074219</ele>
        <time>2017-07-28T07:05:33Z</time>
      </trkpt>
      <trkpt lat="43.35628" lon="2.61882">
        <ele>371.28601074219</ele>
        <time>2017-07-28T07:05:36Z</time>
      </trkpt>
      <trkpt lat="43.35628" lon="2.61875">
        <ele>371.28601074219</ele>
        <time>2017-07-28T07:05:38Z</time>
      </trkpt>
      <trkpt lat="43.35627" lon="2.61868">
        <ele>370.28601074219</ele>
        <time>2017-07-28T07:05:41Z</time>
      </trkpt>
      <trkpt lat="43.35627" lon="2.61861">
        <ele>371.28601074219</ele>
        <time>2017-07-28T07:05:43Z</time>
      </trkpt>
      <trkpt lat="43.35625" lon="2.6185">
        <ele>371.28601074219</ele>
        <time>2017-07-28T07:05:46Z</time>
      </trkpt>
      <trkpt lat="43.35625" lon="2.61843">
        <ele>370.28601074219</ele>
        <time>2017-07-28T07:05:48Z</time>
      </trkpt>
      <trkpt lat="43.35624" lon="2.61835">
        <ele>373.28601074219</ele>
        <time>2017-07-28T07:05:51Z</time>
      </trkpt>
      <trkpt lat="43.35623" lon="2.61827">
        <ele>373.28601074219</ele>
        <time>2017-07-28T07:05:53Z</time>
      </trkpt>
      <trkpt lat="43.35623" lon="2.6182">
        <ele>372.28601074219</ele>
        <time>2017-07-28T07:05:55Z</time>
      </trkpt>
      <trkpt lat="43.35623" lon="2.61812">
        <ele>372.28601074219</ele>
        <time>2017-07-28T07:05:58Z</time>
      </trkpt>
      <trkpt lat="43.35624" lon="2.61803">
        <ele>369.28601074219</ele>
        <time>2017-07-28T07:06:00Z</time>
      </trkpt>
      <trkpt lat="43.35623" lon="2.61795">
        <ele>367.28601074219</ele>
        <time>2017-07-28T07:06:03Z</time>
      </trkpt>
      <trkpt lat="43.35622" lon="2.61786">
        <ele>364.28601074219</ele>
        <time>2017-07-28T07:06:06Z</time>
      </trkpt>
      <trkpt lat="43.35622" lon="2.61778">
        <ele>365.28601074219</ele>
        <time>2017-07-28T07:06:09Z</time>
      </trkpt>
      <trkpt lat="43.3562" lon="2.6177">
        <ele>364.28601074219</ele>
        <time>2017-07-28T07:06:12Z</time>
      </trkpt>
      <trkpt lat="43.3562" lon="2.61763">
        <ele>362.28601074219</ele>
        <time>2017-07-28T07:06:15Z</time>
      </trkpt>
      <trkpt lat="43.3562" lon="2.61757">
        <ele>362.28601074219</ele>
        <time>2017-07-28T07:06:17Z</time>
      </trkpt>
      <trkpt lat="43.35619" lon="2.61748">
        <ele>362.28601074219</ele>
        <time>2017-07-28T07:06:20Z</time>
      </trkpt>
      <trkpt lat="43.35619" lon="2.61741">
        <ele>362.28601074219</ele>
        <time>2017-07-28T07:06:22Z</time>
      </trkpt>
      <trkpt lat="43.35618" lon="2.61733">
        <ele>362.28601074219</ele>
        <time>2017-07-28T07:06:25Z</time>
      </trkpt>
      <trkpt lat="43.35617" lon="2.61723">
        <ele>361.28601074219</ele>
        <time>2017-07-28T07:06:28Z</time>
      </trkpt>
      <trkpt lat="43.35617" lon="2.61717">
        <ele>362.28601074219</ele>
        <time>2017-07-28T07:06:30Z</time>
      </trkpt>
      <trkpt lat="43.35615" lon="2.6171">
        <ele>360.28601074219</ele>
        <time>2017-07-28T07:06:32Z</time>
      </trkpt>
      <trkpt lat="43.35616" lon="2.61703">
        <ele>361.28601074219</ele>
        <time>2017-07-28T07:06:34Z</time>
      </trkpt>
      <trkpt lat="43.35616" lon="2.61697">
        <ele>360.28601074219</ele>
        <time>2017-07-28T07:06:36Z</time>
      </trkpt>
      <trkpt lat="43.35615" lon="2.61689">
        <ele>359.28601074219</ele>
        <time>2017-07-28T07:06:39Z</time>
      </trkpt>
      <trkpt lat="43.35613" lon="2.6168">
        <ele>358.28601074219</ele>
        <time>2017-07-28T07:06:41Z</time>
      </trkpt>
      <trkpt lat="43.35611" lon="2.61674">
        <ele>358.28601074219</ele>
        <time>2017-07-28T07:06:43Z</time>
      </trkpt>
      <trkpt lat="43.35609" lon="2.61667">
        <ele>357.28601074219</ele>
        <time>2017-07-28T07:06:45Z</time>
      </trkpt>
      <trkpt lat="43.35606" lon="2.61661">
        <ele>357.28601074219</ele>
        <time>2017-07-28T07:06:47Z</time>
      </trkpt>
      <trkpt lat="43.35603" lon="2.61656">
        <ele>357.28601074219</ele>
        <time>2017-07-28T07:06:49Z</time>
      </trkpt>
      <trkpt lat="43.35599" lon="2.61651">
        <ele>357.28601074219</ele>
        <time>2017-07-28T07:06:51Z</time>
      </trkpt>
      <trkpt lat="43.35594" lon="2.61646">
        <ele>358.28601074219</ele>
        <time>2017-07-28T07:06:53Z</time>
      </trkpt>
      <trkpt lat="43.3559" lon="2.61642">
        <ele>356.28500366211</ele>
        <time>2017-07-28T07:06:55Z</time>
      </trkpt>
      <trkpt lat="43.35585" lon="2.61639">
        <ele>353.28500366211</ele>
        <time>2017-07-28T07:07:01Z</time>
      </trkpt>
      <trkpt lat="43.3558" lon="2.61635">
        <ele>354.28500366211</ele>
        <time>2017-07-28T07:07:21Z</time>
      </trkpt>
      <trkpt lat="43.35575" lon="2.61629">
        <ele>353.28500366211</ele>
        <time>2017-07-28T07:07:23Z</time>
      </trkpt>
      <trkpt lat="43.3557" lon="2.61623">
        <ele>351.28500366211</ele>
        <time>2017-07-28T07:07:25Z</time>
      </trkpt>
      <trkpt lat="43.35565" lon="2.61618">
        <ele>350.28500366211</ele>
        <time>2017-07-28T07:07:27Z</time>
      </trkpt>
      <trkpt lat="43.35561" lon="2.61613">
        <ele>347.28500366211</ele>
        <time>2017-07-28T07:07:29Z</time>
      </trkpt>
      <trkpt lat="43.35557" lon="2.61605">
        <ele>348.28500366211</ele>
        <time>2017-07-28T07:07:31Z</time>
      </trkpt>
      <trkpt lat="43.35554" lon="2.61597">
        <ele>347.28500366211</ele>
        <time>2017-07-28T07:07:33Z</time>
      </trkpt>
      <trkpt lat="43.35551" lon="2.61591">
        <ele>346.28500366211</ele>
        <time>2017-07-28T07:07:35Z</time>
      </trkpt>
      <trkpt lat="43.35549" lon="2.61584">
        <ele>344.28500366211</ele>
        <time>2017-07-28T07:07:37Z</time>
      </trkpt>
      <trkpt lat="43.35546" lon="2.61577">
        <ele>346.28500366211</ele>
        <time>2017-07-28T07:07:39Z</time>
      </trkpt>
      <trkpt lat="43.35542" lon="2.61571">
        <ele>348.28500366211</ele>
        <time>2017-07-28T07:07:41Z</time>
      </trkpt>
      <trkpt lat="43.3554" lon="2.61565">
        <ele>349.28500366211</ele>
        <time>2017-07-28T07:07:43Z</time>
      </trkpt>
      <trkpt lat="43.35537" lon="2.61559">
        <ele>348.28500366211</ele>
        <time>2017-07-28T07:07:45Z</time>
      </trkpt>
      <trkpt lat="43.35532" lon="2.61552">
        <ele>346.28500366211</ele>
        <time>2017-07-28T07:07:48Z</time>
      </trkpt>
      <trkpt lat="43.35529" lon="2.61547">
        <ele>345.28500366211</ele>
        <time>2017-07-28T07:07:50Z</time>
      </trkpt>
      <trkpt lat="43.35526" lon="2.61541">
        <ele>344.28500366211</ele>
        <time>2017-07-28T07:07:52Z</time>
      </trkpt>
      <trkpt lat="43.35523" lon="2.61535">
        <ele>343.28500366211</ele>
        <time>2017-07-28T07:07:54Z</time>
      </trkpt>
      <trkpt lat="43.3552" lon="2.61529">
        <ele>342.28500366211</ele>
        <time>2017-07-28T07:07:56Z</time>
      </trkpt>
      <trkpt lat="43.35516" lon="2.61523">
        <ele>342.28500366211</ele>
        <time>2017-07-28T07:07:58Z</time>
      </trkpt>
      <trkpt lat="43.35513" lon="2.61516">
        <ele>341.28500366211</ele>
        <time>2017-07-28T07:08:01Z</time>
      </trkpt>
      <trkpt lat="43.35508" lon="2.6151">
        <ele>340.28500366211</ele>
        <time>2017-07-28T07:08:03Z</time>
      </trkpt>
      <trkpt lat="43.35504" lon="2.61504">
        <ele>338.28500366211</ele>
        <time>2017-07-28T07:08:05Z</time>
      </trkpt>
      <trkpt lat="43.355" lon="2.61498">
        <ele>336.28500366211</ele>
        <time>2017-07-28T07:08:07Z</time>
      </trkpt>
      <trkpt lat="43.35496" lon="2.61494">
        <ele>336.28500366211</ele>
        <time>2017-07-28T07:08:09Z</time>
      </trkpt>
      <trkpt lat="43.35493" lon="2.61489">
        <ele>335.28500366211</ele>
        <time>2017-07-28T07:08:11Z</time>
      </trkpt>
      <trkpt lat="43.35489" lon="2.61484">
        <ele>334.28500366211</ele>
        <time>2017-07-28T07:08:13Z</time>
      </trkpt>
      <trkpt lat="43.35485" lon="2.61479">
        <ele>333.28500366211</ele>
        <time>2017-07-28T07:08:15Z</time>
      </trkpt>
      <trkpt lat="43.35482" lon="2.61474">
        <ele>332.28500366211</ele>
        <time>2017-07-28T07:08:17Z</time>
      </trkpt>
      <trkpt lat="43.35479" lon="2.6147">
        <ele>331.28500366211</ele>
        <time>2017-07-28T07:08:19Z</time>
      </trkpt>
      <trkpt lat="43.35475" lon="2.61464">
        <ele>332.28500366211</ele>
        <time>2017-07-28T07:08:21Z</time>
      </trkpt>
      <trkpt lat="43.35472" lon="2.61458">
        <ele>330.28500366211</ele>
        <time>2017-07-28T07:08:23Z</time>
      </trkpt>
      <trkpt lat="43.35468" lon="2.61454">
        <ele>330.28500366211</ele>
        <time>2017-07-28T07:08:25Z</time>
      </trkpt>
      <trkpt lat="43.35464" lon="2.61448">
        <ele>330.28500366211</ele>
        <time>2017-07-28T07:08:27Z</time>
      </trkpt>
      <trkpt lat="43.35464" lon="2.61442">
        <ele>327.28500366211</ele>
        <time>2017-07-28T07:08:29Z</time>
      </trkpt>
      <trkpt lat="43.35461" lon="2.61437">
        <ele>327.28500366211</ele>
        <time>2017-07-28T07:08:31Z</time>
      </trkpt>
      <trkpt lat="43.35459" lon="2.6143">
        <ele>327.28500366211</ele>
        <time>2017-07-28T07:08:33Z</time>
      </trkpt>
      <trkpt lat="43.35458" lon="2.61424">
        <ele>327.28500366211</ele>
        <time>2017-07-28T07:08:35Z</time>
      </trkpt>
      <trkpt lat="43.35456" lon="2.61418">
        <ele>327.28399658203</ele>
        <time>2017-07-28T07:08:37Z</time>
      </trkpt>
      <trkpt lat="43.35455" lon="2.61412">
        <ele>328.28399658203</ele>
        <time>2017-07-28T07:08:39Z</time>
      </trkpt>
      <trkpt lat="43.35453" lon="2.61406">
        <ele>328.28399658203</ele>
        <time>2017-07-28T07:08:41Z</time>
      </trkpt>
      <trkpt lat="43.35451" lon="2.61398">
        <ele>328.28399658203</ele>
        <time>2017-07-28T07:08:44Z</time>
      </trkpt>
      <trkpt lat="43.35451" lon="2.61389">
        <ele>327.28399658203</ele>
        <time>2017-07-28T07:08:47Z</time>
      </trkpt>
      <trkpt lat="43.35451" lon="2.61381">
        <ele>326.28399658203</ele>
        <time>2017-07-28T07:08:50Z</time>
      </trkpt>
      <trkpt lat="43.35452" lon="2.61372">
        <ele>326.28399658203</ele>
        <time>2017-07-28T07:08:53Z</time>
      </trkpt>
      <trkpt lat="43.35452" lon="2.61365">
        <ele>327.28399658203</ele>
        <time>2017-07-28T07:08:55Z</time>
      </trkpt>
      <trkpt lat="43.35452" lon="2.61359">
        <ele>327.28399658203</ele>
        <time>2017-07-28T07:08:57Z</time>
      </trkpt>
      <trkpt lat="43.35454" lon="2.61351">
        <ele>327.28399658203</ele>
        <time>2017-07-28T07:09:00Z</time>
      </trkpt>
      <trkpt lat="43.35455" lon="2.61345">
        <ele>327.28399658203</ele>
        <time>2017-07-28T07:09:02Z</time>
      </trkpt>
      <trkpt lat="43.35455" lon="2.61337">
        <ele>327.28399658203</ele>
        <time>2017-07-28T07:09:04Z</time>
      </trkpt>
      <trkpt lat="43.35457" lon="2.61329">
        <ele>325.28399658203</ele>
        <time>2017-07-28T07:09:07Z</time>
      </trkpt>
      <trkpt lat="43.35457" lon="2.61321">
        <ele>326.28399658203</ele>
        <time>2017-07-28T07:09:09Z</time>
      </trkpt>
      <trkpt lat="43.35457" lon="2.61315">
        <ele>328.28399658203</ele>
        <time>2017-07-28T07:09:11Z</time>
      </trkpt>
      <trkpt lat="43.35456" lon="2.61307">
        <ele>326.28399658203</ele>
        <time>2017-07-28T07:09:14Z</time>
      </trkpt>
      <trkpt lat="43.35455" lon="2.613">
        <ele>326.28399658203</ele>
        <time>2017-07-28T07:09:17Z</time>
      </trkpt>
      <trkpt lat="43.35454" lon="2.61291">
        <ele>326.28399658203</ele>
        <time>2017-07-28T07:09:20Z</time>
      </trkpt>
      <trkpt lat="43.35453" lon="2.61283">
        <ele>326.28399658203</ele>
        <time>2017-07-28T07:09:23Z</time>
      </trkpt>
      <trkpt lat="43.3545" lon="2.61276">
        <ele>325.28399658203</ele>
        <time>2017-07-28T07:09:26Z</time>
      </trkpt>
      <trkpt lat="43.35447" lon="2.6127">
        <ele>325.28399658203</ele>
        <time>2017-07-28T07:09:28Z</time>
      </trkpt>
      <trkpt lat="43.35443" lon="2.61265">
        <ele>325.28399658203</ele>
        <time>2017-07-28T07:09:31Z</time>
      </trkpt>
      <trkpt lat="43.35439" lon="2.6126">
        <ele>326.28399658203</ele>
        <time>2017-07-28T07:09:33Z</time>
      </trkpt>
      <trkpt lat="43.35435" lon="2.61255">
        <ele>326.28399658203</ele>
        <time>2017-07-28T07:09:35Z</time>
      </trkpt>
      <trkpt lat="43.35433" lon="2.61249">
        <ele>326.28399658203</ele>
        <time>2017-07-28T07:09:37Z</time>
      </trkpt>
      <trkpt lat="43.35428" lon="2.61242">
        <ele>326.28399658203</ele>
        <time>2017-07-28T07:09:40Z</time>
      </trkpt>
      <trkpt lat="43.35425" lon="2.61237">
        <ele>335.28399658203</ele>
        <time>2017-07-28T07:09:42Z</time>
      </trkpt>
      <trkpt lat="43.35421" lon="2.61231">
        <ele>328.28399658203</ele>
        <time>2017-07-28T07:09:45Z</time>
      </trkpt>
      <trkpt lat="43.35418" lon="2.61225">
        <ele>329.28399658203</ele>
        <time>2017-07-28T07:09:47Z</time>
      </trkpt>
      <trkpt lat="43.35415" lon="2.6122">
        <ele>328.28399658203</ele>
        <time>2017-07-28T07:09:49Z</time>
      </trkpt>
      <trkpt lat="43.35411" lon="2.61213">
        <ele>329.28399658203</ele>
        <time>2017-07-28T07:09:52Z</time>
      </trkpt>
      <trkpt lat="43.35408" lon="2.61207">
        <ele>330.28399658203</ele>
        <time>2017-07-28T07:09:54Z</time>
      </trkpt>
      <trkpt lat="43.35404" lon="2.612">
        <ele>329.28399658203</ele>
        <time>2017-07-28T07:09:57Z</time>
      </trkpt>
      <trkpt lat="43.354" lon="2.61192">
        <ele>331.28399658203</ele>
        <time>2017-07-28T07:10:00Z</time>
      </trkpt>
      <trkpt lat="43.35396" lon="2.61187">
        <ele>331.28399658203</ele>
        <time>2017-07-28T07:10:02Z</time>
      </trkpt>
      <trkpt lat="43.35393" lon="2.61182">
        <ele>331.28399658203</ele>
        <time>2017-07-28T07:10:04Z</time>
      </trkpt>
      <trkpt lat="43.35388" lon="2.61176">
        <ele>332.28399658203</ele>
        <time>2017-07-28T07:10:07Z</time>
      </trkpt>
      <trkpt lat="43.35383" lon="2.61169">
        <ele>331.28399658203</ele>
        <time>2017-07-28T07:10:10Z</time>
      </trkpt>
      <trkpt lat="43.35379" lon="2.61165">
        <ele>331.28399658203</ele>
        <time>2017-07-28T07:10:13Z</time>
      </trkpt>
      <trkpt lat="43.35375" lon="2.6116">
        <ele>332.28399658203</ele>
        <time>2017-07-28T07:10:15Z</time>
      </trkpt>
      <trkpt lat="43.35371" lon="2.61155">
        <ele>331.28399658203</ele>
        <time>2017-07-28T07:10:17Z</time>
      </trkpt>
      <trkpt lat="43.35368" lon="2.6115">
        <ele>331.28399658203</ele>
        <time>2017-07-28T07:10:19Z</time>
      </trkpt>
      <trkpt lat="43.35364" lon="2.61145">
        <ele>333.28399658203</ele>
        <time>2017-07-28T07:10:22Z</time>
      </trkpt>
      <trkpt lat="43.35361" lon="2.6114">
        <ele>335.28298950195</ele>
        <time>2017-07-28T07:10:24Z</time>
      </trkpt>
      <trkpt lat="43.35357" lon="2.61134">
        <ele>335.28298950195</ele>
        <time>2017-07-28T07:10:27Z</time>
      </trkpt>
      <trkpt lat="43.35351" lon="2.61129">
        <ele>337.28298950195</ele>
        <time>2017-07-28T07:10:30Z</time>
      </trkpt>
      <trkpt lat="43.35347" lon="2.61126">
        <ele>336.28298950195</ele>
        <time>2017-07-28T07:10:32Z</time>
      </trkpt>
      <trkpt lat="43.35341" lon="2.61123">
        <ele>335.28298950195</ele>
        <time>2017-07-28T07:10:35Z</time>
      </trkpt>
      <trkpt lat="43.35336" lon="2.6112">
        <ele>334.28298950195</ele>
        <time>2017-07-28T07:10:37Z</time>
      </trkpt>
      <trkpt lat="43.35331" lon="2.61118">
        <ele>334.28298950195</ele>
        <time>2017-07-28T07:10:39Z</time>
      </trkpt>
      <trkpt lat="43.35326" lon="2.61118">
        <ele>335.28298950195</ele>
        <time>2017-07-28T07:10:41Z</time>
      </trkpt>
      <trkpt lat="43.3532" lon="2.61116">
        <ele>335.28298950195</ele>
        <time>2017-07-28T07:10:44Z</time>
      </trkpt>
      <trkpt lat="43.35315" lon="2.61116">
        <ele>335.28298950195</ele>
        <time>2017-07-28T07:10:46Z</time>
      </trkpt>
      <trkpt lat="43.3531" lon="2.61116">
        <ele>335.28298950195</ele>
        <time>2017-07-28T07:10:48Z</time>
      </trkpt>
      <trkpt lat="43.35306" lon="2.61114">
        <ele>335.28298950195</ele>
        <time>2017-07-28T07:10:50Z</time>
      </trkpt>
      <trkpt lat="43.35301" lon="2.61112">
        <ele>337.28298950195</ele>
        <time>2017-07-28T07:10:52Z</time>
      </trkpt>
      <trkpt lat="43.35295" lon="2.61108">
        <ele>338.28298950195</ele>
        <time>2017-07-28T07:10:55Z</time>
      </trkpt>
      <trkpt lat="43.35291" lon="2.61102">
        <ele>338.28298950195</ele>
        <time>2017-07-28T07:10:58Z</time>
      </trkpt>
      <trkpt lat="43.35289" lon="2.61096">
        <ele>339.28298950195</ele>
        <time>2017-07-28T07:11:00Z</time>
      </trkpt>
      <trkpt lat="43.35286" lon="2.61089">
        <ele>338.28298950195</ele>
        <time>2017-07-28T07:11:02Z</time>
      </trkpt>
      <trkpt lat="43.35283" lon="2.61081">
        <ele>337.28298950195</ele>
        <time>2017-07-28T07:11:05Z</time>
      </trkpt>
      <trkpt lat="43.35281" lon="2.61075">
        <ele>337.28298950195</ele>
        <time>2017-07-28T07:11:07Z</time>
      </trkpt>
      <trkpt lat="43.35277" lon="2.61068">
        <ele>335.28298950195</ele>
        <time>2017-07-28T07:11:09Z</time>
      </trkpt>
      <trkpt lat="43.35272" lon="2.61062">
        <ele>334.28298950195</ele>
        <time>2017-07-28T07:11:11Z</time>
      </trkpt>
      <trkpt lat="43.35268" lon="2.61058">
        <ele>334.28298950195</ele>
        <time>2017-07-28T07:11:13Z</time>
      </trkpt>
      <trkpt lat="43.35264" lon="2.61055">
        <ele>333.28298950195</ele>
        <time>2017-07-28T07:11:15Z</time>
      </trkpt>
      <trkpt lat="43.35259" lon="2.6105">
        <ele>334.28298950195</ele>
        <time>2017-07-28T07:11:17Z</time>
      </trkpt>
      <trkpt lat="43.35255" lon="2.61046">
        <ele>336.28298950195</ele>
        <time>2017-07-28T07:11:19Z</time>
      </trkpt>
      <trkpt lat="43.35249" lon="2.61042">
        <ele>336.28298950195</ele>
        <time>2017-07-28T07:11:22Z</time>
      </trkpt>
      <trkpt lat="43.35246" lon="2.61038">
        <ele>336.28298950195</ele>
        <time>2017-07-28T07:11:24Z</time>
      </trkpt>
      <trkpt lat="43.35242" lon="2.61034">
        <ele>335.28298950195</ele>
        <time>2017-07-28T07:11:26Z</time>
      </trkpt>
      <trkpt lat="43.35238" lon="2.6103">
        <ele>335.28298950195</ele>
        <time>2017-07-28T07:11:28Z</time>
      </trkpt>
      <trkpt lat="43.35233" lon="2.61027">
        <ele>335.28298950195</ele>
        <time>2017-07-28T07:11:30Z</time>
      </trkpt>
      <trkpt lat="43.35229" lon="2.61023">
        <ele>334.28298950195</ele>
        <time>2017-07-28T07:11:32Z</time>
      </trkpt>
      <trkpt lat="43.35224" lon="2.6102">
        <ele>335.28298950195</ele>
        <time>2017-07-28T07:11:34Z</time>
      </trkpt>
      <trkpt lat="43.35218" lon="2.61018">
        <ele>335.28298950195</ele>
        <time>2017-07-28T07:11:37Z</time>
      </trkpt>
      <trkpt lat="43.35213" lon="2.61016">
        <ele>334.28298950195</ele>
        <time>2017-07-28T07:11:39Z</time>
      </trkpt>
      <trkpt lat="43.35208" lon="2.61016">
        <ele>335.28298950195</ele>
        <time>2017-07-28T07:11:41Z</time>
      </trkpt>
      <trkpt lat="43.35202" lon="2.61014">
        <ele>335.28298950195</ele>
        <time>2017-07-28T07:11:43Z</time>
      </trkpt>
      <trkpt lat="43.35197" lon="2.61013">
        <ele>334.28298950195</ele>
        <time>2017-07-28T07:11:45Z</time>
      </trkpt>
      <trkpt lat="43.35192" lon="2.61013">
        <ele>334.28298950195</ele>
        <time>2017-07-28T07:11:47Z</time>
      </trkpt>
      <trkpt lat="43.35186" lon="2.61012">
        <ele>334.28298950195</ele>
        <time>2017-07-28T07:11:49Z</time>
      </trkpt>
      <trkpt lat="43.35181" lon="2.61012">
        <ele>333.28298950195</ele>
        <time>2017-07-28T07:11:51Z</time>
      </trkpt>
      <trkpt lat="43.35176" lon="2.61011">
        <ele>333.28298950195</ele>
        <time>2017-07-28T07:11:53Z</time>
      </trkpt>
      <trkpt lat="43.35171" lon="2.61009">
        <ele>332.28201293945</ele>
        <time>2017-07-28T07:11:55Z</time>
      </trkpt>
      <trkpt lat="43.35166" lon="2.61008">
        <ele>330.28201293945</ele>
        <time>2017-07-28T07:11:57Z</time>
      </trkpt>
      <trkpt lat="43.35159" lon="2.61007">
        <ele>330.28201293945</ele>
        <time>2017-07-28T07:12:00Z</time>
      </trkpt>
      <trkpt lat="43.35152" lon="2.61007">
        <ele>330.28201293945</ele>
        <time>2017-07-28T07:12:03Z</time>
      </trkpt>
      <trkpt lat="43.35146" lon="2.61005">
        <ele>330.28201293945</ele>
        <time>2017-07-28T07:12:06Z</time>
      </trkpt>
      <trkpt lat="43.3514" lon="2.61004">
        <ele>331.28201293945</ele>
        <time>2017-07-28T07:12:09Z</time>
      </trkpt>
      <trkpt lat="43.35135" lon="2.61003">
        <ele>331.28201293945</ele>
        <time>2017-07-28T07:12:11Z</time>
      </trkpt>
      <trkpt lat="43.3513" lon="2.61001">
        <ele>329.28201293945</ele>
        <time>2017-07-28T07:12:13Z</time>
      </trkpt>
      <trkpt lat="43.35125" lon="2.60999">
        <ele>329.28201293945</ele>
        <time>2017-07-28T07:12:15Z</time>
      </trkpt>
      <trkpt lat="43.35118" lon="2.60997">
        <ele>328.28201293945</ele>
        <time>2017-07-28T07:12:18Z</time>
      </trkpt>
      <trkpt lat="43.35114" lon="2.60995">
        <ele>327.28201293945</ele>
        <time>2017-07-28T07:12:20Z</time>
      </trkpt>
      <trkpt lat="43.3511" lon="2.6099">
        <ele>328.28201293945</ele>
        <time>2017-07-28T07:12:22Z</time>
      </trkpt>
      <trkpt lat="43.35106" lon="2.60986">
        <ele>327.28201293945</ele>
        <time>2017-07-28T07:12:24Z</time>
      </trkpt>
      <trkpt lat="43.35101" lon="2.6098">
        <ele>326.28201293945</ele>
        <time>2017-07-28T07:12:27Z</time>
      </trkpt>
      <trkpt lat="43.35097" lon="2.60976">
        <ele>326.28201293945</ele>
        <time>2017-07-28T07:12:29Z</time>
      </trkpt>
      <trkpt lat="43.35093" lon="2.60972">
        <ele>324.28201293945</ele>
        <time>2017-07-28T07:12:32Z</time>
      </trkpt>
      <trkpt lat="43.35087" lon="2.6097">
        <ele>322.28201293945</ele>
        <time>2017-07-28T07:12:35Z</time>
      </trkpt>
      <trkpt lat="43.35082" lon="2.60969">
        <ele>321.28201293945</ele>
        <time>2017-07-28T07:12:37Z</time>
      </trkpt>
      <trkpt lat="43.35076" lon="2.6097">
        <ele>321.28201293945</ele>
        <time>2017-07-28T07:12:39Z</time>
      </trkpt>
      <trkpt lat="43.35071" lon="2.60968">
        <ele>319.28201293945</ele>
        <time>2017-07-28T07:12:41Z</time>
      </trkpt>
      <trkpt lat="43.35066" lon="2.60969">
        <ele>318.28201293945</ele>
        <time>2017-07-28T07:12:43Z</time>
      </trkpt>
      <trkpt lat="43.35062" lon="2.60968">
        <ele>318.28201293945</ele>
        <time>2017-07-28T07:12:45Z</time>
      </trkpt>
      <trkpt lat="43.35057" lon="2.60967">
        <ele>318.28201293945</ele>
        <time>2017-07-28T07:12:47Z</time>
      </trkpt>
      <trkpt lat="43.35052" lon="2.60966">
        <ele>318.28201293945</ele>
        <time>2017-07-28T07:12:49Z</time>
      </trkpt>
      <trkpt lat="43.35045" lon="2.60965">
        <ele>314.28201293945</ele>
        <time>2017-07-28T07:12:52Z</time>
      </trkpt>
      <trkpt lat="43.3504" lon="2.60963">
        <ele>313.28201293945</ele>
        <time>2017-07-28T07:12:54Z</time>
      </trkpt>
      <trkpt lat="43.35035" lon="2.6096">
        <ele>314.28201293945</ele>
        <time>2017-07-28T07:12:56Z</time>
      </trkpt>
      <trkpt lat="43.3503" lon="2.60956">
        <ele>311.28201293945</ele>
        <time>2017-07-28T07:12:58Z</time>
      </trkpt>
      <trkpt lat="43.35026" lon="2.60951">
        <ele>311.28201293945</ele>
        <time>2017-07-28T07:13:00Z</time>
      </trkpt>
      <trkpt lat="43.35023" lon="2.60946">
        <ele>311.28201293945</ele>
        <time>2017-07-28T07:13:02Z</time>
      </trkpt>
      <trkpt lat="43.3502" lon="2.6094">
        <ele>310.28201293945</ele>
        <time>2017-07-28T07:13:04Z</time>
      </trkpt>
      <trkpt lat="43.35018" lon="2.60933">
        <ele>307.28201293945</ele>
        <time>2017-07-28T07:13:07Z</time>
      </trkpt>
      <trkpt lat="43.35015" lon="2.60927">
        <ele>305.28201293945</ele>
        <time>2017-07-28T07:13:09Z</time>
      </trkpt>
      <trkpt lat="43.35014" lon="2.60921">
        <ele>303.28201293945</ele>
        <time>2017-07-28T07:13:11Z</time>
      </trkpt>
      <trkpt lat="43.35011" lon="2.60915">
        <ele>303.28201293945</ele>
        <time>2017-07-28T07:13:13Z</time>
      </trkpt>
      <trkpt lat="43.3501" lon="2.60908">
        <ele>303.28201293945</ele>
        <time>2017-07-28T07:13:15Z</time>
      </trkpt>
      <trkpt lat="43.3501" lon="2.60901">
        <ele>302.28201293945</ele>
        <time>2017-07-28T07:13:17Z</time>
      </trkpt>
      <trkpt lat="43.3501" lon="2.60895">
        <ele>300.28201293945</ele>
        <time>2017-07-28T07:13:19Z</time>
      </trkpt>
      <trkpt lat="43.35011" lon="2.60886">
        <ele>303.28201293945</ele>
        <time>2017-07-28T07:13:21Z</time>
      </trkpt>
      <trkpt lat="43.35011" lon="2.60878">
        <ele>303.28201293945</ele>
        <time>2017-07-28T07:13:23Z</time>
      </trkpt>
      <trkpt lat="43.35011" lon="2.6087">
        <ele>303.28201293945</ele>
        <time>2017-07-28T07:13:25Z</time>
      </trkpt>
      <trkpt lat="43.35012" lon="2.60862">
        <ele>304.28201293945</ele>
        <time>2017-07-28T07:13:27Z</time>
      </trkpt>
      <trkpt lat="43.35013" lon="2.60855">
        <ele>304.28201293945</ele>
        <time>2017-07-28T07:13:29Z</time>
      </trkpt>
      <trkpt lat="43.35012" lon="2.60848">
        <ele>305.28201293945</ele>
        <time>2017-07-28T07:13:31Z</time>
      </trkpt>
      <trkpt lat="43.35012" lon="2.60839">
        <ele>304.28100585938</ele>
        <time>2017-07-28T07:13:34Z</time>
      </trkpt>
      <trkpt lat="43.35012" lon="2.60832">
        <ele>305.28100585938</ele>
        <time>2017-07-28T07:13:36Z</time>
      </trkpt>
      <trkpt lat="43.35011" lon="2.60825">
        <ele>305.28100585938</ele>
        <time>2017-07-28T07:13:38Z</time>
      </trkpt>
      <trkpt lat="43.35009" lon="2.60819">
        <ele>307.28100585938</ele>
        <time>2017-07-28T07:13:40Z</time>
      </trkpt>
      <trkpt lat="43.35006" lon="2.60813">
        <ele>307.28100585938</ele>
        <time>2017-07-28T07:13:42Z</time>
      </trkpt>
      <trkpt lat="43.35001" lon="2.60806">
        <ele>305.28100585938</ele>
        <time>2017-07-28T07:13:44Z</time>
      </trkpt>
      <trkpt lat="43.34998" lon="2.60801">
        <ele>304.28100585938</ele>
        <time>2017-07-28T07:13:46Z</time>
      </trkpt>
      <trkpt lat="43.34995" lon="2.60796">
        <ele>304.28100585938</ele>
        <time>2017-07-28T07:13:48Z</time>
      </trkpt>
      <trkpt lat="43.3499" lon="2.60791">
        <ele>304.28100585938</ele>
        <time>2017-07-28T07:13:50Z</time>
      </trkpt>
      <trkpt lat="43.34988" lon="2.60784">
        <ele>306.28100585938</ele>
        <time>2017-07-28T07:13:52Z</time>
      </trkpt>
      <trkpt lat="43.34984" lon="2.60778">
        <ele>305.28100585938</ele>
        <time>2017-07-28T07:13:55Z</time>
      </trkpt>
      <trkpt lat="43.34981" lon="2.60771">
        <ele>306.28100585938</ele>
        <time>2017-07-28T07:13:59Z</time>
      </trkpt>
      <trkpt lat="43.34979" lon="2.60765">
        <ele>305.28100585938</ele>
        <time>2017-07-28T07:14:02Z</time>
      </trkpt>
      <trkpt lat="43.34976" lon="2.6076">
        <ele>305.28100585938</ele>
        <time>2017-07-28T07:14:04Z</time>
      </trkpt>
      <trkpt lat="43.34973" lon="2.60755">
        <ele>305.28100585938</ele>
        <time>2017-07-28T07:14:06Z</time>
      </trkpt>
      <trkpt lat="43.34969" lon="2.60748">
        <ele>304.28100585938</ele>
        <time>2017-07-28T07:14:08Z</time>
      </trkpt>
      <trkpt lat="43.34965" lon="2.60742">
        <ele>303.28100585938</ele>
        <time>2017-07-28T07:14:10Z</time>
      </trkpt>
      <trkpt lat="43.34962" lon="2.60736">
        <ele>302.28100585938</ele>
        <time>2017-07-28T07:14:12Z</time>
      </trkpt>
      <trkpt lat="43.34956" lon="2.6073">
        <ele>300.28100585938</ele>
        <time>2017-07-28T07:14:14Z</time>
      </trkpt>
      <trkpt lat="43.34953" lon="2.60725">
        <ele>300.28100585938</ele>
        <time>2017-07-28T07:14:16Z</time>
      </trkpt>
      <trkpt lat="43.34948" lon="2.60718">
        <ele>298.28100585938</ele>
        <time>2017-07-28T07:14:19Z</time>
      </trkpt>
      <trkpt lat="43.34945" lon="2.60711">
        <ele>298.28100585938</ele>
        <time>2017-07-28T07:14:22Z</time>
      </trkpt>
      <trkpt lat="43.34942" lon="2.60706">
        <ele>296.28100585938</ele>
        <time>2017-07-28T07:14:24Z</time>
      </trkpt>
      <trkpt lat="43.3494" lon="2.607">
        <ele>295.28100585938</ele>
        <time>2017-07-28T07:14:26Z</time>
      </trkpt>
      <trkpt lat="43.34938" lon="2.60693">
        <ele>296.28100585938</ele>
        <time>2017-07-28T07:14:28Z</time>
      </trkpt>
      <trkpt lat="43.34936" lon="2.60687">
        <ele>296.28100585938</ele>
        <time>2017-07-28T07:14:30Z</time>
      </trkpt>
      <trkpt lat="43.34933" lon="2.60682">
        <ele>295.28100585938</ele>
        <time>2017-07-28T07:14:32Z</time>
      </trkpt>
      <trkpt lat="43.3493" lon="2.60674">
        <ele>294.28100585938</ele>
        <time>2017-07-28T07:14:35Z</time>
      </trkpt>
      <trkpt lat="43.34928" lon="2.60668">
        <ele>294.28100585938</ele>
        <time>2017-07-28T07:14:37Z</time>
      </trkpt>
      <trkpt lat="43.34923" lon="2.60662">
        <ele>295.28100585938</ele>
        <time>2017-07-28T07:14:40Z</time>
      </trkpt>
      <trkpt lat="43.34919" lon="2.60654">
        <ele>294.28100585938</ele>
        <time>2017-07-28T07:14:42Z</time>
      </trkpt>
      <trkpt lat="43.34915" lon="2.60646">
        <ele>292.28100585938</ele>
        <time>2017-07-28T07:14:44Z</time>
      </trkpt>
      <trkpt lat="43.34912" lon="2.60641">
        <ele>291.28100585938</ele>
        <time>2017-07-28T07:14:46Z</time>
      </trkpt>
      <trkpt lat="43.34908" lon="2.60634">
        <ele>290.28100585938</ele>
        <time>2017-07-28T07:14:48Z</time>
      </trkpt>
      <trkpt lat="43.34906" lon="2.60628">
        <ele>287.28100585938</ele>
        <time>2017-07-28T07:14:50Z</time>
      </trkpt>
      <trkpt lat="43.34902" lon="2.60623">
        <ele>285.28100585938</ele>
        <time>2017-07-28T07:14:52Z</time>
      </trkpt>
      <trkpt lat="43.34899" lon="2.60618">
        <ele>283.28100585938</ele>
        <time>2017-07-28T07:14:54Z</time>
      </trkpt>
      <trkpt lat="43.34896" lon="2.60611">
        <ele>283.28100585938</ele>
        <time>2017-07-28T07:14:57Z</time>
      </trkpt>
      <trkpt lat="43.34892" lon="2.60606">
        <ele>282.28100585938</ele>
        <time>2017-07-28T07:14:59Z</time>
      </trkpt>
      <trkpt lat="43.34888" lon="2.60601">
        <ele>281.2799987793</ele>
        <time>2017-07-28T07:15:01Z</time>
      </trkpt>
      <trkpt lat="43.34884" lon="2.60594">
        <ele>281.2799987793</ele>
        <time>2017-07-28T07:15:03Z</time>
      </trkpt>
      <trkpt lat="43.34878" lon="2.60588">
        <ele>279.2799987793</ele>
        <time>2017-07-28T07:15:06Z</time>
      </trkpt>
      <trkpt lat="43.34874" lon="2.60584">
        <ele>276.2799987793</ele>
        <time>2017-07-28T07:15:08Z</time>
      </trkpt>
      <trkpt lat="43.3487" lon="2.6058">
        <ele>276.2799987793</ele>
        <time>2017-07-28T07:15:10Z</time>
      </trkpt>
      <trkpt lat="43.34867" lon="2.60576">
        <ele>275.2799987793</ele>
        <time>2017-07-28T07:15:12Z</time>
      </trkpt>
      <trkpt lat="43.3486" lon="2.60573">
        <ele>274.2799987793</ele>
        <time>2017-07-28T07:15:15Z</time>
      </trkpt>
      <trkpt lat="43.34857" lon="2.60568">
        <ele>275.2799987793</ele>
        <time>2017-07-28T07:15:17Z</time>
      </trkpt>
      <trkpt lat="43.34854" lon="2.60564">
        <ele>273.2799987793</ele>
        <time>2017-07-28T07:15:19Z</time>
      </trkpt>
      <trkpt lat="43.3485" lon="2.60559">
        <ele>274.2799987793</ele>
        <time>2017-07-28T07:15:21Z</time>
      </trkpt>
      <trkpt lat="43.34845" lon="2.60557">
        <ele>272.2799987793</ele>
        <time>2017-07-28T07:15:23Z</time>
      </trkpt>
      <trkpt lat="43.34839" lon="2.60558">
        <ele>271.2799987793</ele>
        <time>2017-07-28T07:15:26Z</time>
      </trkpt>
      <trkpt lat="43.34834" lon="2.60557">
        <ele>273.2799987793</ele>
        <time>2017-07-28T07:15:31Z</time>
      </trkpt>
      <trkpt lat="43.34833" lon="2.60548">
        <ele>269.2799987793</ele>
        <time>2017-07-28T07:15:35Z</time>
      </trkpt>
      <trkpt lat="43.34828" lon="2.60541">
        <ele>266.2799987793</ele>
        <time>2017-07-28T07:15:38Z</time>
      </trkpt>
      <trkpt lat="43.34824" lon="2.60537">
        <ele>266.2799987793</ele>
        <time>2017-07-28T07:15:40Z</time>
      </trkpt>
      <trkpt lat="43.34817" lon="2.60536">
        <ele>267.2799987793</ele>
        <time>2017-07-28T07:15:43Z</time>
      </trkpt>
      <trkpt lat="43.34812" lon="2.60532">
        <ele>267.2799987793</ele>
        <time>2017-07-28T07:15:46Z</time>
      </trkpt>
      <trkpt lat="43.34812" lon="2.60525">
        <ele>267.2799987793</ele>
        <time>2017-07-28T07:15:50Z</time>
      </trkpt>
      <trkpt lat="43.34814" lon="2.60519">
        <ele>264.2799987793</ele>
        <time>2017-07-28T07:15:52Z</time>
      </trkpt>
      <trkpt lat="43.34817" lon="2.60514">
        <ele>264.2799987793</ele>
        <time>2017-07-28T07:15:54Z</time>
      </trkpt>
      <trkpt lat="43.3482" lon="2.60507">
        <ele>263.2799987793</ele>
        <time>2017-07-28T07:15:56Z</time>
      </trkpt>
      <trkpt lat="43.34816" lon="2.60501">
        <ele>261.2799987793</ele>
        <time>2017-07-28T07:16:01Z</time>
      </trkpt>
      <trkpt lat="43.34811" lon="2.60499">
        <ele>259.2799987793</ele>
        <time>2017-07-28T07:16:05Z</time>
      </trkpt>
      <trkpt lat="43.34806" lon="2.60494">
        <ele>259.2799987793</ele>
        <time>2017-07-28T07:16:08Z</time>
      </trkpt>
      <trkpt lat="43.34802" lon="2.60488">
        <ele>260.2799987793</ele>
        <time>2017-07-28T07:16:10Z</time>
      </trkpt>
      <trkpt lat="43.34794" lon="2.60478">
        <ele>261.2799987793</ele>
        <time>2017-07-28T07:16:14Z</time>
      </trkpt>
      <trkpt lat="43.3479" lon="2.60473">
        <ele>261.2799987793</ele>
        <time>2017-07-28T07:16:16Z</time>
      </trkpt>
      <trkpt lat="43.34787" lon="2.6048">
        <ele>261.2799987793</ele>
        <time>2017-07-28T07:16:18Z</time>
      </trkpt>
      <trkpt lat="43.34782" lon="2.60482">
        <ele>261.2799987793</ele>
        <time>2017-07-28T07:16:20Z</time>
      </trkpt>
      <trkpt lat="43.34778" lon="2.60486">
        <ele>258.2799987793</ele>
        <time>2017-07-28T07:16:22Z</time>
      </trkpt>
      <trkpt lat="43.34775" lon="2.6049">
        <ele>257.2799987793</ele>
        <time>2017-07-28T07:16:24Z</time>
      </trkpt>
      <trkpt lat="43.34772" lon="2.60497">
        <ele>256.2799987793</ele>
        <time>2017-07-28T07:16:26Z</time>
      </trkpt>
      <trkpt lat="43.34769" lon="2.60502">
        <ele>255.2799987793</ele>
        <time>2017-07-28T07:16:28Z</time>
      </trkpt>
      <trkpt lat="43.34765" lon="2.60508">
        <ele>256.2799987793</ele>
        <time>2017-07-28T07:16:30Z</time>
      </trkpt>
      <trkpt lat="43.34762" lon="2.60513">
        <ele>257.2799987793</ele>
        <time>2017-07-28T07:16:32Z</time>
      </trkpt>
      <trkpt lat="43.34758" lon="2.60517">
        <ele>257.2799987793</ele>
        <time>2017-07-28T07:16:34Z</time>
      </trkpt>
      <trkpt lat="43.34754" lon="2.60514">
        <ele>260.2799987793</ele>
        <time>2017-07-28T07:16:36Z</time>
      </trkpt>
      <trkpt lat="43.3475" lon="2.60509">
        <ele>260.2799987793</ele>
        <time>2017-07-28T07:16:38Z</time>
      </trkpt>
      <trkpt lat="43.34746" lon="2.60505">
        <ele>261.2799987793</ele>
        <time>2017-07-28T07:16:40Z</time>
      </trkpt>
      <trkpt lat="43.34742" lon="2.60499">
        <ele>261.2799987793</ele>
        <time>2017-07-28T07:16:42Z</time>
      </trkpt>
      <trkpt lat="43.34737" lon="2.60496">
        <ele>262.2799987793</ele>
        <time>2017-07-28T07:16:44Z</time>
      </trkpt>
      <trkpt lat="43.34733" lon="2.60495">
        <ele>261.2799987793</ele>
        <time>2017-07-28T07:16:46Z</time>
      </trkpt>
      <trkpt lat="43.34728" lon="2.60494">
        <ele>260.2799987793</ele>
        <time>2017-07-28T07:16:48Z</time>
      </trkpt>
      <trkpt lat="43.34722" lon="2.60494">
        <ele>258.2799987793</ele>
        <time>2017-07-28T07:16:51Z</time>
      </trkpt>
      <trkpt lat="43.34717" lon="2.60493">
        <ele>253.2799987793</ele>
        <time>2017-07-28T07:16:53Z</time>
      </trkpt>
      <trkpt lat="43.34712" lon="2.60493">
        <ele>252.2799987793</ele>
        <time>2017-07-28T07:16:55Z</time>
      </trkpt>
      <trkpt lat="43.34706" lon="2.60492">
        <ele>250.2799987793</ele>
        <time>2017-07-28T07:16:57Z</time>
      </trkpt>
      <trkpt lat="43.347" lon="2.60489">
        <ele>251.2799987793</ele>
        <time>2017-07-28T07:16:59Z</time>
      </trkpt>
      <trkpt lat="43.34694" lon="2.60488">
        <ele>251.2799987793</ele>
        <time>2017-07-28T07:17:01Z</time>
      </trkpt>
      <trkpt lat="43.34689" lon="2.60487">
        <ele>251.27900695801</ele>
        <time>2017-07-28T07:17:03Z</time>
      </trkpt>
      <trkpt lat="43.34684" lon="2.60486">
        <ele>250.27900695801</ele>
        <time>2017-07-28T07:17:05Z</time>
      </trkpt>
      <trkpt lat="43.34678" lon="2.60487">
        <ele>250.27900695801</ele>
        <time>2017-07-28T07:17:07Z</time>
      </trkpt>
      <trkpt lat="43.34673" lon="2.60485">
        <ele>250.27900695801</ele>
        <time>2017-07-28T07:17:09Z</time>
      </trkpt>
      <trkpt lat="43.34668" lon="2.60483">
        <ele>249.27900695801</ele>
        <time>2017-07-28T07:17:11Z</time>
      </trkpt>
      <trkpt lat="43.34662" lon="2.60482">
        <ele>247.27900695801</ele>
        <time>2017-07-28T07:17:13Z</time>
      </trkpt>
      <trkpt lat="43.34657" lon="2.6048">
        <ele>247.27900695801</ele>
        <time>2017-07-28T07:17:15Z</time>
      </trkpt>
      <trkpt lat="43.34652" lon="2.60478">
        <ele>245.27900695801</ele>
        <time>2017-07-28T07:17:17Z</time>
      </trkpt>
      <trkpt lat="43.34647" lon="2.60479">
        <ele>245.27900695801</ele>
        <time>2017-07-28T07:17:19Z</time>
      </trkpt>
      <trkpt lat="43.34642" lon="2.60478">
        <ele>244.27900695801</ele>
        <time>2017-07-28T07:17:21Z</time>
      </trkpt>
      <trkpt lat="43.34636" lon="2.60476">
        <ele>241.27900695801</ele>
        <time>2017-07-28T07:17:23Z</time>
      </trkpt>
      <trkpt lat="43.3463" lon="2.60476">
        <ele>240.27900695801</ele>
        <time>2017-07-28T07:17:25Z</time>
      </trkpt>
      <trkpt lat="43.34625" lon="2.60474">
        <ele>240.27900695801</ele>
        <time>2017-07-28T07:17:27Z</time>
      </trkpt>
      <trkpt lat="43.34618" lon="2.60474">
        <ele>240.27900695801</ele>
        <time>2017-07-28T07:17:29Z</time>
      </trkpt>
      <trkpt lat="43.34613" lon="2.60473">
        <ele>239.27900695801</ele>
        <time>2017-07-28T07:17:31Z</time>
      </trkpt>
      <trkpt lat="43.34607" lon="2.60471">
        <ele>237.27900695801</ele>
        <time>2017-07-28T07:17:33Z</time>
      </trkpt>
      <trkpt lat="43.34601" lon="2.6047">
        <ele>237.27900695801</ele>
        <time>2017-07-28T07:17:35Z</time>
      </trkpt>
      <trkpt lat="43.34595" lon="2.60469">
        <ele>236.27900695801</ele>
        <time>2017-07-28T07:17:37Z</time>
      </trkpt>
      <trkpt lat="43.3459" lon="2.60467">
        <ele>235.27900695801</ele>
        <time>2017-07-28T07:17:39Z</time>
      </trkpt>
      <trkpt lat="43.34584" lon="2.60466">
        <ele>234.27900695801</ele>
        <time>2017-07-28T07:17:41Z</time>
      </trkpt>
      <trkpt lat="43.34578" lon="2.60463">
        <ele>231.27900695801</ele>
        <time>2017-07-28T07:17:43Z</time>
      </trkpt>
      <trkpt lat="43.34574" lon="2.60459">
        <ele>231.27900695801</ele>
        <time>2017-07-28T07:17:45Z</time>
      </trkpt>
      <trkpt lat="43.3457" lon="2.60455">
        <ele>230.27900695801</ele>
        <time>2017-07-28T07:17:47Z</time>
      </trkpt>
      <trkpt lat="43.34566" lon="2.6045">
        <ele>228.27900695801</ele>
        <time>2017-07-28T07:17:49Z</time>
      </trkpt>
      <trkpt lat="43.34562" lon="2.60447">
        <ele>227.27900695801</ele>
        <time>2017-07-28T07:17:51Z</time>
      </trkpt>
      <trkpt lat="43.34557" lon="2.6044">
        <ele>227.27900695801</ele>
        <time>2017-07-28T07:17:54Z</time>
      </trkpt>
      <trkpt lat="43.34553" lon="2.60435">
        <ele>228.27900695801</ele>
        <time>2017-07-28T07:17:56Z</time>
      </trkpt>
      <trkpt lat="43.34548" lon="2.60429">
        <ele>227.27900695801</ele>
        <time>2017-07-28T07:17:58Z</time>
      </trkpt>
      <trkpt lat="43.34544" lon="2.60424">
        <ele>227.27900695801</ele>
        <time>2017-07-28T07:18:00Z</time>
      </trkpt>
      <trkpt lat="43.3454" lon="2.60419">
        <ele>226.27900695801</ele>
        <time>2017-07-28T07:18:02Z</time>
      </trkpt>
      <trkpt lat="43.34535" lon="2.60414">
        <ele>227.27900695801</ele>
        <time>2017-07-28T07:18:05Z</time>
      </trkpt>
      <trkpt lat="43.3453" lon="2.60411">
        <ele>228.27900695801</ele>
        <time>2017-07-28T07:18:07Z</time>
      </trkpt>
      <trkpt lat="43.3452" lon="2.60405">
        <ele>227.27900695801</ele>
        <time>2017-07-28T07:18:11Z</time>
      </trkpt>
      <trkpt lat="43.34516" lon="2.60403">
        <ele>228.27900695801</ele>
        <time>2017-07-28T07:18:13Z</time>
      </trkpt>
      <trkpt lat="43.34512" lon="2.604">
        <ele>226.27900695801</ele>
        <time>2017-07-28T07:18:15Z</time>
      </trkpt>
      <trkpt lat="43.34507" lon="2.60397">
        <ele>226.27900695801</ele>
        <time>2017-07-28T07:18:17Z</time>
      </trkpt>
      <trkpt lat="43.34501" lon="2.60396">
        <ele>226.27900695801</ele>
        <time>2017-07-28T07:18:19Z</time>
      </trkpt>
      <trkpt lat="43.34495" lon="2.60395">
        <ele>227.27900695801</ele>
        <time>2017-07-28T07:18:22Z</time>
      </trkpt>
      <trkpt lat="43.34491" lon="2.60393">
        <ele>228.27900695801</ele>
        <time>2017-07-28T07:18:24Z</time>
      </trkpt>
      <trkpt lat="43.34486" lon="2.60392">
        <ele>227.27900695801</ele>
        <time>2017-07-28T07:18:26Z</time>
      </trkpt>
      <trkpt lat="43.34481" lon="2.60391">
        <ele>226.27799987793</ele>
        <time>2017-07-28T07:18:28Z</time>
      </trkpt>
      <trkpt lat="43.34475" lon="2.60388">
        <ele>226.27799987793</ele>
        <time>2017-07-28T07:18:30Z</time>
      </trkpt>
      <trkpt lat="43.3447" lon="2.60385">
        <ele>225.27799987793</ele>
        <time>2017-07-28T07:18:32Z</time>
      </trkpt>
      <trkpt lat="43.34466" lon="2.60381">
        <ele>224.27799987793</ele>
        <time>2017-07-28T07:18:34Z</time>
      </trkpt>
      <trkpt lat="43.34461" lon="2.60376">
        <ele>225.27799987793</ele>
        <time>2017-07-28T07:18:36Z</time>
      </trkpt>
      <trkpt lat="43.34456" lon="2.60374">
        <ele>223.27799987793</ele>
        <time>2017-07-28T07:18:39Z</time>
      </trkpt>
      <trkpt lat="43.3445" lon="2.60371">
        <ele>222.27799987793</ele>
        <time>2017-07-28T07:18:42Z</time>
      </trkpt>
      <trkpt lat="43.34445" lon="2.6037">
        <ele>223.27799987793</ele>
        <time>2017-07-28T07:18:44Z</time>
      </trkpt>
      <trkpt lat="43.34439" lon="2.60368">
        <ele>223.27799987793</ele>
        <time>2017-07-28T07:18:47Z</time>
      </trkpt>
      <trkpt lat="43.34434" lon="2.60364">
        <ele>223.27799987793</ele>
        <time>2017-07-28T07:19:05Z</time>
      </trkpt>
      <trkpt lat="43.34429" lon="2.60362">
        <ele>222.27799987793</ele>
        <time>2017-07-28T07:19:07Z</time>
      </trkpt>
      <trkpt lat="43.34423" lon="2.6036">
        <ele>220.27799987793</ele>
        <time>2017-07-28T07:19:09Z</time>
      </trkpt>
      <trkpt lat="43.34418" lon="2.60357">
        <ele>220.27799987793</ele>
        <time>2017-07-28T07:19:11Z</time>
      </trkpt>
      <trkpt lat="43.34414" lon="2.60352">
        <ele>223.27799987793</ele>
        <time>2017-07-28T07:19:13Z</time>
      </trkpt>
      <trkpt lat="43.34409" lon="2.60349">
        <ele>224.27799987793</ele>
        <time>2017-07-28T07:19:15Z</time>
      </trkpt>
      <trkpt lat="43.34404" lon="2.60342">
        <ele>223.27799987793</ele>
        <time>2017-07-28T07:19:17Z</time>
      </trkpt>
      <trkpt lat="43.34401" lon="2.60334">
        <ele>222.27799987793</ele>
        <time>2017-07-28T07:19:19Z</time>
      </trkpt>
      <trkpt lat="43.34398" lon="2.60329">
        <ele>220.27799987793</ele>
        <time>2017-07-28T07:19:21Z</time>
      </trkpt>
      <trkpt lat="43.34395" lon="2.60322">
        <ele>218.27799987793</ele>
        <time>2017-07-28T07:19:23Z</time>
      </trkpt>
      <trkpt lat="43.34394" lon="2.60314">
        <ele>217.27799987793</ele>
        <time>2017-07-28T07:19:25Z</time>
      </trkpt>
      <trkpt lat="43.34396" lon="2.60307">
        <ele>216.27799987793</ele>
        <time>2017-07-28T07:19:27Z</time>
      </trkpt>
      <trkpt lat="43.344" lon="2.603">
        <ele>217.27799987793</ele>
        <time>2017-07-28T07:19:29Z</time>
      </trkpt>
      <trkpt lat="43.34405" lon="2.60295">
        <ele>216.27799987793</ele>
        <time>2017-07-28T07:19:31Z</time>
      </trkpt>
      <trkpt lat="43.34411" lon="2.60293">
        <ele>214.27799987793</ele>
        <time>2017-07-28T07:19:34Z</time>
      </trkpt>
      <trkpt lat="43.34416" lon="2.60292">
        <ele>215.27799987793</ele>
        <time>2017-07-28T07:19:36Z</time>
      </trkpt>
      <trkpt lat="43.34422" lon="2.60288">
        <ele>216.27799987793</ele>
        <time>2017-07-28T07:19:38Z</time>
      </trkpt>
      <trkpt lat="43.34427" lon="2.60285">
        <ele>215.27799987793</ele>
        <time>2017-07-28T07:19:40Z</time>
      </trkpt>
      <trkpt lat="43.34433" lon="2.6028">
        <ele>215.27799987793</ele>
        <time>2017-07-28T07:19:43Z</time>
      </trkpt>
      <trkpt lat="43.34438" lon="2.60277">
        <ele>214.27799987793</ele>
        <time>2017-07-28T07:19:45Z</time>
      </trkpt>
      <trkpt lat="43.34442" lon="2.60273">
        <ele>213.27799987793</ele>
        <time>2017-07-28T07:19:47Z</time>
      </trkpt>
      <trkpt lat="43.34448" lon="2.6027">
        <ele>211.27799987793</ele>
        <time>2017-07-28T07:19:49Z</time>
      </trkpt>
      <trkpt lat="43.34453" lon="2.60267">
        <ele>210.27799987793</ele>
        <time>2017-07-28T07:19:51Z</time>
      </trkpt>
      <trkpt lat="43.34458" lon="2.60265">
        <ele>210.27799987793</ele>
        <time>2017-07-28T07:19:53Z</time>
      </trkpt>
      <trkpt lat="43.34462" lon="2.60263">
        <ele>212.27799987793</ele>
        <time>2017-07-28T07:19:55Z</time>
      </trkpt>
      <trkpt lat="43.34467" lon="2.60267">
        <ele>211.27799987793</ele>
        <time>2017-07-28T07:19:57Z</time>
      </trkpt>
      <trkpt lat="43.34471" lon="2.60271">
        <ele>210.27799987793</ele>
        <time>2017-07-28T07:19:59Z</time>
      </trkpt>
      <trkpt lat="43.34475" lon="2.60278">
        <ele>208.27799987793</ele>
        <time>2017-07-28T07:20:01Z</time>
      </trkpt>
      <trkpt lat="43.34478" lon="2.60283">
        <ele>207.27799987793</ele>
        <time>2017-07-28T07:20:03Z</time>
      </trkpt>
      <trkpt lat="43.34485" lon="2.60283">
        <ele>208.27799987793</ele>
        <time>2017-07-28T07:20:05Z</time>
      </trkpt>
      <trkpt lat="43.34487" lon="2.60277">
        <ele>208.27799987793</ele>
        <time>2017-07-28T07:20:07Z</time>
      </trkpt>
      <trkpt lat="43.34485" lon="2.6027">
        <ele>209.27799987793</ele>
        <time>2017-07-28T07:20:09Z</time>
      </trkpt>
      <trkpt lat="43.34482" lon="2.60264">
        <ele>208.27799987793</ele>
        <time>2017-07-28T07:20:11Z</time>
      </trkpt>
      <trkpt lat="43.34479" lon="2.60257">
        <ele>207.27799987793</ele>
        <time>2017-07-28T07:20:13Z</time>
      </trkpt>
      <trkpt lat="43.34477" lon="2.60251">
        <ele>207.27799987793</ele>
        <time>2017-07-28T07:20:15Z</time>
      </trkpt>
      <trkpt lat="43.34474" lon="2.60244">
        <ele>209.27799987793</ele>
        <time>2017-07-28T07:20:17Z</time>
      </trkpt>
      <trkpt lat="43.34472" lon="2.60237">
        <ele>208.27799987793</ele>
        <time>2017-07-28T07:20:19Z</time>
      </trkpt>
      <trkpt lat="43.3447" lon="2.6023">
        <ele>208.27799987793</ele>
        <time>2017-07-28T07:20:21Z</time>
      </trkpt>
      <trkpt lat="43.34467" lon="2.60223">
        <ele>208.27799987793</ele>
        <time>2017-07-28T07:20:23Z</time>
      </trkpt>
      <trkpt lat="43.34464" lon="2.60217">
        <ele>208.27799987793</ele>
        <time>2017-07-28T07:20:25Z</time>
      </trkpt>
      <trkpt lat="43.34458" lon="2.60208">
        <ele>207.27799987793</ele>
        <time>2017-07-28T07:20:29Z</time>
      </trkpt>
      <trkpt lat="43.34453" lon="2.60204">
        <ele>207.27799987793</ele>
        <time>2017-07-28T07:20:31Z</time>
      </trkpt>
      <trkpt lat="43.34447" lon="2.60201">
        <ele>207.27799987793</ele>
        <time>2017-07-28T07:20:34Z</time>
      </trkpt>
      <trkpt lat="43.34442" lon="2.602">
        <ele>207.27799987793</ele>
        <time>2017-07-28T07:20:36Z</time>
      </trkpt>
      <trkpt lat="43.34437" lon="2.60198">
        <ele>206.27799987793</ele>
        <time>2017-07-28T07:20:38Z</time>
      </trkpt>
      <trkpt lat="43.34432" lon="2.60198">
        <ele>203.27799987793</ele>
        <time>2017-07-28T07:20:40Z</time>
      </trkpt>
      <trkpt lat="43.34425" lon="2.60196">
        <ele>203.27799987793</ele>
        <time>2017-07-28T07:20:43Z</time>
      </trkpt>
      <trkpt lat="43.34419" lon="2.60197">
        <ele>203.27799987793</ele>
        <time>2017-07-28T07:20:45Z</time>
      </trkpt>
      <trkpt lat="43.34414" lon="2.60197">
        <ele>204.27799987793</ele>
        <time>2017-07-28T07:20:47Z</time>
      </trkpt>
      <trkpt lat="43.34409" lon="2.60195">
        <ele>205.27799987793</ele>
        <time>2017-07-28T07:20:49Z</time>
      </trkpt>
      <trkpt lat="43.34404" lon="2.60195">
        <ele>204.27799987793</ele>
        <time>2017-07-28T07:20:51Z</time>
      </trkpt>
      <trkpt lat="43.34398" lon="2.60194">
        <ele>203.27799987793</ele>
        <time>2017-07-28T07:20:53Z</time>
      </trkpt>
      <trkpt lat="43.34392" lon="2.60193">
        <ele>201.27799987793</ele>
        <time>2017-07-28T07:20:55Z</time>
      </trkpt>
      <trkpt lat="43.34387" lon="2.60193">
        <ele>198.27799987793</ele>
        <time>2017-07-28T07:20:57Z</time>
      </trkpt>
      <trkpt lat="43.34382" lon="2.60192">
        <ele>197.27799987793</ele>
        <time>2017-07-28T07:20:59Z</time>
      </trkpt>
      <trkpt lat="43.34376" lon="2.6019">
        <ele>197.27799987793</ele>
        <time>2017-07-28T07:21:02Z</time>
      </trkpt>
      <trkpt lat="43.34371" lon="2.60188">
        <ele>197.27799987793</ele>
        <time>2017-07-28T07:21:04Z</time>
      </trkpt>
      <trkpt lat="43.34367" lon="2.60184">
        <ele>198.27799987793</ele>
        <time>2017-07-28T07:21:06Z</time>
      </trkpt>
      <trkpt lat="43.34362" lon="2.6018">
        <ele>198.27799987793</ele>
        <time>2017-07-28T07:21:08Z</time>
      </trkpt>
      <trkpt lat="43.34357" lon="2.60177">
        <ele>196.27799987793</ele>
        <time>2017-07-28T07:21:10Z</time>
      </trkpt>
      <trkpt lat="43.34353" lon="2.60173">
        <ele>195.27799987793</ele>
        <time>2017-07-28T07:21:12Z</time>
      </trkpt>
      <trkpt lat="43.34349" lon="2.6017">
        <ele>193.27699279785</ele>
        <time>2017-07-28T07:21:14Z</time>
      </trkpt>
      <trkpt lat="43.34345" lon="2.60166">
        <ele>193.27699279785</ele>
        <time>2017-07-28T07:21:16Z</time>
      </trkpt>
      <trkpt lat="43.3434" lon="2.60162">
        <ele>193.27699279785</ele>
        <time>2017-07-28T07:21:18Z</time>
      </trkpt>
      <trkpt lat="43.34336" lon="2.6016">
        <ele>196.27699279785</ele>
        <time>2017-07-28T07:21:20Z</time>
      </trkpt>
      <trkpt lat="43.34331" lon="2.60158">
        <ele>196.27699279785</ele>
        <time>2017-07-28T07:21:22Z</time>
      </trkpt>
      <trkpt lat="43.34326" lon="2.6016">
        <ele>198.27699279785</ele>
        <time>2017-07-28T07:21:24Z</time>
      </trkpt>
      <trkpt lat="43.34316" lon="2.60162">
        <ele>196.27699279785</ele>
        <time>2017-07-28T07:21:28Z</time>
      </trkpt>
      <trkpt lat="43.34311" lon="2.60164">
        <ele>196.27699279785</ele>
        <time>2017-07-28T07:21:30Z</time>
      </trkpt>
      <trkpt lat="43.34306" lon="2.60164">
        <ele>194.27699279785</ele>
        <time>2017-07-28T07:21:32Z</time>
      </trkpt>
      <trkpt lat="43.34301" lon="2.60168">
        <ele>195.27699279785</ele>
        <time>2017-07-28T07:21:34Z</time>
      </trkpt>
      <trkpt lat="43.34297" lon="2.6017">
        <ele>195.27699279785</ele>
        <time>2017-07-28T07:21:36Z</time>
      </trkpt>
      <trkpt lat="43.34293" lon="2.60172">
        <ele>197.27699279785</ele>
        <time>2017-07-28T07:21:38Z</time>
      </trkpt>
      <trkpt lat="43.34288" lon="2.60175">
        <ele>195.27699279785</ele>
        <time>2017-07-28T07:21:41Z</time>
      </trkpt>
      <trkpt lat="43.34283" lon="2.60178">
        <ele>196.27699279785</ele>
        <time>2017-07-28T07:21:46Z</time>
      </trkpt>
      <trkpt lat="43.34278" lon="2.60182">
        <ele>196.27699279785</ele>
        <time>2017-07-28T07:21:50Z</time>
      </trkpt>
      <trkpt lat="43.34274" lon="2.60185">
        <ele>195.27699279785</ele>
        <time>2017-07-28T07:21:54Z</time>
      </trkpt>
      <trkpt lat="43.34269" lon="2.60186">
        <ele>193.27699279785</ele>
        <time>2017-07-28T07:21:57Z</time>
      </trkpt>
      <trkpt lat="43.34265" lon="2.60188">
        <ele>192.27699279785</ele>
        <time>2017-07-28T07:22:02Z</time>
      </trkpt>
      <trkpt lat="43.34263" lon="2.60196">
        <ele>190.27699279785</ele>
        <time>2017-07-28T07:22:06Z</time>
      </trkpt>
      <trkpt lat="43.34259" lon="2.60202">
        <ele>189.27699279785</ele>
        <time>2017-07-28T07:22:10Z</time>
      </trkpt>
      <trkpt lat="43.34254" lon="2.60207">
        <ele>188.27699279785</ele>
        <time>2017-07-28T07:22:13Z</time>
      </trkpt>
      <trkpt lat="43.34251" lon="2.60213">
        <ele>185.27699279785</ele>
        <time>2017-07-28T07:22:16Z</time>
      </trkpt>
      <trkpt lat="43.34245" lon="2.60218">
        <ele>183.27699279785</ele>
        <time>2017-07-28T07:22:20Z</time>
      </trkpt>
      <trkpt lat="43.3424" lon="2.60224">
        <ele>182.27699279785</ele>
        <time>2017-07-28T07:22:23Z</time>
      </trkpt>
      <trkpt lat="43.34235" lon="2.60228">
        <ele>182.27699279785</ele>
        <time>2017-07-28T07:22:26Z</time>
      </trkpt>
      <trkpt lat="43.34229" lon="2.60228">
        <ele>183.27699279785</ele>
        <time>2017-07-28T07:22:28Z</time>
      </trkpt>
      <trkpt lat="43.34222" lon="2.6023">
        <ele>183.27699279785</ele>
        <time>2017-07-28T07:22:30Z</time>
      </trkpt>
      <trkpt lat="43.34217" lon="2.60233">
        <ele>183.27699279785</ele>
        <time>2017-07-28T07:22:32Z</time>
      </trkpt>
      <trkpt lat="43.34213" lon="2.60232">
        <ele>184.27699279785</ele>
        <time>2017-07-28T07:22:34Z</time>
      </trkpt>
      <trkpt lat="43.34208" lon="2.60233">
        <ele>186.27699279785</ele>
        <time>2017-07-28T07:22:36Z</time>
      </trkpt>
      <trkpt lat="43.34203" lon="2.6023">
        <ele>189.27699279785</ele>
        <time>2017-07-28T07:22:39Z</time>
      </trkpt>
      <trkpt lat="43.34196" lon="2.60228">
        <ele>188.27699279785</ele>
        <time>2017-07-28T07:22:41Z</time>
      </trkpt>
      <trkpt lat="43.3419" lon="2.60225">
        <ele>187.27699279785</ele>
        <time>2017-07-28T07:22:43Z</time>
      </trkpt>
      <trkpt lat="43.34186" lon="2.6022">
        <ele>188.27699279785</ele>
        <time>2017-07-28T07:22:45Z</time>
      </trkpt>
      <trkpt lat="43.34183" lon="2.60213">
        <ele>188.27699279785</ele>
        <time>2017-07-28T07:22:48Z</time>
      </trkpt>
      <trkpt lat="43.34178" lon="2.60207">
        <ele>186.27699279785</ele>
        <time>2017-07-28T07:22:50Z</time>
      </trkpt>
      <trkpt lat="43.34174" lon="2.60201">
        <ele>186.27699279785</ele>
        <time>2017-07-28T07:22:52Z</time>
      </trkpt>
      <trkpt lat="43.3417" lon="2.60195">
        <ele>185.27699279785</ele>
        <time>2017-07-28T07:22:54Z</time>
      </trkpt>
      <trkpt lat="43.34167" lon="2.60189">
        <ele>185.27699279785</ele>
        <time>2017-07-28T07:22:56Z</time>
      </trkpt>
      <trkpt lat="43.34161" lon="2.60185">
        <ele>185.27699279785</ele>
        <time>2017-07-28T07:22:58Z</time>
      </trkpt>
      <trkpt lat="43.34157" lon="2.60181">
        <ele>185.27699279785</ele>
        <time>2017-07-28T07:23:00Z</time>
      </trkpt>
      <trkpt lat="43.3415" lon="2.60179">
        <ele>184.27699279785</ele>
        <time>2017-07-28T07:23:02Z</time>
      </trkpt>
      <trkpt lat="43.34145" lon="2.60178">
        <ele>184.27699279785</ele>
        <time>2017-07-28T07:23:04Z</time>
      </trkpt>
      <trkpt lat="43.3414" lon="2.60177">
        <ele>184.27699279785</ele>
        <time>2017-07-28T07:23:06Z</time>
      </trkpt>
      <trkpt lat="43.34134" lon="2.60177">
        <ele>184.27699279785</ele>
        <time>2017-07-28T07:23:08Z</time>
      </trkpt>
      <trkpt lat="43.34129" lon="2.60174">
        <ele>183.27699279785</ele>
        <time>2017-07-28T07:23:11Z</time>
      </trkpt>
      <trkpt lat="43.34124" lon="2.60173">
        <ele>182.27699279785</ele>
        <time>2017-07-28T07:23:13Z</time>
      </trkpt>
      <trkpt lat="43.34117" lon="2.60174">
        <ele>184.27699279785</ele>
        <time>2017-07-28T07:23:15Z</time>
      </trkpt>
      <trkpt lat="43.34112" lon="2.60171">
        <ele>182.27699279785</ele>
        <time>2017-07-28T07:23:17Z</time>
      </trkpt>
      <trkpt lat="43.34106" lon="2.60172">
        <ele>182.27699279785</ele>
        <time>2017-07-28T07:23:20Z</time>
      </trkpt>
      <trkpt lat="43.34099" lon="2.60175">
        <ele>178.27699279785</ele>
        <time>2017-07-28T07:23:22Z</time>
      </trkpt>
      <trkpt lat="43.34094" lon="2.60178">
        <ele>177.27699279785</ele>
        <time>2017-07-28T07:23:24Z</time>
      </trkpt>
      <trkpt lat="43.34089" lon="2.60181">
        <ele>178.27699279785</ele>
        <time>2017-07-28T07:23:27Z</time>
      </trkpt>
      <trkpt lat="43.34083" lon="2.60185">
        <ele>179.27699279785</ele>
        <time>2017-07-28T07:23:30Z</time>
      </trkpt>
      <trkpt lat="43.34079" lon="2.6019">
        <ele>178.27699279785</ele>
        <time>2017-07-28T07:23:32Z</time>
      </trkpt>
      <trkpt lat="43.34074" lon="2.60195">
        <ele>178.27699279785</ele>
        <time>2017-07-28T07:23:35Z</time>
      </trkpt>
      <trkpt lat="43.34068" lon="2.60197">
        <ele>181.27699279785</ele>
        <time>2017-07-28T07:23:38Z</time>
      </trkpt>
      <trkpt lat="43.34063" lon="2.60198">
        <ele>181.27600097656</ele>
        <time>2017-07-28T07:23:40Z</time>
      </trkpt>
      <trkpt lat="43.34058" lon="2.60201">
        <ele>181.27600097656</ele>
        <time>2017-07-28T07:23:42Z</time>
      </trkpt>
      <trkpt lat="43.34052" lon="2.60204">
        <ele>182.27600097656</ele>
        <time>2017-07-28T07:23:46Z</time>
      </trkpt>
      <trkpt lat="43.34048" lon="2.60206">
        <ele>181.27600097656</ele>
        <time>2017-07-28T07:23:48Z</time>
      </trkpt>
      <trkpt lat="43.34043" lon="2.60208">
        <ele>179.27600097656</ele>
        <time>2017-07-28T07:23:50Z</time>
      </trkpt>
      <trkpt lat="43.34036" lon="2.60204">
        <ele>178.27600097656</ele>
        <time>2017-07-28T07:23:53Z</time>
      </trkpt>
      <trkpt lat="43.34032" lon="2.602">
        <ele>178.27600097656</ele>
        <time>2017-07-28T07:23:55Z</time>
      </trkpt>
      <trkpt lat="43.34027" lon="2.602">
        <ele>174.27600097656</ele>
        <time>2017-07-28T07:23:57Z</time>
      </trkpt>
      <trkpt lat="43.34023" lon="2.60197">
        <ele>174.27600097656</ele>
        <time>2017-07-28T07:24:00Z</time>
      </trkpt>
      <trkpt lat="43.34019" lon="2.60192">
        <ele>172.27600097656</ele>
        <time>2017-07-28T07:24:04Z</time>
      </trkpt>
      <trkpt lat="43.34015" lon="2.60189">
        <ele>175.27600097656</ele>
        <time>2017-07-28T07:24:08Z</time>
      </trkpt>
      <trkpt lat="43.34014" lon="2.60182">
        <ele>177.27600097656</ele>
        <time>2017-07-28T07:24:11Z</time>
      </trkpt>
      <trkpt lat="43.34012" lon="2.60175">
        <ele>178.27600097656</ele>
        <time>2017-07-28T07:24:14Z</time>
      </trkpt>
      <trkpt lat="43.34009" lon="2.60171">
        <ele>178.27600097656</ele>
        <time>2017-07-28T07:24:16Z</time>
      </trkpt>
      <trkpt lat="43.34001" lon="2.60158">
        <ele>177.27600097656</ele>
        <time>2017-07-28T07:24:20Z</time>
      </trkpt>
      <trkpt lat="43.33995" lon="2.60153">
        <ele>177.27600097656</ele>
        <time>2017-07-28T07:24:22Z</time>
      </trkpt>
      <trkpt lat="43.33989" lon="2.6015">
        <ele>175.27600097656</ele>
        <time>2017-07-28T07:24:25Z</time>
      </trkpt>
      <trkpt lat="43.33984" lon="2.60145">
        <ele>176.27600097656</ele>
        <time>2017-07-28T07:24:28Z</time>
      </trkpt>
      <trkpt lat="43.33979" lon="2.60141">
        <ele>174.27600097656</ele>
        <time>2017-07-28T07:24:30Z</time>
      </trkpt>
      <trkpt lat="43.33972" lon="2.60136">
        <ele>172.27600097656</ele>
        <time>2017-07-28T07:24:33Z</time>
      </trkpt>
      <trkpt lat="43.33964" lon="2.60134">
        <ele>171.27600097656</ele>
        <time>2017-07-28T07:24:35Z</time>
      </trkpt>
      <trkpt lat="43.3396" lon="2.60129">
        <ele>172.27600097656</ele>
        <time>2017-07-28T07:24:37Z</time>
      </trkpt>
      <trkpt lat="43.33955" lon="2.60125">
        <ele>172.27600097656</ele>
        <time>2017-07-28T07:24:40Z</time>
      </trkpt>
      <trkpt lat="43.33951" lon="2.60121">
        <ele>173.27600097656</ele>
        <time>2017-07-28T07:24:42Z</time>
      </trkpt>
      <trkpt lat="43.33941" lon="2.60118">
        <ele>173.27600097656</ele>
        <time>2017-07-28T07:24:45Z</time>
      </trkpt>
      <trkpt lat="43.33935" lon="2.60114">
        <ele>175.27600097656</ele>
        <time>2017-07-28T07:24:48Z</time>
      </trkpt>
      <trkpt lat="43.33929" lon="2.60111">
        <ele>175.27600097656</ele>
        <time>2017-07-28T07:24:50Z</time>
      </trkpt>
      <trkpt lat="43.33924" lon="2.60108">
        <ele>173.27600097656</ele>
        <time>2017-07-28T07:24:52Z</time>
      </trkpt>
      <trkpt lat="43.33919" lon="2.60106">
        <ele>171.27600097656</ele>
        <time>2017-07-28T07:24:54Z</time>
      </trkpt>
      <trkpt lat="43.33915" lon="2.60105">
        <ele>170.27600097656</ele>
        <time>2017-07-28T07:24:55Z</time>
      </trkpt>
      <trkpt lat="43.33908" lon="2.60102">
        <ele>169.27600097656</ele>
        <time>2017-07-28T07:24:58Z</time>
      </trkpt>
      <trkpt lat="43.33903" lon="2.601">
        <ele>171.27600097656</ele>
        <time>2017-07-28T07:25:00Z</time>
      </trkpt>
      <trkpt lat="43.33897" lon="2.601">
        <ele>172.27600097656</ele>
        <time>2017-07-28T07:25:02Z</time>
      </trkpt>
      <trkpt lat="43.33891" lon="2.601">
        <ele>173.27600097656</ele>
        <time>2017-07-28T07:25:05Z</time>
      </trkpt>
      <trkpt lat="43.33886" lon="2.60101">
        <ele>173.27600097656</ele>
        <time>2017-07-28T07:25:08Z</time>
      </trkpt>
      <trkpt lat="43.33881" lon="2.60101">
        <ele>172.27600097656</ele>
        <time>2017-07-28T07:25:10Z</time>
      </trkpt>
      <trkpt lat="43.33875" lon="2.60101">
        <ele>173.27600097656</ele>
        <time>2017-07-28T07:25:13Z</time>
      </trkpt>
      <trkpt lat="43.33869" lon="2.60101">
        <ele>173.27600097656</ele>
        <time>2017-07-28T07:25:16Z</time>
      </trkpt>
      <trkpt lat="43.33862" lon="2.60102">
        <ele>171.27600097656</ele>
        <time>2017-07-28T07:25:21Z</time>
      </trkpt>
      <trkpt lat="43.33856" lon="2.60102">
        <ele>171.27600097656</ele>
        <time>2017-07-28T07:25:24Z</time>
      </trkpt>
      <trkpt lat="43.3385" lon="2.60104">
        <ele>169.27499389648</ele>
        <time>2017-07-28T07:25:26Z</time>
      </trkpt>
      <trkpt lat="43.33845" lon="2.60103">
        <ele>168.27499389648</ele>
        <time>2017-07-28T07:25:28Z</time>
      </trkpt>
      <trkpt lat="43.3384" lon="2.60103">
        <ele>169.27499389648</ele>
        <time>2017-07-28T07:25:30Z</time>
      </trkpt>
      <trkpt lat="43.33834" lon="2.60103">
        <ele>170.27499389648</ele>
        <time>2017-07-28T07:25:32Z</time>
      </trkpt>
      <trkpt lat="43.33829" lon="2.60102">
        <ele>171.27499389648</ele>
        <time>2017-07-28T07:25:34Z</time>
      </trkpt>
      <trkpt lat="43.33822" lon="2.60103">
        <ele>171.27499389648</ele>
        <time>2017-07-28T07:25:37Z</time>
      </trkpt>
      <trkpt lat="43.33816" lon="2.60102">
        <ele>172.27499389648</ele>
        <time>2017-07-28T07:25:40Z</time>
      </trkpt>
      <trkpt lat="43.3381" lon="2.60105">
        <ele>173.27499389648</ele>
        <time>2017-07-28T07:25:43Z</time>
      </trkpt>
      <trkpt lat="43.33805" lon="2.60108">
        <ele>175.27499389648</ele>
        <time>2017-07-28T07:25:46Z</time>
      </trkpt>
      <trkpt lat="43.338" lon="2.60108">
        <ele>174.27499389648</ele>
        <time>2017-07-28T07:25:49Z</time>
      </trkpt>
      <trkpt lat="43.33795" lon="2.6011">
        <ele>173.27499389648</ele>
        <time>2017-07-28T07:25:54Z</time>
      </trkpt>
      <trkpt lat="43.33789" lon="2.6011">
        <ele>175.27499389648</ele>
        <time>2017-07-28T07:25:59Z</time>
      </trkpt>
      <trkpt lat="43.33785" lon="2.6011">
        <ele>175.27499389648</ele>
        <time>2017-07-28T07:26:02Z</time>
      </trkpt>
      <trkpt lat="43.33779" lon="2.6011">
        <ele>177.27499389648</ele>
        <time>2017-07-28T07:26:06Z</time>
      </trkpt>
      <trkpt lat="43.33773" lon="2.6011">
        <ele>178.27499389648</ele>
        <time>2017-07-28T07:26:10Z</time>
      </trkpt>
      <trkpt lat="43.33768" lon="2.6011">
        <ele>177.27499389648</ele>
        <time>2017-07-28T07:26:13Z</time>
      </trkpt>
      <trkpt lat="43.33763" lon="2.60111">
        <ele>177.27499389648</ele>
        <time>2017-07-28T07:26:16Z</time>
      </trkpt>
      <trkpt lat="43.33759" lon="2.60112">
        <ele>175.27499389648</ele>
        <time>2017-07-28T07:26:19Z</time>
      </trkpt>
      <trkpt lat="43.33753" lon="2.60112">
        <ele>173.27499389648</ele>
        <time>2017-07-28T07:26:22Z</time>
      </trkpt>
      <trkpt lat="43.33746" lon="2.60114">
        <ele>174.27499389648</ele>
        <time>2017-07-28T07:26:29Z</time>
      </trkpt>
      <trkpt lat="43.33741" lon="2.60117">
        <ele>177.27499389648</ele>
        <time>2017-07-28T07:26:35Z</time>
      </trkpt>
      <trkpt lat="43.33736" lon="2.6012">
        <ele>176.27499389648</ele>
        <time>2017-07-28T07:26:39Z</time>
      </trkpt>
      <trkpt lat="43.33733" lon="2.60125">
        <ele>179.27499389648</ele>
        <time>2017-07-28T07:26:43Z</time>
      </trkpt>
      <trkpt lat="43.33727" lon="2.60128">
        <ele>178.27499389648</ele>
        <time>2017-07-28T07:26:46Z</time>
      </trkpt>
      <trkpt lat="43.33722" lon="2.6013">
        <ele>177.27499389648</ele>
        <time>2017-07-28T07:26:49Z</time>
      </trkpt>
      <trkpt lat="43.33718" lon="2.60135">
        <ele>178.27499389648</ele>
        <time>2017-07-28T07:26:53Z</time>
      </trkpt>
      <trkpt lat="43.33712" lon="2.60139">
        <ele>176.27499389648</ele>
        <time>2017-07-28T07:26:57Z</time>
      </trkpt>
      <trkpt lat="43.33706" lon="2.60139">
        <ele>176.27499389648</ele>
        <time>2017-07-28T07:27:01Z</time>
      </trkpt>
      <trkpt lat="43.33701" lon="2.6014">
        <ele>175.27499389648</ele>
        <time>2017-07-28T07:27:04Z</time>
      </trkpt>
      <trkpt lat="43.33696" lon="2.60142">
        <ele>174.27499389648</ele>
        <time>2017-07-28T07:27:07Z</time>
      </trkpt>
      <trkpt lat="43.33692" lon="2.60147">
        <ele>171.27499389648</ele>
        <time>2017-07-28T07:27:10Z</time>
      </trkpt>
      <trkpt lat="43.33687" lon="2.60151">
        <ele>169.27499389648</ele>
        <time>2017-07-28T07:27:14Z</time>
      </trkpt>
      <trkpt lat="43.33683" lon="2.60155">
        <ele>169.27499389648</ele>
        <time>2017-07-28T07:27:18Z</time>
      </trkpt>
      <trkpt lat="43.33677" lon="2.60156">
        <ele>172.27499389648</ele>
        <time>2017-07-28T07:27:23Z</time>
      </trkpt>
      <trkpt lat="43.33672" lon="2.60156">
        <ele>172.27499389648</ele>
        <time>2017-07-28T07:27:25Z</time>
      </trkpt>
      <trkpt lat="43.33668" lon="2.60158">
        <ele>172.27499389648</ele>
        <time>2017-07-28T07:27:27Z</time>
      </trkpt>
      <trkpt lat="43.33662" lon="2.60161">
        <ele>172.27499389648</ele>
        <time>2017-07-28T07:27:29Z</time>
      </trkpt>
      <trkpt lat="43.33656" lon="2.60163">
        <ele>170.27499389648</ele>
        <time>2017-07-28T07:27:31Z</time>
      </trkpt>
      <trkpt lat="43.33651" lon="2.60163">
        <ele>170.27499389648</ele>
        <time>2017-07-28T07:27:33Z</time>
      </trkpt>
      <trkpt lat="43.33647" lon="2.60164">
        <ele>172.27499389648</ele>
        <time>2017-07-28T07:27:35Z</time>
      </trkpt>
      <trkpt lat="43.3364" lon="2.60164">
        <ele>173.27499389648</ele>
        <time>2017-07-28T07:27:38Z</time>
      </trkpt>
      <trkpt lat="43.33634" lon="2.60164">
        <ele>174.27499389648</ele>
        <time>2017-07-28T07:27:40Z</time>
      </trkpt>
      <trkpt lat="43.33629" lon="2.60164">
        <ele>172.27499389648</ele>
        <time>2017-07-28T07:27:42Z</time>
      </trkpt>
      <trkpt lat="43.33624" lon="2.60164">
        <ele>171.27499389648</ele>
        <time>2017-07-28T07:27:44Z</time>
      </trkpt>
      <trkpt lat="43.33618" lon="2.60163">
        <ele>172.27499389648</ele>
        <time>2017-07-28T07:27:47Z</time>
      </trkpt>
      <trkpt lat="43.33611" lon="2.60164">
        <ele>171.27499389648</ele>
        <time>2017-07-28T07:27:50Z</time>
      </trkpt>
      <trkpt lat="43.33607" lon="2.60163">
        <ele>172.27499389648</ele>
        <time>2017-07-28T07:27:52Z</time>
      </trkpt>
      <trkpt lat="43.33601" lon="2.60162">
        <ele>169.27499389648</ele>
        <time>2017-07-28T07:27:55Z</time>
      </trkpt>
      <trkpt lat="43.33589" lon="2.60164">
        <ele>167.27499389648</ele>
        <time>2017-07-28T07:27:58Z</time>
      </trkpt>
      <trkpt lat="43.33584" lon="2.60164">
        <ele>169.27499389648</ele>
        <time>2017-07-28T07:28:00Z</time>
      </trkpt>
      <trkpt lat="43.33578" lon="2.60165">
        <ele>168.27499389648</ele>
        <time>2017-07-28T07:28:02Z</time>
      </trkpt>
      <trkpt lat="43.3357" lon="2.60166">
        <ele>169.27499389648</ele>
        <time>2017-07-28T07:28:05Z</time>
      </trkpt>
      <trkpt lat="43.33565" lon="2.60166">
        <ele>170.27499389648</ele>
        <time>2017-07-28T07:28:07Z</time>
      </trkpt>
      <trkpt lat="43.3356" lon="2.60167">
        <ele>169.27499389648</ele>
        <time>2017-07-28T07:28:09Z</time>
      </trkpt>
      <trkpt lat="43.33555" lon="2.60167">
        <ele>169.27499389648</ele>
        <time>2017-07-28T07:28:11Z</time>
      </trkpt>
      <trkpt lat="43.33547" lon="2.60165">
        <ele>170.27499389648</ele>
        <time>2017-07-28T07:28:14Z</time>
      </trkpt>
      <trkpt lat="43.33542" lon="2.60163">
        <ele>169.27400207519</ele>
        <time>2017-07-28T07:28:17Z</time>
      </trkpt>
      <trkpt lat="43.33534" lon="2.60164">
        <ele>171.27400207519</ele>
        <time>2017-07-28T07:28:20Z</time>
      </trkpt>
      <trkpt lat="43.33529" lon="2.60166">
        <ele>169.27400207519</ele>
        <time>2017-07-28T07:28:22Z</time>
      </trkpt>
      <trkpt lat="43.33525" lon="2.60166">
        <ele>168.27400207519</ele>
        <time>2017-07-28T07:28:24Z</time>
      </trkpt>
      <trkpt lat="43.33519" lon="2.60167">
        <ele>170.27400207519</ele>
        <time>2017-07-28T07:28:26Z</time>
      </trkpt>
      <trkpt lat="43.33514" lon="2.60167">
        <ele>171.27400207519</ele>
        <time>2017-07-28T07:28:28Z</time>
      </trkpt>
      <trkpt lat="43.33508" lon="2.60166">
        <ele>169.27400207519</ele>
        <time>2017-07-28T07:28:31Z</time>
      </trkpt>
      <trkpt lat="43.33501" lon="2.60167">
        <ele>171.27400207519</ele>
        <time>2017-07-28T07:28:34Z</time>
      </trkpt>
      <trkpt lat="43.33495" lon="2.60169">
        <ele>170.27400207519</ele>
        <time>2017-07-28T07:28:36Z</time>
      </trkpt>
      <trkpt lat="43.33488" lon="2.60169">
        <ele>170.27400207519</ele>
        <time>2017-07-28T07:28:38Z</time>
      </trkpt>
      <trkpt lat="43.33482" lon="2.60169">
        <ele>169.27400207519</ele>
        <time>2017-07-28T07:28:40Z</time>
      </trkpt>
      <trkpt lat="43.33477" lon="2.6017">
        <ele>168.27400207519</ele>
        <time>2017-07-28T07:28:42Z</time>
      </trkpt>
      <trkpt lat="43.33472" lon="2.60171">
        <ele>168.27400207519</ele>
        <time>2017-07-28T07:28:44Z</time>
      </trkpt>
      <trkpt lat="43.33466" lon="2.60174">
        <ele>168.27400207519</ele>
        <time>2017-07-28T07:28:46Z</time>
      </trkpt>
      <trkpt lat="43.33458" lon="2.6018">
        <ele>166.27400207519</ele>
        <time>2017-07-28T07:28:50Z</time>
      </trkpt>
      <trkpt lat="43.33452" lon="2.60182">
        <ele>165.27400207519</ele>
        <time>2017-07-28T07:28:52Z</time>
      </trkpt>
      <trkpt lat="43.33445" lon="2.60183">
        <ele>165.27400207519</ele>
        <time>2017-07-28T07:28:54Z</time>
      </trkpt>
      <trkpt lat="43.33441" lon="2.60185">
        <ele>165.27400207519</ele>
        <time>2017-07-28T07:28:56Z</time>
      </trkpt>
      <trkpt lat="43.33435" lon="2.6019">
        <ele>165.27400207519</ele>
        <time>2017-07-28T07:28:59Z</time>
      </trkpt>
      <trkpt lat="43.3343" lon="2.60192">
        <ele>164.27400207519</ele>
        <time>2017-07-28T07:29:01Z</time>
      </trkpt>
      <trkpt lat="43.33426" lon="2.60195">
        <ele>165.27400207519</ele>
        <time>2017-07-28T07:29:04Z</time>
      </trkpt>
      <trkpt lat="43.3342" lon="2.60197">
        <ele>163.27400207519</ele>
        <time>2017-07-28T07:29:06Z</time>
      </trkpt>
      <trkpt lat="43.33415" lon="2.602">
        <ele>163.27400207519</ele>
        <time>2017-07-28T07:29:08Z</time>
      </trkpt>
      <trkpt lat="43.3341" lon="2.60203">
        <ele>168.27400207519</ele>
        <time>2017-07-28T07:29:11Z</time>
      </trkpt>
      <trkpt lat="43.33405" lon="2.60205">
        <ele>168.27400207519</ele>
        <time>2017-07-28T07:29:13Z</time>
      </trkpt>
      <trkpt lat="43.334" lon="2.60209">
        <ele>169.27400207519</ele>
        <time>2017-07-28T07:29:16Z</time>
      </trkpt>
      <trkpt lat="43.33394" lon="2.60211">
        <ele>168.27400207519</ele>
        <time>2017-07-28T07:29:18Z</time>
      </trkpt>
      <trkpt lat="43.33388" lon="2.60214">
        <ele>167.27400207519</ele>
        <time>2017-07-28T07:29:20Z</time>
      </trkpt>
      <trkpt lat="43.33383" lon="2.60218">
        <ele>168.27400207519</ele>
        <time>2017-07-28T07:29:22Z</time>
      </trkpt>
      <trkpt lat="43.33373" lon="2.60222">
        <ele>168.27400207519</ele>
        <time>2017-07-28T07:29:26Z</time>
      </trkpt>
      <trkpt lat="43.33369" lon="2.60225">
        <ele>168.27400207519</ele>
        <time>2017-07-28T07:29:28Z</time>
      </trkpt>
      <trkpt lat="43.33365" lon="2.60225">
        <ele>167.27400207519</ele>
        <time>2017-07-28T07:29:30Z</time>
      </trkpt>
      <trkpt lat="43.33359" lon="2.60226">
        <ele>167.27400207519</ele>
        <time>2017-07-28T07:29:34Z</time>
      </trkpt>
      <trkpt lat="43.33354" lon="2.60226">
        <ele>166.27400207519</ele>
        <time>2017-07-28T07:29:37Z</time>
      </trkpt>
      <trkpt lat="43.33349" lon="2.60227">
        <ele>167.27400207519</ele>
        <time>2017-07-28T07:29:41Z</time>
      </trkpt>
      <trkpt lat="43.33344" lon="2.60226">
        <ele>167.27400207519</ele>
        <time>2017-07-28T07:29:45Z</time>
      </trkpt>
      <trkpt lat="43.33338" lon="2.60224">
        <ele>167.27400207519</ele>
        <time>2017-07-28T07:29:49Z</time>
      </trkpt>
      <trkpt lat="43.33333" lon="2.60222">
        <ele>166.27400207519</ele>
        <time>2017-07-28T07:29:53Z</time>
      </trkpt>
      <trkpt lat="43.33327" lon="2.60221">
        <ele>167.27400207519</ele>
        <time>2017-07-28T07:29:57Z</time>
      </trkpt>
      <trkpt lat="43.33323" lon="2.60218">
        <ele>167.27400207519</ele>
        <time>2017-07-28T07:30:01Z</time>
      </trkpt>
      <trkpt lat="43.33318" lon="2.60217">
        <ele>166.27400207519</ele>
        <time>2017-07-28T07:30:05Z</time>
      </trkpt>
      <trkpt lat="43.33313" lon="2.60215">
        <ele>166.27400207519</ele>
        <time>2017-07-28T07:30:08Z</time>
      </trkpt>
      <trkpt lat="43.33308" lon="2.60213">
        <ele>166.27400207519</ele>
        <time>2017-07-28T07:30:11Z</time>
      </trkpt>
      <trkpt lat="43.33303" lon="2.60212">
        <ele>165.27400207519</ele>
        <time>2017-07-28T07:30:13Z</time>
      </trkpt>
      <trkpt lat="43.33298" lon="2.60211">
        <ele>164.27400207519</ele>
        <time>2017-07-28T07:30:17Z</time>
      </trkpt>
      <trkpt lat="43.33293" lon="2.60209">
        <ele>165.27400207519</ele>
        <time>2017-07-28T07:30:24Z</time>
      </trkpt>
      <trkpt lat="43.33289" lon="2.60213">
        <ele>165.27400207519</ele>
        <time>2017-07-28T07:30:27Z</time>
      </trkpt>
      <trkpt lat="43.33287" lon="2.60221">
        <ele>164.27400207519</ele>
        <time>2017-07-28T07:30:34Z</time>
      </trkpt>
      <trkpt lat="43.33287" lon="2.60228">
        <ele>164.27400207519</ele>
        <time>2017-07-28T07:30:37Z</time>
      </trkpt>
      <trkpt lat="43.33286" lon="2.60234">
        <ele>162.27400207519</ele>
        <time>2017-07-28T07:30:40Z</time>
      </trkpt>
      <trkpt lat="43.33285" lon="2.6024">
        <ele>163.27400207519</ele>
        <time>2017-07-28T07:30:44Z</time>
      </trkpt>
      <trkpt lat="43.33285" lon="2.60249">
        <ele>164.27400207519</ele>
        <time>2017-07-28T07:30:50Z</time>
      </trkpt>
      <trkpt lat="43.33284" lon="2.60256">
        <ele>161.27400207519</ele>
        <time>2017-07-28T07:30:53Z</time>
      </trkpt>
      <trkpt lat="43.33282" lon="2.60263">
        <ele>160.27400207519</ele>
        <time>2017-07-28T07:30:57Z</time>
      </trkpt>
      <trkpt lat="43.33282" lon="2.60271">
        <ele>159.27400207519</ele>
        <time>2017-07-28T07:31:00Z</time>
      </trkpt>
      <trkpt lat="43.33285" lon="2.60276">
        <ele>160.27400207519</ele>
        <time>2017-07-28T07:31:04Z</time>
      </trkpt>
      <trkpt lat="43.33285" lon="2.60284">
        <ele>160.27400207519</ele>
        <time>2017-07-28T07:31:18Z</time>
      </trkpt>
      <trkpt lat="43.33286" lon="2.60291">
        <ele>160.27400207519</ele>
        <time>2017-07-28T07:31:23Z</time>
      </trkpt>
      <trkpt lat="43.33287" lon="2.60298">
        <ele>163.27400207519</ele>
        <time>2017-07-28T07:31:27Z</time>
      </trkpt>
    </trkseg>
  </trk>
</gpx>